<?xml version="1.0" encoding="UTF-8" standalone="no" ?>
<gpx xmlns="http://www.topografix.com/GPX/1/1" xmlns:xsi="http://www.w3.org/2001/XMLSchema-instance" xsi:schemaLocation="http://www.topografix.com/GPX/1/1 http://www.topografix.com/GPX/1/1/gpx.xsd" version="1.1" creator="VisuGPX - https://www.visugpx.com">
  <metadata>
    <name>20240130 La Saussay</name>
    <desc><![CDATA[Circuit au départ de La Saussaye avec passage par la Harengère et le Bec Thomas]]></desc>
  </metadata>
  <trk>
    <name><![CDATA[SityTrail - 20240130 La Saussay]]></name>
    <trkseg>
      <trkpt lat="49.25908" lon="0.98644">
        <ele>131</ele>
        <time>2024-01-30T12:56:16.468+00:00</time>
      </trkpt>
      <trkpt lat="49.25908" lon="0.98644">
        <ele>131</ele>
        <time>2024-01-30T12:56:16.468+00:00</time>
      </trkpt>
      <trkpt lat="49.25905" lon="0.98645">
        <ele>131</ele>
        <time>2024-01-30T13:07:16.509+00:00</time>
      </trkpt>
      <trkpt lat="49.25904" lon="0.98645">
        <ele>131</ele>
        <time>2024-01-30T13:07:20.360+00:00</time>
      </trkpt>
      <trkpt lat="49.25905" lon="0.98651">
        <ele>131</ele>
        <time>2024-01-30T13:07:24.886+00:00</time>
      </trkpt>
      <trkpt lat="49.25906" lon="0.98661">
        <ele>131</ele>
        <time>2024-01-30T13:07:29.055+00:00</time>
      </trkpt>
      <trkpt lat="49.25902" lon="0.98668">
        <ele>133</ele>
        <time>2024-01-30T13:07:33.701+00:00</time>
      </trkpt>
      <trkpt lat="49.25899" lon="0.98667">
        <ele>133</ele>
        <time>2024-01-30T13:07:37.751+00:00</time>
      </trkpt>
      <trkpt lat="49.25898" lon="0.9867">
        <ele>133</ele>
        <time>2024-01-30T13:07:42.515+00:00</time>
      </trkpt>
      <trkpt lat="49.25897" lon="0.98674">
        <ele>133</ele>
        <time>2024-01-30T13:07:47.280+00:00</time>
      </trkpt>
      <trkpt lat="49.25897" lon="0.98682">
        <ele>131</ele>
        <time>2024-01-30T13:07:52.045+00:00</time>
      </trkpt>
      <trkpt lat="49.25896" lon="0.98686">
        <ele>131</ele>
        <time>2024-01-30T13:07:56.095+00:00</time>
      </trkpt>
      <trkpt lat="49.25898" lon="0.98693">
        <ele>131</ele>
        <time>2024-01-30T13:08:00.859+00:00</time>
      </trkpt>
      <trkpt lat="49.25893" lon="0.98701">
        <ele>131</ele>
        <time>2024-01-30T13:08:05.386+00:00</time>
      </trkpt>
      <trkpt lat="49.25891" lon="0.98708">
        <ele>131</ele>
        <time>2024-01-30T13:08:09.436+00:00</time>
      </trkpt>
      <trkpt lat="49.25889" lon="0.98713">
        <ele>130</ele>
        <time>2024-01-30T13:08:13.486+00:00</time>
      </trkpt>
      <trkpt lat="49.25886" lon="0.98717">
        <ele>130</ele>
        <time>2024-01-30T13:08:17.059+00:00</time>
      </trkpt>
      <trkpt lat="49.2588" lon="0.98718">
        <ele>130</ele>
        <time>2024-01-30T13:08:22.062+00:00</time>
      </trkpt>
      <trkpt lat="49.25875" lon="0.98719">
        <ele>131</ele>
        <time>2024-01-30T13:08:26.645+00:00</time>
      </trkpt>
      <trkpt lat="49.2587" lon="0.98721">
        <ele>131</ele>
        <time>2024-01-30T13:08:31.115+00:00</time>
      </trkpt>
      <trkpt lat="49.25864" lon="0.98722">
        <ele>131</ele>
        <time>2024-01-30T13:08:35.583+00:00</time>
      </trkpt>
      <trkpt lat="49.25858" lon="0.98724">
        <ele>131</ele>
        <time>2024-01-30T13:08:39.692+00:00</time>
      </trkpt>
      <trkpt lat="49.25852" lon="0.98725">
        <ele>131</ele>
        <time>2024-01-30T13:08:44.233+00:00</time>
      </trkpt>
      <trkpt lat="49.25847" lon="0.98728">
        <ele>131</ele>
        <time>2024-01-30T13:08:48.525+00:00</time>
      </trkpt>
      <trkpt lat="49.25843" lon="0.98733">
        <ele>132</ele>
        <time>2024-01-30T13:08:52.676+00:00</time>
      </trkpt>
      <trkpt lat="49.25839" lon="0.98739">
        <ele>132</ele>
        <time>2024-01-30T13:08:57.162+00:00</time>
      </trkpt>
      <trkpt lat="49.25837" lon="0.98744">
        <ele>132</ele>
        <time>2024-01-30T13:09:01.490+00:00</time>
      </trkpt>
      <trkpt lat="49.25834" lon="0.9875">
        <ele>132</ele>
        <time>2024-01-30T13:09:05.659+00:00</time>
      </trkpt>
      <trkpt lat="49.2583" lon="0.98755">
        <ele>132</ele>
        <time>2024-01-30T13:09:09.709+00:00</time>
      </trkpt>
      <trkpt lat="49.25826" lon="0.98758">
        <ele>132</ele>
        <time>2024-01-30T13:09:14.474+00:00</time>
      </trkpt>
      <trkpt lat="49.25822" lon="0.98762">
        <ele>132</ele>
        <time>2024-01-30T13:09:18.922+00:00</time>
      </trkpt>
      <trkpt lat="49.25816" lon="0.98763">
        <ele>133</ele>
        <time>2024-01-30T13:09:23.289+00:00</time>
      </trkpt>
      <trkpt lat="49.25811" lon="0.98764">
        <ele>132</ele>
        <time>2024-01-30T13:09:27.681+00:00</time>
      </trkpt>
      <trkpt lat="49.25807" lon="0.98768">
        <ele>132</ele>
        <time>2024-01-30T13:09:31.865+00:00</time>
      </trkpt>
      <trkpt lat="49.25803" lon="0.98773">
        <ele>132</ele>
        <time>2024-01-30T13:09:36.273+00:00</time>
      </trkpt>
      <trkpt lat="49.25798" lon="0.98777">
        <ele>132</ele>
        <time>2024-01-30T13:09:40.918+00:00</time>
      </trkpt>
      <trkpt lat="49.25793" lon="0.9878">
        <ele>132</ele>
        <time>2024-01-30T13:09:45.206+00:00</time>
      </trkpt>
      <trkpt lat="49.25787" lon="0.9878">
        <ele>132</ele>
        <time>2024-01-30T13:09:49.256+00:00</time>
      </trkpt>
      <trkpt lat="49.25781" lon="0.98782">
        <ele>132</ele>
        <time>2024-01-30T13:09:54.021+00:00</time>
      </trkpt>
      <trkpt lat="49.25776" lon="0.98783">
        <ele>132</ele>
        <time>2024-01-30T13:09:58.529+00:00</time>
      </trkpt>
      <trkpt lat="49.2577" lon="0.98784">
        <ele>132</ele>
        <time>2024-01-30T13:10:02.955+00:00</time>
      </trkpt>
      <trkpt lat="49.25765" lon="0.98785">
        <ele>132</ele>
        <time>2024-01-30T13:10:07.358+00:00</time>
      </trkpt>
      <trkpt lat="49.2576" lon="0.98786">
        <ele>131</ele>
        <time>2024-01-30T13:10:11.174+00:00</time>
      </trkpt>
      <trkpt lat="49.25755" lon="0.98787">
        <ele>131</ele>
        <time>2024-01-30T13:10:16.244+00:00</time>
      </trkpt>
      <trkpt lat="49.25749" lon="0.98788">
        <ele>131</ele>
        <time>2024-01-30T13:10:20.718+00:00</time>
      </trkpt>
      <trkpt lat="49.25744" lon="0.98789">
        <ele>131</ele>
        <time>2024-01-30T13:10:25.110+00:00</time>
      </trkpt>
      <trkpt lat="49.25739" lon="0.9879">
        <ele>131</ele>
        <time>2024-01-30T13:10:29.637+00:00</time>
      </trkpt>
      <trkpt lat="49.25734" lon="0.9879">
        <ele>131</ele>
        <time>2024-01-30T13:10:34.163+00:00</time>
      </trkpt>
      <trkpt lat="49.2573" lon="0.9879">
        <ele>131</ele>
        <time>2024-01-30T13:10:38.451+00:00</time>
      </trkpt>
      <trkpt lat="49.25723" lon="0.98788">
        <ele>131</ele>
        <time>2024-01-30T13:10:43.074+00:00</time>
      </trkpt>
      <trkpt lat="49.25718" lon="0.98787">
        <ele>131</ele>
        <time>2024-01-30T13:10:47.266+00:00</time>
      </trkpt>
      <trkpt lat="49.25714" lon="0.9879">
        <ele>131</ele>
        <time>2024-01-30T13:10:51.911+00:00</time>
      </trkpt>
      <trkpt lat="49.25707" lon="0.98792">
        <ele>130</ele>
        <time>2024-01-30T13:10:56.319+00:00</time>
      </trkpt>
      <trkpt lat="49.257" lon="0.98791">
        <ele>130</ele>
        <time>2024-01-30T13:11:00.726+00:00</time>
      </trkpt>
      <trkpt lat="49.25692" lon="0.98791">
        <ele>130</ele>
        <time>2024-01-30T13:11:05.252+00:00</time>
      </trkpt>
      <trkpt lat="49.25685" lon="0.98791">
        <ele>130</ele>
        <time>2024-01-30T13:11:09.183+00:00</time>
      </trkpt>
      <trkpt lat="49.25678" lon="0.98792">
        <ele>128</ele>
        <time>2024-01-30T13:11:13.686+00:00</time>
      </trkpt>
      <trkpt lat="49.25671" lon="0.98794">
        <ele>128</ele>
        <time>2024-01-30T13:11:18.241+00:00</time>
      </trkpt>
      <trkpt lat="49.25666" lon="0.98796">
        <ele>128</ele>
        <time>2024-01-30T13:11:22.620+00:00</time>
      </trkpt>
      <trkpt lat="49.2566" lon="0.98798">
        <ele>128</ele>
        <time>2024-01-30T13:11:26.999+00:00</time>
      </trkpt>
      <trkpt lat="49.25654" lon="0.98799">
        <ele>128</ele>
        <time>2024-01-30T13:11:31.405+00:00</time>
      </trkpt>
      <trkpt lat="49.2565" lon="0.988">
        <ele>128</ele>
        <time>2024-01-30T13:11:35.508+00:00</time>
      </trkpt>
      <trkpt lat="49.25644" lon="0.98802">
        <ele>128</ele>
        <time>2024-01-30T13:11:39.677+00:00</time>
      </trkpt>
      <trkpt lat="49.25628" lon="0.98808">
        <ele>128</ele>
        <time>2024-01-30T13:11:57.068+00:00</time>
      </trkpt>
      <trkpt lat="49.25622" lon="0.98809">
        <ele>130</ele>
        <time>2024-01-30T13:12:01.713+00:00</time>
      </trkpt>
      <trkpt lat="49.25616" lon="0.98806">
        <ele>130</ele>
        <time>2024-01-30T13:12:06.478+00:00</time>
      </trkpt>
      <trkpt lat="49.2561" lon="0.98813">
        <ele>130</ele>
        <time>2024-01-30T13:12:10.647+00:00</time>
      </trkpt>
      <trkpt lat="49.25604" lon="0.98816">
        <ele>130</ele>
        <time>2024-01-30T13:12:14.697+00:00</time>
      </trkpt>
      <trkpt lat="49.25598" lon="0.98819">
        <ele>130</ele>
        <time>2024-01-30T13:12:19.480+00:00</time>
      </trkpt>
      <trkpt lat="49.25593" lon="0.98821">
        <ele>130</ele>
        <time>2024-01-30T13:12:23.517+00:00</time>
      </trkpt>
      <trkpt lat="49.25587" lon="0.98823">
        <ele>130</ele>
        <time>2024-01-30T13:12:27.681+00:00</time>
      </trkpt>
      <trkpt lat="49.2558" lon="0.98824">
        <ele>130</ele>
        <time>2024-01-30T13:12:32.088+00:00</time>
      </trkpt>
      <trkpt lat="49.25575" lon="0.98826">
        <ele>130</ele>
        <time>2024-01-30T13:12:36.257+00:00</time>
      </trkpt>
      <trkpt lat="49.25569" lon="0.98827">
        <ele>128</ele>
        <time>2024-01-30T13:12:40.977+00:00</time>
      </trkpt>
      <trkpt lat="49.25563" lon="0.98829">
        <ele>128</ele>
        <time>2024-01-30T13:12:45.072+00:00</time>
      </trkpt>
      <trkpt lat="49.25556" lon="0.98832">
        <ele>128</ele>
        <time>2024-01-30T13:12:49.708+00:00</time>
      </trkpt>
      <trkpt lat="49.25551" lon="0.98833">
        <ele>128</ele>
        <time>2024-01-30T13:12:54.089+00:00</time>
      </trkpt>
      <trkpt lat="49.25545" lon="0.98834">
        <ele>128</ele>
        <time>2024-01-30T13:12:58.532+00:00</time>
      </trkpt>
      <trkpt lat="49.2554" lon="0.98836">
        <ele>127</ele>
        <time>2024-01-30T13:13:03.058+00:00</time>
      </trkpt>
      <trkpt lat="49.25535" lon="0.98837">
        <ele>127</ele>
        <time>2024-01-30T13:13:07.513+00:00</time>
      </trkpt>
      <trkpt lat="49.2553" lon="0.9884">
        <ele>127</ele>
        <time>2024-01-30T13:13:12.119+00:00</time>
      </trkpt>
      <trkpt lat="49.25525" lon="0.98842">
        <ele>127</ele>
        <time>2024-01-30T13:13:16.519+00:00</time>
      </trkpt>
      <trkpt lat="49.25518" lon="0.98844">
        <ele>127</ele>
        <time>2024-01-30T13:13:20.969+00:00</time>
      </trkpt>
      <trkpt lat="49.25513" lon="0.98846">
        <ele>127</ele>
        <time>2024-01-30T13:13:25.438+00:00</time>
      </trkpt>
      <trkpt lat="49.25508" lon="0.98849">
        <ele>127</ele>
        <time>2024-01-30T13:13:29.859+00:00</time>
      </trkpt>
      <trkpt lat="49.25502" lon="0.98851">
        <ele>127</ele>
        <time>2024-01-30T13:13:34.386+00:00</time>
      </trkpt>
      <trkpt lat="49.25499" lon="0.98852">
        <ele>127</ele>
        <time>2024-01-30T13:13:38.317+00:00</time>
      </trkpt>
      <trkpt lat="49.25494" lon="0.98852">
        <ele>127</ele>
        <time>2024-01-30T13:13:43.076+00:00</time>
      </trkpt>
      <trkpt lat="49.2549" lon="0.98854">
        <ele>127</ele>
        <time>2024-01-30T13:13:47.164+00:00</time>
      </trkpt>
      <trkpt lat="49.25485" lon="0.98856">
        <ele>128</ele>
        <time>2024-01-30T13:13:51.300+00:00</time>
      </trkpt>
      <trkpt lat="49.2548" lon="0.98859">
        <ele>128</ele>
        <time>2024-01-30T13:13:55.861+00:00</time>
      </trkpt>
      <trkpt lat="49.25474" lon="0.9886">
        <ele>128</ele>
        <time>2024-01-30T13:14:00.472+00:00</time>
      </trkpt>
      <trkpt lat="49.25468" lon="0.98861">
        <ele>128</ele>
        <time>2024-01-30T13:14:04.509+00:00</time>
      </trkpt>
      <trkpt lat="49.25464" lon="0.98864">
        <ele>128</ele>
        <time>2024-01-30T13:14:08.691+00:00</time>
      </trkpt>
      <trkpt lat="49.25459" lon="0.98867">
        <ele>128</ele>
        <time>2024-01-30T13:14:13.212+00:00</time>
      </trkpt>
      <trkpt lat="49.25457" lon="0.98873">
        <ele>128</ele>
        <time>2024-01-30T13:14:17.268+00:00</time>
      </trkpt>
      <trkpt lat="49.25458" lon="0.98879">
        <ele>126</ele>
        <time>2024-01-30T13:14:21.079+00:00</time>
      </trkpt>
      <trkpt lat="49.25458" lon="0.98883">
        <ele>126</ele>
        <time>2024-01-30T13:14:25.844+00:00</time>
      </trkpt>
      <trkpt lat="49.25461" lon="0.9889">
        <ele>127</ele>
        <time>2024-01-30T13:14:30.490+00:00</time>
      </trkpt>
      <trkpt lat="49.25463" lon="0.98898">
        <ele>127</ele>
        <time>2024-01-30T13:14:35.135+00:00</time>
      </trkpt>
      <trkpt lat="49.25464" lon="0.98907">
        <ele>126</ele>
        <time>2024-01-30T13:14:39.537+00:00</time>
      </trkpt>
      <trkpt lat="49.25466" lon="0.98915">
        <ele>126</ele>
        <time>2024-01-30T13:14:44.069+00:00</time>
      </trkpt>
      <trkpt lat="49.25467" lon="0.98923">
        <ele>126</ele>
        <time>2024-01-30T13:14:48.119+00:00</time>
      </trkpt>
      <trkpt lat="49.25469" lon="0.98933">
        <ele>125</ele>
        <time>2024-01-30T13:14:53.122+00:00</time>
      </trkpt>
      <trkpt lat="49.2547" lon="0.98942">
        <ele>125</ele>
        <time>2024-01-30T13:14:57.648+00:00</time>
      </trkpt>
      <trkpt lat="49.25472" lon="0.98951">
        <ele>125</ele>
        <time>2024-01-30T13:15:02.241+00:00</time>
      </trkpt>
      <trkpt lat="49.25473" lon="0.9896">
        <ele>126</ele>
        <time>2024-01-30T13:15:06.701+00:00</time>
      </trkpt>
      <trkpt lat="49.25473" lon="0.98969">
        <ele>126</ele>
        <time>2024-01-30T13:15:11.108+00:00</time>
      </trkpt>
      <trkpt lat="49.2547" lon="0.98977">
        <ele>126</ele>
        <time>2024-01-30T13:15:15.635+00:00</time>
      </trkpt>
      <trkpt lat="49.25467" lon="0.98984">
        <ele>126</ele>
        <time>2024-01-30T13:15:20.161+00:00</time>
      </trkpt>
      <trkpt lat="49.25464" lon="0.98992">
        <ele>128</ele>
        <time>2024-01-30T13:15:24.687+00:00</time>
      </trkpt>
      <trkpt lat="49.25461" lon="0.98999">
        <ele>128</ele>
        <time>2024-01-30T13:15:29.214+00:00</time>
      </trkpt>
      <trkpt lat="49.25458" lon="0.99006">
        <ele>125</ele>
        <time>2024-01-30T13:15:33.740+00:00</time>
      </trkpt>
      <trkpt lat="49.25455" lon="0.99013">
        <ele>125</ele>
        <time>2024-01-30T13:15:38.267+00:00</time>
      </trkpt>
      <trkpt lat="49.25453" lon="0.9902">
        <ele>127</ele>
        <time>2024-01-30T13:15:42.436+00:00</time>
      </trkpt>
      <trkpt lat="49.2545" lon="0.99027">
        <ele>127</ele>
        <time>2024-01-30T13:15:47.081+00:00</time>
      </trkpt>
      <trkpt lat="49.25446" lon="0.99033">
        <ele>127</ele>
        <time>2024-01-30T13:15:51.525+00:00</time>
      </trkpt>
      <trkpt lat="49.25442" lon="0.9904">
        <ele>127</ele>
        <time>2024-01-30T13:15:55.658+00:00</time>
      </trkpt>
      <trkpt lat="49.25439" lon="0.99047">
        <ele>128</ele>
        <time>2024-01-30T13:16:00.303+00:00</time>
      </trkpt>
      <trkpt lat="49.25437" lon="0.99055">
        <ele>128</ele>
        <time>2024-01-30T13:16:04.710+00:00</time>
      </trkpt>
      <trkpt lat="49.25434" lon="0.99063">
        <ele>128</ele>
        <time>2024-01-30T13:16:09.237+00:00</time>
      </trkpt>
      <trkpt lat="49.25433" lon="0.9907">
        <ele>129</ele>
        <time>2024-01-30T13:16:13.644+00:00</time>
      </trkpt>
      <trkpt lat="49.25432" lon="0.99078">
        <ele>129</ele>
        <time>2024-01-30T13:16:18.051+00:00</time>
      </trkpt>
      <trkpt lat="49.25432" lon="0.99087">
        <ele>129</ele>
        <time>2024-01-30T13:16:22.101+00:00</time>
      </trkpt>
      <trkpt lat="49.25433" lon="0.99095">
        <ele>129</ele>
        <time>2024-01-30T13:16:26.270+00:00</time>
      </trkpt>
      <trkpt lat="49.25434" lon="0.99103">
        <ele>128</ele>
        <time>2024-01-30T13:16:30.678+00:00</time>
      </trkpt>
      <trkpt lat="49.25436" lon="0.99112">
        <ele>128</ele>
        <time>2024-01-30T13:16:35.378+00:00</time>
      </trkpt>
      <trkpt lat="49.25435" lon="0.99123">
        <ele>128</ele>
        <time>2024-01-30T13:16:40.381+00:00</time>
      </trkpt>
      <trkpt lat="49.25435" lon="0.99133">
        <ele>129</ele>
        <time>2024-01-30T13:16:45.403+00:00</time>
      </trkpt>
      <trkpt lat="49.25432" lon="0.9914">
        <ele>129</ele>
        <time>2024-01-30T13:16:49.379+00:00</time>
      </trkpt>
      <trkpt lat="49.25431" lon="0.99149">
        <ele>129</ele>
        <time>2024-01-30T13:16:54.005+00:00</time>
      </trkpt>
      <trkpt lat="49.25433" lon="0.99156">
        <ele>131</ele>
        <time>2024-01-30T13:16:57.836+00:00</time>
      </trkpt>
      <trkpt lat="49.25433" lon="0.99164">
        <ele>131</ele>
        <time>2024-01-30T13:17:02.482+00:00</time>
      </trkpt>
      <trkpt lat="49.25431" lon="0.99171">
        <ele>131</ele>
        <time>2024-01-30T13:17:06.522+00:00</time>
      </trkpt>
      <trkpt lat="49.25425" lon="0.99173">
        <ele>129</ele>
        <time>2024-01-30T13:17:11.058+00:00</time>
      </trkpt>
      <trkpt lat="49.25421" lon="0.99171">
        <ele>129</ele>
        <time>2024-01-30T13:17:15.108+00:00</time>
      </trkpt>
      <trkpt lat="49.25417" lon="0.99176">
        <ele>129</ele>
        <time>2024-01-30T13:17:19.873+00:00</time>
      </trkpt>
      <trkpt lat="49.25412" lon="0.99178">
        <ele>129</ele>
        <time>2024-01-30T13:17:24.637+00:00</time>
      </trkpt>
      <trkpt lat="49.25408" lon="0.99183">
        <ele>131</ele>
        <time>2024-01-30T13:17:29.164+00:00</time>
      </trkpt>
      <trkpt lat="49.25404" lon="0.99188">
        <ele>131</ele>
        <time>2024-01-30T13:17:33.692+00:00</time>
      </trkpt>
      <trkpt lat="49.25398" lon="0.99191">
        <ele>128</ele>
        <time>2024-01-30T13:17:38.084+00:00</time>
      </trkpt>
      <trkpt lat="49.25393" lon="0.99193">
        <ele>128</ele>
        <time>2024-01-30T13:17:42.511+00:00</time>
      </trkpt>
      <trkpt lat="49.25389" lon="0.99194">
        <ele>128</ele>
        <time>2024-01-30T13:17:46.912+00:00</time>
      </trkpt>
      <trkpt lat="49.25385" lon="0.99197">
        <ele>128</ele>
        <time>2024-01-30T13:17:51.319+00:00</time>
      </trkpt>
      <trkpt lat="49.2538" lon="0.99197">
        <ele>128</ele>
        <time>2024-01-30T13:17:55.846+00:00</time>
      </trkpt>
      <trkpt lat="49.25375" lon="0.99195">
        <ele>124</ele>
        <time>2024-01-30T13:18:00.253+00:00</time>
      </trkpt>
      <trkpt lat="49.2537" lon="0.99195">
        <ele>124</ele>
        <time>2024-01-30T13:18:04.784+00:00</time>
      </trkpt>
      <trkpt lat="49.25364" lon="0.99195">
        <ele>124</ele>
        <time>2024-01-30T13:18:09.289+00:00</time>
      </trkpt>
      <trkpt lat="49.2536" lon="0.99198">
        <ele>124</ele>
        <time>2024-01-30T13:18:13.722+00:00</time>
      </trkpt>
      <trkpt lat="49.25356" lon="0.99204">
        <ele>124</ele>
        <time>2024-01-30T13:18:18.120+00:00</time>
      </trkpt>
      <trkpt lat="49.25352" lon="0.99209">
        <ele>125</ele>
        <time>2024-01-30T13:18:22.527+00:00</time>
      </trkpt>
      <trkpt lat="49.25349" lon="0.99216">
        <ele>125</ele>
        <time>2024-01-30T13:18:26.904+00:00</time>
      </trkpt>
      <trkpt lat="49.25347" lon="0.99223">
        <ele>122</ele>
        <time>2024-01-30T13:18:31.404+00:00</time>
      </trkpt>
      <trkpt lat="49.25345" lon="0.99229">
        <ele>122</ele>
        <time>2024-01-30T13:18:35.868+00:00</time>
      </trkpt>
      <trkpt lat="49.25342" lon="0.99235">
        <ele>122</ele>
        <time>2024-01-30T13:18:40.037+00:00</time>
      </trkpt>
      <trkpt lat="49.25339" lon="0.99241">
        <ele>122</ele>
        <time>2024-01-30T13:18:44.683+00:00</time>
      </trkpt>
      <trkpt lat="49.25335" lon="0.99246">
        <ele>122</ele>
        <time>2024-01-30T13:19:30.993+00:00</time>
      </trkpt>
      <trkpt lat="49.25334" lon="0.99255">
        <ele>122</ele>
        <time>2024-01-30T13:19:35.530+00:00</time>
      </trkpt>
      <trkpt lat="49.2533" lon="0.99262">
        <ele>122</ele>
        <time>2024-01-30T13:19:40.071+00:00</time>
      </trkpt>
      <trkpt lat="49.25325" lon="0.99266">
        <ele>122</ele>
        <time>2024-01-30T13:19:44.836+00:00</time>
      </trkpt>
      <trkpt lat="49.2532" lon="0.99269">
        <ele>122</ele>
        <time>2024-01-30T13:19:49.362+00:00</time>
      </trkpt>
      <trkpt lat="49.25316" lon="0.99271">
        <ele>120</ele>
        <time>2024-01-30T13:19:53.293+00:00</time>
      </trkpt>
      <trkpt lat="49.25311" lon="0.99275">
        <ele>120</ele>
        <time>2024-01-30T13:19:58.058+00:00</time>
      </trkpt>
      <trkpt lat="49.25306" lon="0.99276">
        <ele>120</ele>
        <time>2024-01-30T13:20:02.108+00:00</time>
      </trkpt>
      <trkpt lat="49.253" lon="0.99278">
        <ele>120</ele>
        <time>2024-01-30T13:20:06.872+00:00</time>
      </trkpt>
      <trkpt lat="49.25295" lon="0.99281">
        <ele>120</ele>
        <time>2024-01-30T13:20:11.041+00:00</time>
      </trkpt>
      <trkpt lat="49.25292" lon="0.99284">
        <ele>120</ele>
        <time>2024-01-30T13:20:15.567+00:00</time>
      </trkpt>
      <trkpt lat="49.2529" lon="0.99289">
        <ele>122</ele>
        <time>2024-01-30T13:20:19.537+00:00</time>
      </trkpt>
      <trkpt lat="49.25285" lon="0.99293">
        <ele>121</ele>
        <time>2024-01-30T13:20:24.144+00:00</time>
      </trkpt>
      <trkpt lat="49.25281" lon="0.99299">
        <ele>121</ele>
        <time>2024-01-30T13:20:28.313+00:00</time>
      </trkpt>
      <trkpt lat="49.25279" lon="0.99303">
        <ele>121</ele>
        <time>2024-01-30T13:20:32.482+00:00</time>
      </trkpt>
      <trkpt lat="49.25275" lon="0.99309">
        <ele>121</ele>
        <time>2024-01-30T13:20:36.889+00:00</time>
      </trkpt>
      <trkpt lat="49.25271" lon="0.99311">
        <ele>121</ele>
        <time>2024-01-30T13:20:41.296+00:00</time>
      </trkpt>
      <trkpt lat="49.25266" lon="0.99313">
        <ele>121</ele>
        <time>2024-01-30T13:20:45.704+00:00</time>
      </trkpt>
      <trkpt lat="49.25262" lon="0.99317">
        <ele>126</ele>
        <time>2024-01-30T13:20:50.349+00:00</time>
      </trkpt>
      <trkpt lat="49.2526" lon="0.9932">
        <ele>125</ele>
        <time>2024-01-30T13:20:54.515+00:00</time>
      </trkpt>
      <trkpt lat="49.25256" lon="0.99324">
        <ele>125</ele>
        <time>2024-01-30T13:20:58.605+00:00</time>
      </trkpt>
      <trkpt lat="49.25253" lon="0.99329">
        <ele>125</ele>
        <time>2024-01-30T13:21:02.537+00:00</time>
      </trkpt>
      <trkpt lat="49.2525" lon="0.99334">
        <ele>125</ele>
        <time>2024-01-30T13:21:07.025+00:00</time>
      </trkpt>
      <trkpt lat="49.25246" lon="0.99339">
        <ele>125</ele>
        <time>2024-01-30T13:21:11.671+00:00</time>
      </trkpt>
      <trkpt lat="49.25241" lon="0.99341">
        <ele>125</ele>
        <time>2024-01-30T13:21:15.840+00:00</time>
      </trkpt>
      <trkpt lat="49.25238" lon="0.99345">
        <ele>125</ele>
        <time>2024-01-30T13:21:20.485+00:00</time>
      </trkpt>
      <trkpt lat="49.25235" lon="0.99348">
        <ele>127</ele>
        <time>2024-01-30T13:21:24.518+00:00</time>
      </trkpt>
      <trkpt lat="49.25231" lon="0.99351">
        <ele>127</ele>
        <time>2024-01-30T13:21:28.630+00:00</time>
      </trkpt>
      <trkpt lat="49.25228" lon="0.99354">
        <ele>127</ele>
        <time>2024-01-30T13:21:32.635+00:00</time>
      </trkpt>
      <trkpt lat="49.25224" lon="0.99358">
        <ele>127</ele>
        <time>2024-01-30T13:21:37.280+00:00</time>
      </trkpt>
      <trkpt lat="49.2522" lon="0.9936">
        <ele>127</ele>
        <time>2024-01-30T13:21:41.926+00:00</time>
      </trkpt>
      <trkpt lat="49.25216" lon="0.99362">
        <ele>127</ele>
        <time>2024-01-30T13:21:46.095+00:00</time>
      </trkpt>
      <trkpt lat="49.25213" lon="0.99366">
        <ele>127</ele>
        <time>2024-01-30T13:21:50.537+00:00</time>
      </trkpt>
      <trkpt lat="49.25209" lon="0.99369">
        <ele>127</ele>
        <time>2024-01-30T13:21:55.028+00:00</time>
      </trkpt>
      <trkpt lat="49.25204" lon="0.99371">
        <ele>131</ele>
        <time>2024-01-30T13:21:59.516+00:00</time>
      </trkpt>
      <trkpt lat="49.25199" lon="0.99373">
        <ele>131</ele>
        <time>2024-01-30T13:22:04.081+00:00</time>
      </trkpt>
      <trkpt lat="49.25194" lon="0.99374">
        <ele>131</ele>
        <time>2024-01-30T13:22:08.250+00:00</time>
      </trkpt>
      <trkpt lat="49.25188" lon="0.99375">
        <ele>131</ele>
        <time>2024-01-30T13:22:12.896+00:00</time>
      </trkpt>
      <trkpt lat="49.25183" lon="0.99376">
        <ele>130</ele>
        <time>2024-01-30T13:22:17.629+00:00</time>
      </trkpt>
      <trkpt lat="49.25179" lon="0.99377">
        <ele>133</ele>
        <time>2024-01-30T13:22:21.710+00:00</time>
      </trkpt>
      <trkpt lat="49.25174" lon="0.9938">
        <ele>133</ele>
        <time>2024-01-30T13:22:26.237+00:00</time>
      </trkpt>
      <trkpt lat="49.2517" lon="0.99382">
        <ele>133</ele>
        <time>2024-01-30T13:22:30.882+00:00</time>
      </trkpt>
      <trkpt lat="49.25165" lon="0.99384">
        <ele>133</ele>
        <time>2024-01-30T13:22:35.051+00:00</time>
      </trkpt>
      <trkpt lat="49.25162" lon="0.99387">
        <ele>133</ele>
        <time>2024-01-30T13:22:39.697+00:00</time>
      </trkpt>
      <trkpt lat="49.25158" lon="0.99389">
        <ele>133</ele>
        <time>2024-01-30T13:22:44.223+00:00</time>
      </trkpt>
      <trkpt lat="49.25153" lon="0.99386">
        <ele>133</ele>
        <time>2024-01-30T13:23:13.287+00:00</time>
      </trkpt>
      <trkpt lat="49.25153" lon="0.99387">
        <ele>135</ele>
        <time>2024-01-30T13:23:18.052+00:00</time>
      </trkpt>
      <trkpt lat="49.25152" lon="0.99387">
        <ele>135</ele>
        <time>2024-01-30T13:23:22.102+00:00</time>
      </trkpt>
      <trkpt lat="49.25148" lon="0.99385">
        <ele>135</ele>
        <time>2024-01-30T13:23:27.426+00:00</time>
      </trkpt>
      <trkpt lat="49.25142" lon="0.99387">
        <ele>135</ele>
        <time>2024-01-30T13:23:31.534+00:00</time>
      </trkpt>
      <trkpt lat="49.25137" lon="0.9939">
        <ele>135</ele>
        <time>2024-01-30T13:23:35.515+00:00</time>
      </trkpt>
      <trkpt lat="49.25132" lon="0.99394">
        <ele>135</ele>
        <time>2024-01-30T13:23:39.527+00:00</time>
      </trkpt>
      <trkpt lat="49.25127" lon="0.99396">
        <ele>135</ele>
        <time>2024-01-30T13:23:43.537+00:00</time>
      </trkpt>
      <trkpt lat="49.25121" lon="0.99397">
        <ele>134</ele>
        <time>2024-01-30T13:23:47.702+00:00</time>
      </trkpt>
      <trkpt lat="49.25116" lon="0.99397">
        <ele>134</ele>
        <time>2024-01-30T13:23:52.238+00:00</time>
      </trkpt>
      <trkpt lat="49.2511" lon="0.99399">
        <ele>134</ele>
        <time>2024-01-30T13:23:56.764+00:00</time>
      </trkpt>
      <trkpt lat="49.25104" lon="0.994">
        <ele>134</ele>
        <time>2024-01-30T13:24:01.290+00:00</time>
      </trkpt>
      <trkpt lat="49.25099" lon="0.99401">
        <ele>134</ele>
        <time>2024-01-30T13:24:05.698+00:00</time>
      </trkpt>
      <trkpt lat="49.25093" lon="0.99399">
        <ele>132</ele>
        <time>2024-01-30T13:24:10.403+00:00</time>
      </trkpt>
      <trkpt lat="49.25089" lon="0.99396">
        <ele>132</ele>
        <time>2024-01-30T13:24:14.393+00:00</time>
      </trkpt>
      <trkpt lat="49.25084" lon="0.99393">
        <ele>132</ele>
        <time>2024-01-30T13:24:18.919+00:00</time>
      </trkpt>
      <trkpt lat="49.25078" lon="0.9939">
        <ele>132</ele>
        <time>2024-01-30T13:24:23.519+00:00</time>
      </trkpt>
      <trkpt lat="49.25073" lon="0.99387">
        <ele>132</ele>
        <time>2024-01-30T13:24:28.056+00:00</time>
      </trkpt>
      <trkpt lat="49.25069" lon="0.99382">
        <ele>129</ele>
        <time>2024-01-30T13:24:32.520+00:00</time>
      </trkpt>
      <trkpt lat="49.25064" lon="0.99382">
        <ele>129</ele>
        <time>2024-01-30T13:24:36.528+00:00</time>
      </trkpt>
      <trkpt lat="49.25061" lon="0.99388">
        <ele>129</ele>
        <time>2024-01-30T13:24:41.075+00:00</time>
      </trkpt>
      <trkpt lat="49.25058" lon="0.99395">
        <ele>129</ele>
        <time>2024-01-30T13:24:45.599+00:00</time>
      </trkpt>
      <trkpt lat="49.25055" lon="0.99403">
        <ele>130</ele>
        <time>2024-01-30T13:24:50.084+00:00</time>
      </trkpt>
      <trkpt lat="49.25052" lon="0.99408">
        <ele>130</ele>
        <time>2024-01-30T13:24:54.058+00:00</time>
      </trkpt>
      <trkpt lat="49.25049" lon="0.99413">
        <ele>130</ele>
        <time>2024-01-30T13:24:58.108+00:00</time>
      </trkpt>
      <trkpt lat="49.25046" lon="0.99419">
        <ele>130</ele>
        <time>2024-01-30T13:25:02.277+00:00</time>
      </trkpt>
      <trkpt lat="49.25044" lon="0.99426">
        <ele>130</ele>
        <time>2024-01-30T13:25:06.446+00:00</time>
      </trkpt>
      <trkpt lat="49.25041" lon="0.99434">
        <ele>127</ele>
        <time>2024-01-30T13:25:10.980+00:00</time>
      </trkpt>
      <trkpt lat="49.25038" lon="0.99442">
        <ele>127</ele>
        <time>2024-01-30T13:25:15.532+00:00</time>
      </trkpt>
      <trkpt lat="49.25034" lon="0.99449">
        <ele>127</ele>
        <time>2024-01-30T13:25:20.025+00:00</time>
      </trkpt>
      <trkpt lat="49.25031" lon="0.99455">
        <ele>127</ele>
        <time>2024-01-30T13:25:24.520+00:00</time>
      </trkpt>
      <trkpt lat="49.25028" lon="0.99463">
        <ele>127</ele>
        <time>2024-01-30T13:25:29.088+00:00</time>
      </trkpt>
      <trkpt lat="49.25025" lon="0.99471">
        <ele>127</ele>
        <time>2024-01-30T13:25:33.520+00:00</time>
      </trkpt>
      <trkpt lat="49.25022" lon="0.99478">
        <ele>127</ele>
        <time>2024-01-30T13:25:37.607+00:00</time>
      </trkpt>
      <trkpt lat="49.25019" lon="0.99485">
        <ele>127</ele>
        <time>2024-01-30T13:25:42.061+00:00</time>
      </trkpt>
      <trkpt lat="49.25017" lon="0.99491">
        <ele>127</ele>
        <time>2024-01-30T13:25:46.230+00:00</time>
      </trkpt>
      <trkpt lat="49.25014" lon="0.99498">
        <ele>127</ele>
        <time>2024-01-30T13:25:50.280+00:00</time>
      </trkpt>
      <trkpt lat="49.2501" lon="0.99501">
        <ele>123</ele>
        <time>2024-01-30T13:25:54.449+00:00</time>
      </trkpt>
      <trkpt lat="49.25008" lon="0.99504">
        <ele>123</ele>
        <time>2024-01-30T13:25:58.975+00:00</time>
      </trkpt>
      <trkpt lat="49.25006" lon="0.99507">
        <ele>123</ele>
        <time>2024-01-30T13:26:03.533+00:00</time>
      </trkpt>
      <trkpt lat="49.25003" lon="0.99511">
        <ele>123</ele>
        <time>2024-01-30T13:26:07.671+00:00</time>
      </trkpt>
      <trkpt lat="49.25" lon="0.99513">
        <ele>123</ele>
        <time>2024-01-30T13:26:11.813+00:00</time>
      </trkpt>
      <trkpt lat="49.24997" lon="0.99515">
        <ele>124</ele>
        <time>2024-01-30T13:26:15.890+00:00</time>
      </trkpt>
      <trkpt lat="49.24994" lon="0.9952">
        <ele>124</ele>
        <time>2024-01-30T13:26:20.517+00:00</time>
      </trkpt>
      <trkpt lat="49.2499" lon="0.99524">
        <ele>124</ele>
        <time>2024-01-30T13:26:24.643+00:00</time>
      </trkpt>
      <trkpt lat="49.24977" lon="0.99537">
        <ele>121</ele>
        <time>2024-01-30T13:26:55.912+00:00</time>
      </trkpt>
      <trkpt lat="49.24972" lon="0.99541">
        <ele>121</ele>
        <time>2024-01-30T13:27:00.677+00:00</time>
      </trkpt>
      <trkpt lat="49.24968" lon="0.99544">
        <ele>121</ele>
        <time>2024-01-30T13:27:04.826+00:00</time>
      </trkpt>
      <trkpt lat="49.24963" lon="0.99545">
        <ele>121</ele>
        <time>2024-01-30T13:27:08.895+00:00</time>
      </trkpt>
      <trkpt lat="49.24959" lon="0.99548">
        <ele>121</ele>
        <time>2024-01-30T13:27:12.945+00:00</time>
      </trkpt>
      <trkpt lat="49.24956" lon="0.9955">
        <ele>116</ele>
        <time>2024-01-30T13:27:17.353+00:00</time>
      </trkpt>
      <trkpt lat="49.24951" lon="0.99557">
        <ele>116</ele>
        <time>2024-01-30T13:27:21.897+00:00</time>
      </trkpt>
      <trkpt lat="49.24947" lon="0.99563">
        <ele>116</ele>
        <time>2024-01-30T13:27:25.929+00:00</time>
      </trkpt>
      <trkpt lat="49.24943" lon="0.9957">
        <ele>115</ele>
        <time>2024-01-30T13:27:30.098+00:00</time>
      </trkpt>
      <trkpt lat="49.24939" lon="0.99578">
        <ele>115</ele>
        <time>2024-01-30T13:27:34.029+00:00</time>
      </trkpt>
      <trkpt lat="49.24935" lon="0.99587">
        <ele>115</ele>
        <time>2024-01-30T13:27:39.031+00:00</time>
      </trkpt>
      <trkpt lat="49.24932" lon="0.99592">
        <ele>115</ele>
        <time>2024-01-30T13:27:43.081+00:00</time>
      </trkpt>
      <trkpt lat="49.2493" lon="0.99598">
        <ele>105</ele>
        <time>2024-01-30T13:27:47.250+00:00</time>
      </trkpt>
      <trkpt lat="49.24928" lon="0.99603">
        <ele>105</ele>
        <time>2024-01-30T13:27:51.861+00:00</time>
      </trkpt>
      <trkpt lat="49.24926" lon="0.99607">
        <ele>105</ele>
        <time>2024-01-30T13:27:55.826+00:00</time>
      </trkpt>
      <trkpt lat="49.24924" lon="0.99612">
        <ele>105</ele>
        <time>2024-01-30T13:27:59.876+00:00</time>
      </trkpt>
      <trkpt lat="49.24921" lon="0.9962">
        <ele>105</ele>
        <time>2024-01-30T13:28:04.531+00:00</time>
      </trkpt>
      <trkpt lat="49.24919" lon="0.99625">
        <ele>107</ele>
        <time>2024-01-30T13:28:09.049+00:00</time>
      </trkpt>
      <trkpt lat="49.24917" lon="0.99631">
        <ele>107</ele>
        <time>2024-01-30T13:28:12.979+00:00</time>
      </trkpt>
      <trkpt lat="49.24914" lon="0.99636">
        <ele>107</ele>
        <time>2024-01-30T13:28:17.567+00:00</time>
      </trkpt>
      <trkpt lat="49.24912" lon="0.99642">
        <ele>107</ele>
        <time>2024-01-30T13:28:21.674+00:00</time>
      </trkpt>
      <trkpt lat="49.2491" lon="0.99648">
        <ele>107</ele>
        <time>2024-01-30T13:28:26.328+00:00</time>
      </trkpt>
      <trkpt lat="49.24907" lon="0.99652">
        <ele>107</ele>
        <time>2024-01-30T13:28:30.727+00:00</time>
      </trkpt>
      <trkpt lat="49.24905" lon="0.99655">
        <ele>108</ele>
        <time>2024-01-30T13:28:35.253+00:00</time>
      </trkpt>
      <trkpt lat="49.24901" lon="0.9966">
        <ele>103</ele>
        <time>2024-01-30T13:28:39.894+00:00</time>
      </trkpt>
      <trkpt lat="49.24898" lon="0.99665">
        <ele>103</ele>
        <time>2024-01-30T13:28:43.830+00:00</time>
      </trkpt>
      <trkpt lat="49.24894" lon="0.99671">
        <ele>103</ele>
        <time>2024-01-30T13:28:48.475+00:00</time>
      </trkpt>
      <trkpt lat="49.24891" lon="0.99676">
        <ele>103</ele>
        <time>2024-01-30T13:28:52.525+00:00</time>
      </trkpt>
      <trkpt lat="49.24887" lon="0.99682">
        <ele>102</ele>
        <time>2024-01-30T13:28:57.051+00:00</time>
      </trkpt>
      <trkpt lat="49.24884" lon="0.99687">
        <ele>102</ele>
        <time>2024-01-30T13:29:01.120+00:00</time>
      </trkpt>
      <trkpt lat="49.24881" lon="0.99693">
        <ele>102</ele>
        <time>2024-01-30T13:29:05.537+00:00</time>
      </trkpt>
      <trkpt lat="49.24877" lon="0.99699">
        <ele>102</ele>
        <time>2024-01-30T13:29:10.273+00:00</time>
      </trkpt>
      <trkpt lat="49.24875" lon="0.99705">
        <ele>94</ele>
        <time>2024-01-30T13:29:14.799+00:00</time>
      </trkpt>
      <trkpt lat="49.24872" lon="0.99711">
        <ele>94</ele>
        <time>2024-01-30T13:29:19.326+00:00</time>
      </trkpt>
      <trkpt lat="49.24869" lon="0.99716">
        <ele>94</ele>
        <time>2024-01-30T13:29:23.733+00:00</time>
      </trkpt>
      <trkpt lat="49.24866" lon="0.9972">
        <ele>94</ele>
        <time>2024-01-30T13:29:28.393+00:00</time>
      </trkpt>
      <trkpt lat="49.24863" lon="0.99724">
        <ele>94</ele>
        <time>2024-01-30T13:29:32.428+00:00</time>
      </trkpt>
      <trkpt lat="49.24859" lon="0.99729">
        <ele>94</ele>
        <time>2024-01-30T13:29:36.955+00:00</time>
      </trkpt>
      <trkpt lat="49.24857" lon="0.99735">
        <ele>94</ele>
        <time>2024-01-30T13:29:41.481+00:00</time>
      </trkpt>
      <trkpt lat="49.24854" lon="0.99741">
        <ele>95</ele>
        <time>2024-01-30T13:29:46.110+00:00</time>
      </trkpt>
      <trkpt lat="49.2485" lon="0.99746">
        <ele>95</ele>
        <time>2024-01-30T13:29:50.057+00:00</time>
      </trkpt>
      <trkpt lat="49.24847" lon="0.99751">
        <ele>89</ele>
        <time>2024-01-30T13:29:54.584+00:00</time>
      </trkpt>
      <trkpt lat="49.24843" lon="0.99756">
        <ele>89</ele>
        <time>2024-01-30T13:29:59.110+00:00</time>
      </trkpt>
      <trkpt lat="49.2484" lon="0.99762">
        <ele>89</ele>
        <time>2024-01-30T13:30:03.160+00:00</time>
      </trkpt>
      <trkpt lat="49.24838" lon="0.99766">
        <ele>90</ele>
        <time>2024-01-30T13:30:07.091+00:00</time>
      </trkpt>
      <trkpt lat="49.24835" lon="0.99772">
        <ele>90</ele>
        <time>2024-01-30T13:30:11.140+00:00</time>
      </trkpt>
      <trkpt lat="49.24832" lon="0.99777">
        <ele>90</ele>
        <time>2024-01-30T13:30:15.309+00:00</time>
      </trkpt>
      <trkpt lat="49.24828" lon="0.99785">
        <ele>90</ele>
        <time>2024-01-30T13:30:20.074+00:00</time>
      </trkpt>
      <trkpt lat="49.24825" lon="0.9979">
        <ele>90</ele>
        <time>2024-01-30T13:30:24.124+00:00</time>
      </trkpt>
      <trkpt lat="49.24822" lon="0.99796">
        <ele>91</ele>
        <time>2024-01-30T13:30:28.174+00:00</time>
      </trkpt>
      <trkpt lat="49.24819" lon="0.99801">
        <ele>85</ele>
        <time>2024-01-30T13:30:32.105+00:00</time>
      </trkpt>
      <trkpt lat="49.24816" lon="0.99806">
        <ele>85</ele>
        <time>2024-01-30T13:30:36.869+00:00</time>
      </trkpt>
      <trkpt lat="49.24812" lon="0.99811">
        <ele>85</ele>
        <time>2024-01-30T13:30:40.992+00:00</time>
      </trkpt>
      <trkpt lat="49.24808" lon="0.99816">
        <ele>85</ele>
        <time>2024-01-30T13:30:45.512+00:00</time>
      </trkpt>
      <trkpt lat="49.24805" lon="0.99822">
        <ele>85</ele>
        <time>2024-01-30T13:30:50.091+00:00</time>
      </trkpt>
      <trkpt lat="49.24802" lon="0.99828">
        <ele>85</ele>
        <time>2024-01-30T13:30:54.022+00:00</time>
      </trkpt>
      <trkpt lat="49.248" lon="0.99834">
        <ele>85</ele>
        <time>2024-01-30T13:30:58.072+00:00</time>
      </trkpt>
      <trkpt lat="49.24796" lon="0.99841">
        <ele>85</ele>
        <time>2024-01-30T13:31:02.836+00:00</time>
      </trkpt>
      <trkpt lat="49.24794" lon="0.99847">
        <ele>87</ele>
        <time>2024-01-30T13:31:06.886+00:00</time>
      </trkpt>
      <trkpt lat="49.2479" lon="0.99851">
        <ele>81</ele>
        <time>2024-01-30T13:31:11.055+00:00</time>
      </trkpt>
      <trkpt lat="49.24786" lon="0.99856">
        <ele>81</ele>
        <time>2024-01-30T13:31:15.105+00:00</time>
      </trkpt>
      <trkpt lat="49.24782" lon="0.99861">
        <ele>81</ele>
        <time>2024-01-30T13:31:19.155+00:00</time>
      </trkpt>
      <trkpt lat="49.2478" lon="0.99866">
        <ele>81</ele>
        <time>2024-01-30T13:31:23.086+00:00</time>
      </trkpt>
      <trkpt lat="49.24777" lon="0.9987">
        <ele>81</ele>
        <time>2024-01-30T13:31:27.255+00:00</time>
      </trkpt>
      <trkpt lat="49.24773" lon="0.99875">
        <ele>83</ele>
        <time>2024-01-30T13:31:31.900+00:00</time>
      </trkpt>
      <trkpt lat="49.24769" lon="0.99879">
        <ele>83</ele>
        <time>2024-01-30T13:31:35.950+00:00</time>
      </trkpt>
      <trkpt lat="49.24765" lon="0.99884">
        <ele>83</ele>
        <time>2024-01-30T13:31:40.119+00:00</time>
      </trkpt>
      <trkpt lat="49.24762" lon="0.99888">
        <ele>79</ele>
        <time>2024-01-30T13:31:44.050+00:00</time>
      </trkpt>
      <trkpt lat="49.24758" lon="0.99893">
        <ele>79</ele>
        <time>2024-01-30T13:31:48.695+00:00</time>
      </trkpt>
      <trkpt lat="49.24753" lon="0.99898">
        <ele>79</ele>
        <time>2024-01-30T13:31:52.805+00:00</time>
      </trkpt>
      <trkpt lat="49.2475" lon="0.99901">
        <ele>79</ele>
        <time>2024-01-30T13:31:56.914+00:00</time>
      </trkpt>
      <trkpt lat="49.24746" lon="0.99907">
        <ele>80</ele>
        <time>2024-01-30T13:32:00.964+00:00</time>
      </trkpt>
      <trkpt lat="49.24743" lon="0.99914">
        <ele>80</ele>
        <time>2024-01-30T13:32:05.491+00:00</time>
      </trkpt>
      <trkpt lat="49.2474" lon="0.99919">
        <ele>80</ele>
        <time>2024-01-30T13:32:10.017+00:00</time>
      </trkpt>
      <trkpt lat="49.24737" lon="0.99923">
        <ele>80</ele>
        <time>2024-01-30T13:32:14.067+00:00</time>
      </trkpt>
      <trkpt lat="49.24734" lon="0.99928">
        <ele>77</ele>
        <time>2024-01-30T13:32:18.831+00:00</time>
      </trkpt>
      <trkpt lat="49.24733" lon="0.99934">
        <ele>77</ele>
        <time>2024-01-30T13:32:22.881+00:00</time>
      </trkpt>
      <trkpt lat="49.24731" lon="0.99941">
        <ele>77</ele>
        <time>2024-01-30T13:32:27.646+00:00</time>
      </trkpt>
      <trkpt lat="49.24728" lon="0.99947">
        <ele>77</ele>
        <time>2024-01-30T13:32:31.707+00:00</time>
      </trkpt>
      <trkpt lat="49.24725" lon="0.99953">
        <ele>77</ele>
        <time>2024-01-30T13:32:35.537+00:00</time>
      </trkpt>
      <trkpt lat="49.24721" lon="0.99961">
        <ele>78</ele>
        <time>2024-01-30T13:32:40.198+00:00</time>
      </trkpt>
      <trkpt lat="49.24718" lon="0.99971">
        <ele>78</ele>
        <time>2024-01-30T13:34:55.518+00:00</time>
      </trkpt>
      <trkpt lat="49.24716" lon="0.99971">
        <ele>78</ele>
        <time>2024-01-30T13:35:00.252+00:00</time>
      </trkpt>
      <trkpt lat="49.24713" lon="0.99974">
        <ele>78</ele>
        <time>2024-01-30T13:35:05.017+00:00</time>
      </trkpt>
      <trkpt lat="49.24705" lon="0.99974">
        <ele>77</ele>
        <time>2024-01-30T13:35:09.517+00:00</time>
      </trkpt>
      <trkpt lat="49.24698" lon="0.99976">
        <ele>77</ele>
        <time>2024-01-30T13:35:14.499+00:00</time>
      </trkpt>
      <trkpt lat="49.24693" lon="0.99976">
        <ele>77</ele>
        <time>2024-01-30T13:35:18.477+00:00</time>
      </trkpt>
      <trkpt lat="49.24688" lon="0.99977">
        <ele>77</ele>
        <time>2024-01-30T13:35:22.646+00:00</time>
      </trkpt>
      <trkpt lat="49.24683" lon="0.99976">
        <ele>77</ele>
        <time>2024-01-30T13:35:27.291+00:00</time>
      </trkpt>
      <trkpt lat="49.24679" lon="0.99974">
        <ele>78</ele>
        <time>2024-01-30T13:35:31.461+00:00</time>
      </trkpt>
      <trkpt lat="49.24675" lon="0.99973">
        <ele>78</ele>
        <time>2024-01-30T13:35:35.537+00:00</time>
      </trkpt>
      <trkpt lat="49.2467" lon="0.99973">
        <ele>78</ele>
        <time>2024-01-30T13:35:40.156+00:00</time>
      </trkpt>
      <trkpt lat="49.24665" lon="0.99972">
        <ele>78</ele>
        <time>2024-01-30T13:35:44.206+00:00</time>
      </trkpt>
      <trkpt lat="49.24663" lon="0.9998">
        <ele>78</ele>
        <time>2024-01-30T13:35:48.869+00:00</time>
      </trkpt>
      <trkpt lat="49.24663" lon="0.9999">
        <ele>77</ele>
        <time>2024-01-30T13:35:53.259+00:00</time>
      </trkpt>
      <trkpt lat="49.24664" lon="0.99999">
        <ele>77</ele>
        <time>2024-01-30T13:35:57.189+00:00</time>
      </trkpt>
      <trkpt lat="49.24663" lon="1.00008">
        <ele>77</ele>
        <time>2024-01-30T13:36:01.716+00:00</time>
      </trkpt>
      <trkpt lat="49.24664" lon="1.00016">
        <ele>76</ele>
        <time>2024-01-30T13:36:06.361+00:00</time>
      </trkpt>
      <trkpt lat="49.2465" lon="1.00025">
        <ele>77</ele>
        <time>2024-01-30T13:36:38.046+00:00</time>
      </trkpt>
      <trkpt lat="49.2465" lon="1.00025">
        <ele>77</ele>
        <time>2024-01-30T13:36:43.287+00:00</time>
      </trkpt>
      <trkpt lat="49.2465" lon="1.00026">
        <ele>77</ele>
        <time>2024-01-30T13:36:48.052+00:00</time>
      </trkpt>
      <trkpt lat="49.2465" lon="1.00026">
        <ele>77</ele>
        <time>2024-01-30T13:36:52.102+00:00</time>
      </trkpt>
      <trkpt lat="49.24649" lon="1.00027">
        <ele>77</ele>
        <time>2024-01-30T13:36:57.519+00:00</time>
      </trkpt>
      <trkpt lat="49.2465" lon="1.00029">
        <ele>77</ele>
        <time>2024-01-30T13:37:47.014+00:00</time>
      </trkpt>
      <trkpt lat="49.24649" lon="1.0003">
        <ele>77</ele>
        <time>2024-01-30T13:37:51.064+00:00</time>
      </trkpt>
      <trkpt lat="49.24647" lon="1.00034">
        <ele>77</ele>
        <time>2024-01-30T13:37:56.305+00:00</time>
      </trkpt>
      <trkpt lat="49.24646" lon="1.00038">
        <ele>77</ele>
        <time>2024-01-30T13:38:00.474+00:00</time>
      </trkpt>
      <trkpt lat="49.24645" lon="1.00041">
        <ele>77</ele>
        <time>2024-01-30T13:38:04.643+00:00</time>
      </trkpt>
      <trkpt lat="49.24642" lon="1.00046">
        <ele>78</ele>
        <time>2024-01-30T13:38:09.289+00:00</time>
      </trkpt>
      <trkpt lat="49.24635" lon="1.00044">
        <ele>78</ele>
        <time>2024-01-30T13:38:14.054+00:00</time>
      </trkpt>
      <trkpt lat="49.24631" lon="1.00051">
        <ele>78</ele>
        <time>2024-01-30T13:38:19.261+00:00</time>
      </trkpt>
      <trkpt lat="49.24626" lon="1.00055">
        <ele>78</ele>
        <time>2024-01-30T13:38:23.106+00:00</time>
      </trkpt>
      <trkpt lat="49.24622" lon="1.00057">
        <ele>80</ele>
        <time>2024-01-30T13:38:27.275+00:00</time>
      </trkpt>
      <trkpt lat="49.24618" lon="1.0006">
        <ele>80</ele>
        <time>2024-01-30T13:38:31.087+00:00</time>
      </trkpt>
      <trkpt lat="49.24615" lon="1.00064">
        <ele>80</ele>
        <time>2024-01-30T13:38:35.852+00:00</time>
      </trkpt>
      <trkpt lat="49.24612" lon="1.00069">
        <ele>80</ele>
        <time>2024-01-30T13:38:40.497+00:00</time>
      </trkpt>
      <trkpt lat="49.24608" lon="1.00073">
        <ele>81</ele>
        <time>2024-01-30T13:38:44.666+00:00</time>
      </trkpt>
      <trkpt lat="49.24605" lon="1.00078">
        <ele>81</ele>
        <time>2024-01-30T13:38:49.321+00:00</time>
      </trkpt>
      <trkpt lat="49.24601" lon="1.00084">
        <ele>81</ele>
        <time>2024-01-30T13:38:53.481+00:00</time>
      </trkpt>
      <trkpt lat="49.24597" lon="1.00089">
        <ele>84</ele>
        <time>2024-01-30T13:38:57.650+00:00</time>
      </trkpt>
      <trkpt lat="49.24592" lon="1.00093">
        <ele>84</ele>
        <time>2024-01-30T13:39:02.208+00:00</time>
      </trkpt>
      <trkpt lat="49.24588" lon="1.00097">
        <ele>84</ele>
        <time>2024-01-30T13:39:06.107+00:00</time>
      </trkpt>
      <trkpt lat="49.24583" lon="1.00102">
        <ele>84</ele>
        <time>2024-01-30T13:39:10.276+00:00</time>
      </trkpt>
      <trkpt lat="49.24577" lon="1.00105">
        <ele>84</ele>
        <time>2024-01-30T13:39:14.684+00:00</time>
      </trkpt>
      <trkpt lat="49.24571" lon="1.00108">
        <ele>84</ele>
        <time>2024-01-30T13:39:19.394+00:00</time>
      </trkpt>
      <trkpt lat="49.24566" lon="1.0011">
        <ele>88</ele>
        <time>2024-01-30T13:39:23.498+00:00</time>
      </trkpt>
      <trkpt lat="49.24562" lon="1.00113">
        <ele>88</ele>
        <time>2024-01-30T13:39:27.667+00:00</time>
      </trkpt>
      <trkpt lat="49.24557" lon="1.00117">
        <ele>88</ele>
        <time>2024-01-30T13:39:32.305+00:00</time>
      </trkpt>
      <trkpt lat="49.24553" lon="1.00121">
        <ele>88</ele>
        <time>2024-01-30T13:39:36.482+00:00</time>
      </trkpt>
      <trkpt lat="49.24548" lon="1.00123">
        <ele>88</ele>
        <time>2024-01-30T13:39:40.651+00:00</time>
      </trkpt>
      <trkpt lat="49.24543" lon="1.00124">
        <ele>88</ele>
        <time>2024-01-30T13:39:45.297+00:00</time>
      </trkpt>
      <trkpt lat="49.24539" lon="1.00125">
        <ele>90</ele>
        <time>2024-01-30T13:39:50.040+00:00</time>
      </trkpt>
      <trkpt lat="49.24535" lon="1.00127">
        <ele>90</ele>
        <time>2024-01-30T13:39:54.230+00:00</time>
      </trkpt>
      <trkpt lat="49.2453" lon="1.00127">
        <ele>90</ele>
        <time>2024-01-30T13:39:58.876+00:00</time>
      </trkpt>
      <trkpt lat="49.24526" lon="1.00127">
        <ele>90</ele>
        <time>2024-01-30T13:40:03.045+00:00</time>
      </trkpt>
      <trkpt lat="49.24523" lon="1.00129">
        <ele>90</ele>
        <time>2024-01-30T13:40:07.095+00:00</time>
      </trkpt>
      <trkpt lat="49.2452" lon="1.00131">
        <ele>90</ele>
        <time>2024-01-30T13:40:11.537+00:00</time>
      </trkpt>
      <trkpt lat="49.24516" lon="1.00134">
        <ele>90</ele>
        <time>2024-01-30T13:40:16.029+00:00</time>
      </trkpt>
      <trkpt lat="49.24512" lon="1.00136">
        <ele>95</ele>
        <time>2024-01-30T13:40:20.674+00:00</time>
      </trkpt>
      <trkpt lat="49.24509" lon="1.00138">
        <ele>95</ele>
        <time>2024-01-30T13:40:25.439+00:00</time>
      </trkpt>
      <trkpt lat="49.24506" lon="1.0014">
        <ele>95</ele>
        <time>2024-01-30T13:40:29.965+00:00</time>
      </trkpt>
      <trkpt lat="49.24502" lon="1.00142">
        <ele>95</ele>
        <time>2024-01-30T13:40:34.372+00:00</time>
      </trkpt>
      <trkpt lat="49.24498" lon="1.00142">
        <ele>95</ele>
        <time>2024-01-30T13:40:38.899+00:00</time>
      </trkpt>
      <trkpt lat="49.24495" lon="1.00143">
        <ele>95</ele>
        <time>2024-01-30T13:40:42.949+00:00</time>
      </trkpt>
      <trkpt lat="49.24492" lon="1.00142">
        <ele>95</ele>
        <time>2024-01-30T13:40:47.475+00:00</time>
      </trkpt>
      <trkpt lat="49.2449" lon="1.00144">
        <ele>95</ele>
        <time>2024-01-30T13:40:51.644+00:00</time>
      </trkpt>
      <trkpt lat="49.24488" lon="1.00145">
        <ele>95</ele>
        <time>2024-01-30T13:40:55.694+00:00</time>
      </trkpt>
      <trkpt lat="49.24485" lon="1.00147">
        <ele>101</ele>
        <time>2024-01-30T13:40:59.863+00:00</time>
      </trkpt>
      <trkpt lat="49.24482" lon="1.00149">
        <ele>101</ele>
        <time>2024-01-30T13:41:04.510+00:00</time>
      </trkpt>
      <trkpt lat="49.24479" lon="1.0015">
        <ele>101</ele>
        <time>2024-01-30T13:41:08.082+00:00</time>
      </trkpt>
      <trkpt lat="49.24476" lon="1.00151">
        <ele>101</ele>
        <time>2024-01-30T13:41:13.085+00:00</time>
      </trkpt>
      <trkpt lat="49.2447" lon="1.00151">
        <ele>101</ele>
        <time>2024-01-30T13:41:17.850+00:00</time>
      </trkpt>
      <trkpt lat="49.24467" lon="1.00152">
        <ele>101</ele>
        <time>2024-01-30T13:41:22.537+00:00</time>
      </trkpt>
      <trkpt lat="49.24464" lon="1.00153">
        <ele>101</ele>
        <time>2024-01-30T13:41:27.022+00:00</time>
      </trkpt>
      <trkpt lat="49.2446" lon="1.00154">
        <ele>103</ele>
        <time>2024-01-30T13:41:31.667+00:00</time>
      </trkpt>
      <trkpt lat="49.24456" lon="1.00155">
        <ele>107</ele>
        <time>2024-01-30T13:41:36.313+00:00</time>
      </trkpt>
      <trkpt lat="49.24455" lon="1.00157">
        <ele>107</ele>
        <time>2024-01-30T13:41:41.078+00:00</time>
      </trkpt>
      <trkpt lat="49.24454" lon="1.0016">
        <ele>107</ele>
        <time>2024-01-30T13:41:45.512+00:00</time>
      </trkpt>
      <trkpt lat="49.24452" lon="1.00161">
        <ele>107</ele>
        <time>2024-01-30T13:41:49.661+00:00</time>
      </trkpt>
      <trkpt lat="49.24449" lon="1.00165">
        <ele>107</ele>
        <time>2024-01-30T13:41:54.230+00:00</time>
      </trkpt>
      <trkpt lat="49.24446" lon="1.00168">
        <ele>107</ele>
        <time>2024-01-30T13:41:58.707+00:00</time>
      </trkpt>
      <trkpt lat="49.24443" lon="1.0017">
        <ele>107</ele>
        <time>2024-01-30T13:42:02.638+00:00</time>
      </trkpt>
      <trkpt lat="49.24439" lon="1.00171">
        <ele>107</ele>
        <time>2024-01-30T13:42:07.283+00:00</time>
      </trkpt>
      <trkpt lat="49.24436" lon="1.00172">
        <ele>107</ele>
        <time>2024-01-30T13:42:12.048+00:00</time>
      </trkpt>
      <trkpt lat="49.24432" lon="1.00171">
        <ele>107</ele>
        <time>2024-01-30T13:42:16.098+00:00</time>
      </trkpt>
      <trkpt lat="49.24429" lon="1.00168">
        <ele>117</ele>
        <time>2024-01-30T13:42:20.575+00:00</time>
      </trkpt>
      <trkpt lat="49.24425" lon="1.00165">
        <ele>117</ele>
        <time>2024-01-30T13:42:24.674+00:00</time>
      </trkpt>
      <trkpt lat="49.24423" lon="1.00162">
        <ele>117</ele>
        <time>2024-01-30T13:42:29.254+00:00</time>
      </trkpt>
      <trkpt lat="49.2442" lon="1.00158">
        <ele>117</ele>
        <time>2024-01-30T13:42:33.251+00:00</time>
      </trkpt>
      <trkpt lat="49.24419" lon="1.00154">
        <ele>117</ele>
        <time>2024-01-30T13:42:37.301+00:00</time>
      </trkpt>
      <trkpt lat="49.24417" lon="1.0015">
        <ele>115</ele>
        <time>2024-01-30T13:42:42.478+00:00</time>
      </trkpt>
      <trkpt lat="49.24416" lon="1.00146">
        <ele>115</ele>
        <time>2024-01-30T13:42:46.473+00:00</time>
      </trkpt>
      <trkpt lat="49.24414" lon="1.00142">
        <ele>115</ele>
        <time>2024-01-30T13:42:50.641+00:00</time>
      </trkpt>
      <trkpt lat="49.24413" lon="1.00138">
        <ele>115</ele>
        <time>2024-01-30T13:42:54.692+00:00</time>
      </trkpt>
      <trkpt lat="49.24412" lon="1.00134">
        <ele>115</ele>
        <time>2024-01-30T13:42:59.099+00:00</time>
      </trkpt>
      <trkpt lat="49.24409" lon="1.0013">
        <ele>115</ele>
        <time>2024-01-30T13:43:04.102+00:00</time>
      </trkpt>
      <trkpt lat="49.24407" lon="1.00125">
        <ele>114</ele>
        <time>2024-01-30T13:43:08.271+00:00</time>
      </trkpt>
      <trkpt lat="49.24405" lon="1.0012">
        <ele>114</ele>
        <time>2024-01-30T13:43:12.321+00:00</time>
      </trkpt>
      <trkpt lat="49.24403" lon="1.00115">
        <ele>122</ele>
        <time>2024-01-30T13:43:16.967+00:00</time>
      </trkpt>
      <trkpt lat="49.24402" lon="1.00109">
        <ele>122</ele>
        <time>2024-01-30T13:43:21.537+00:00</time>
      </trkpt>
      <trkpt lat="49.244" lon="1.00104">
        <ele>122</ele>
        <time>2024-01-30T13:43:25.662+00:00</time>
      </trkpt>
      <trkpt lat="49.24398" lon="1.00099">
        <ele>122</ele>
        <time>2024-01-30T13:43:29.712+00:00</time>
      </trkpt>
      <trkpt lat="49.24396" lon="1.00094">
        <ele>121</ele>
        <time>2024-01-30T13:43:33.762+00:00</time>
      </trkpt>
      <trkpt lat="49.24393" lon="1.00089">
        <ele>121</ele>
        <time>2024-01-30T13:43:37.693+00:00</time>
      </trkpt>
      <trkpt lat="49.24391" lon="1.00082">
        <ele>121</ele>
        <time>2024-01-30T13:43:42.100+00:00</time>
      </trkpt>
      <trkpt lat="49.24388" lon="1.00076">
        <ele>121</ele>
        <time>2024-01-30T13:43:46.865+00:00</time>
      </trkpt>
      <trkpt lat="49.24385" lon="1.00071">
        <ele>121</ele>
        <time>2024-01-30T13:43:51.510+00:00</time>
      </trkpt>
      <trkpt lat="49.24382" lon="1.00065">
        <ele>121</ele>
        <time>2024-01-30T13:43:56.037+00:00</time>
      </trkpt>
      <trkpt lat="49.24379" lon="1.00062">
        <ele>121</ele>
        <time>2024-01-30T13:44:00.444+00:00</time>
      </trkpt>
      <trkpt lat="49.24376" lon="1.00058">
        <ele>121</ele>
        <time>2024-01-30T13:44:05.090+00:00</time>
      </trkpt>
      <trkpt lat="49.24373" lon="1.00056">
        <ele>127</ele>
        <time>2024-01-30T13:44:09.526+00:00</time>
      </trkpt>
      <trkpt lat="49.24369" lon="1.00055">
        <ele>127</ele>
        <time>2024-01-30T13:44:13.666+00:00</time>
      </trkpt>
      <trkpt lat="49.24365" lon="1.00054">
        <ele>127</ele>
        <time>2024-01-30T13:44:18.341+00:00</time>
      </trkpt>
      <trkpt lat="49.24361" lon="1.00053">
        <ele>127</ele>
        <time>2024-01-30T13:44:21.885+00:00</time>
      </trkpt>
      <trkpt lat="49.24357" lon="1.0005">
        <ele>127</ele>
        <time>2024-01-30T13:44:26.509+00:00</time>
      </trkpt>
      <trkpt lat="49.24353" lon="1.0005">
        <ele>127</ele>
        <time>2024-01-30T13:44:30.104+00:00</time>
      </trkpt>
      <trkpt lat="49.2435" lon="1.0005">
        <ele>127</ele>
        <time>2024-01-30T13:44:34.805+00:00</time>
      </trkpt>
      <trkpt lat="49.24347" lon="1.00047">
        <ele>132</ele>
        <time>2024-01-30T13:44:38.893+00:00</time>
      </trkpt>
      <trkpt lat="49.24343" lon="1.00044">
        <ele>132</ele>
        <time>2024-01-30T13:44:42.850+00:00</time>
      </trkpt>
      <trkpt lat="49.24339" lon="1.00041">
        <ele>131</ele>
        <time>2024-01-30T13:44:46.900+00:00</time>
      </trkpt>
      <trkpt lat="49.24336" lon="1.00037">
        <ele>131</ele>
        <time>2024-01-30T13:44:51.069+00:00</time>
      </trkpt>
      <trkpt lat="49.24332" lon="1.00032">
        <ele>131</ele>
        <time>2024-01-30T13:44:55.595+00:00</time>
      </trkpt>
      <trkpt lat="49.24329" lon="1.00029">
        <ele>131</ele>
        <time>2024-01-30T13:45:00.241+00:00</time>
      </trkpt>
      <trkpt lat="49.24325" lon="1.00027">
        <ele>131</ele>
        <time>2024-01-30T13:45:04.291+00:00</time>
      </trkpt>
      <trkpt lat="49.24322" lon="1.00024">
        <ele>131</ele>
        <time>2024-01-30T13:45:08.460+00:00</time>
      </trkpt>
      <trkpt lat="49.24318" lon="1.00019">
        <ele>134</ele>
        <time>2024-01-30T13:45:12.537+00:00</time>
      </trkpt>
      <trkpt lat="49.24313" lon="1.00014">
        <ele>134</ele>
        <time>2024-01-30T13:45:17.036+00:00</time>
      </trkpt>
      <trkpt lat="49.24309" lon="1.00009">
        <ele>132</ele>
        <time>2024-01-30T13:45:21.682+00:00</time>
      </trkpt>
      <trkpt lat="49.24305" lon="1.00006">
        <ele>132</ele>
        <time>2024-01-30T13:45:25.732+00:00</time>
      </trkpt>
      <trkpt lat="49.243" lon="1.00002">
        <ele>132</ele>
        <time>2024-01-30T13:45:30.377+00:00</time>
      </trkpt>
      <trkpt lat="49.24296" lon="0.99999">
        <ele>132</ele>
        <time>2024-01-30T13:45:34.904+00:00</time>
      </trkpt>
      <trkpt lat="49.24291" lon="0.99996">
        <ele>134</ele>
        <time>2024-01-30T13:45:39.537+00:00</time>
      </trkpt>
      <trkpt lat="49.24287" lon="0.99993">
        <ele>134</ele>
        <time>2024-01-30T13:45:43.719+00:00</time>
      </trkpt>
      <trkpt lat="49.24283" lon="0.99991">
        <ele>134</ele>
        <time>2024-01-30T13:45:48.364+00:00</time>
      </trkpt>
      <trkpt lat="49.24278" lon="0.9999">
        <ele>134</ele>
        <time>2024-01-30T13:45:52.891+00:00</time>
      </trkpt>
      <trkpt lat="49.24273" lon="0.99988">
        <ele>134</ele>
        <time>2024-01-30T13:45:57.531+00:00</time>
      </trkpt>
      <trkpt lat="49.24269" lon="0.99984">
        <ele>131</ele>
        <time>2024-01-30T13:46:01.705+00:00</time>
      </trkpt>
      <trkpt lat="49.24265" lon="0.9998">
        <ele>131</ele>
        <time>2024-01-30T13:46:05.874+00:00</time>
      </trkpt>
      <trkpt lat="49.24261" lon="0.99976">
        <ele>131</ele>
        <time>2024-01-30T13:46:10.639+00:00</time>
      </trkpt>
      <trkpt lat="49.24257" lon="0.99973">
        <ele>131</ele>
        <time>2024-01-30T13:46:15.165+00:00</time>
      </trkpt>
      <trkpt lat="49.24253" lon="0.99971">
        <ele>131</ele>
        <time>2024-01-30T13:46:19.692+00:00</time>
      </trkpt>
      <trkpt lat="49.24248" lon="0.99968">
        <ele>131</ele>
        <time>2024-01-30T13:46:23.861+00:00</time>
      </trkpt>
      <trkpt lat="49.24244" lon="0.99967">
        <ele>131</ele>
        <time>2024-01-30T13:46:28.030+00:00</time>
      </trkpt>
      <trkpt lat="49.24239" lon="0.99966">
        <ele>131</ele>
        <time>2024-01-30T13:46:32.524+00:00</time>
      </trkpt>
      <trkpt lat="49.24234" lon="0.99965">
        <ele>134</ele>
        <time>2024-01-30T13:46:37.083+00:00</time>
      </trkpt>
      <trkpt lat="49.24229" lon="0.99969">
        <ele>134</ele>
        <time>2024-01-30T13:46:41.729+00:00</time>
      </trkpt>
      <trkpt lat="49.24223" lon="0.9997">
        <ele>134</ele>
        <time>2024-01-30T13:46:46.381+00:00</time>
      </trkpt>
      <trkpt lat="49.24219" lon="0.9997">
        <ele>134</ele>
        <time>2024-01-30T13:46:50.424+00:00</time>
      </trkpt>
      <trkpt lat="49.24215" lon="0.9997">
        <ele>134</ele>
        <time>2024-01-30T13:46:54.474+00:00</time>
      </trkpt>
      <trkpt lat="49.2421" lon="0.9997">
        <ele>134</ele>
        <time>2024-01-30T13:46:58.048+00:00</time>
      </trkpt>
      <trkpt lat="49.24206" lon="0.9997">
        <ele>133</ele>
        <time>2024-01-30T13:47:02.693+00:00</time>
      </trkpt>
      <trkpt lat="49.24203" lon="0.99972">
        <ele>133</ele>
        <time>2024-01-30T13:47:07.339+00:00</time>
      </trkpt>
      <trkpt lat="49.24199" lon="0.99974">
        <ele>133</ele>
        <time>2024-01-30T13:47:11.984+00:00</time>
      </trkpt>
      <trkpt lat="49.24197" lon="0.99976">
        <ele>133</ele>
        <time>2024-01-30T13:47:16.034+00:00</time>
      </trkpt>
      <trkpt lat="49.24194" lon="0.99979">
        <ele>133</ele>
        <time>2024-01-30T13:47:19.965+00:00</time>
      </trkpt>
      <trkpt lat="49.24191" lon="0.9998">
        <ele>133</ele>
        <time>2024-01-30T13:47:23.896+00:00</time>
      </trkpt>
      <trkpt lat="49.24186" lon="0.99982">
        <ele>133</ele>
        <time>2024-01-30T13:47:27.827+00:00</time>
      </trkpt>
      <trkpt lat="49.24182" lon="0.99983">
        <ele>133</ele>
        <time>2024-01-30T13:47:32.472+00:00</time>
      </trkpt>
      <trkpt lat="49.24178" lon="0.99984">
        <ele>133</ele>
        <time>2024-01-30T13:47:36.507+00:00</time>
      </trkpt>
      <trkpt lat="49.24174" lon="0.99986">
        <ele>137</ele>
        <time>2024-01-30T13:47:41.229+00:00</time>
      </trkpt>
      <trkpt lat="49.2417" lon="0.99989">
        <ele>137</ele>
        <time>2024-01-30T13:47:45.099+00:00</time>
      </trkpt>
      <trkpt lat="49.24166" lon="0.9999">
        <ele>137</ele>
        <time>2024-01-30T13:47:49.149+00:00</time>
      </trkpt>
      <trkpt lat="49.2416" lon="0.99992">
        <ele>137</ele>
        <time>2024-01-30T13:47:53.923+00:00</time>
      </trkpt>
      <trkpt lat="49.24156" lon="0.99994">
        <ele>137</ele>
        <time>2024-01-30T13:47:58.083+00:00</time>
      </trkpt>
      <trkpt lat="49.24152" lon="0.99995">
        <ele>138</ele>
        <time>2024-01-30T13:48:02.252+00:00</time>
      </trkpt>
      <trkpt lat="49.24148" lon="0.99997">
        <ele>138</ele>
        <time>2024-01-30T13:48:06.827+00:00</time>
      </trkpt>
      <trkpt lat="49.24145" lon="0.99997">
        <ele>138</ele>
        <time>2024-01-30T13:48:10.709+00:00</time>
      </trkpt>
      <trkpt lat="49.24143" lon="0.99996">
        <ele>138</ele>
        <time>2024-01-30T13:48:14.878+00:00</time>
      </trkpt>
      <trkpt lat="49.2414" lon="0.99997">
        <ele>138</ele>
        <time>2024-01-30T13:48:19.047+00:00</time>
      </trkpt>
      <trkpt lat="49.24135" lon="0.99999">
        <ele>138</ele>
        <time>2024-01-30T13:48:23.693+00:00</time>
      </trkpt>
      <trkpt lat="49.24131" lon="1.00003">
        <ele>138</ele>
        <time>2024-01-30T13:48:27.862+00:00</time>
      </trkpt>
      <trkpt lat="49.24126" lon="1.00005">
        <ele>138</ele>
        <time>2024-01-30T13:48:32.031+00:00</time>
      </trkpt>
      <trkpt lat="49.24122" lon="1.00008">
        <ele>140</ele>
        <time>2024-01-30T13:48:37.034+00:00</time>
      </trkpt>
      <trkpt lat="49.24122" lon="1.00009">
        <ele>140</ele>
        <time>2024-01-30T13:48:42.275+00:00</time>
      </trkpt>
      <trkpt lat="49.24122" lon="1.00008">
        <ele>140</ele>
        <time>2024-01-30T13:48:47.040+00:00</time>
      </trkpt>
      <trkpt lat="49.24122" lon="1.00007">
        <ele>140</ele>
        <time>2024-01-30T13:48:51.606+00:00</time>
      </trkpt>
      <trkpt lat="49.24124" lon="1.00002">
        <ele>140</ele>
        <time>2024-01-30T13:48:55.537+00:00</time>
      </trkpt>
      <trkpt lat="49.24128" lon="0.99998">
        <ele>138</ele>
        <time>2024-01-30T13:49:00.143+00:00</time>
      </trkpt>
      <trkpt lat="49.24132" lon="1">
        <ele>138</ele>
        <time>2024-01-30T13:50:29.024+00:00</time>
      </trkpt>
      <trkpt lat="49.2413" lon="1.00005">
        <ele>138</ele>
        <time>2024-01-30T13:50:33.074+00:00</time>
      </trkpt>
      <trkpt lat="49.24128" lon="1.00008">
        <ele>138</ele>
        <time>2024-01-30T13:50:38.265+00:00</time>
      </trkpt>
      <trkpt lat="49.24123" lon="1.00012">
        <ele>140</ele>
        <time>2024-01-30T13:50:42.841+00:00</time>
      </trkpt>
      <trkpt lat="49.24121" lon="1.00014">
        <ele>140</ele>
        <time>2024-01-30T13:50:47.487+00:00</time>
      </trkpt>
      <trkpt lat="49.24117" lon="1.00015">
        <ele>144</ele>
        <time>2024-01-30T13:52:21.847+00:00</time>
      </trkpt>
      <trkpt lat="49.24111" lon="1.00019">
        <ele>144</ele>
        <time>2024-01-30T13:52:26.493+00:00</time>
      </trkpt>
      <trkpt lat="49.24106" lon="1.0002">
        <ele>144</ele>
        <time>2024-01-30T13:52:30.662+00:00</time>
      </trkpt>
      <trkpt lat="49.24101" lon="1.00022">
        <ele>144</ele>
        <time>2024-01-30T13:52:34.831+00:00</time>
      </trkpt>
      <trkpt lat="49.24096" lon="1.00026">
        <ele>146</ele>
        <time>2024-01-30T13:52:39.238+00:00</time>
      </trkpt>
      <trkpt lat="49.24092" lon="1.00028">
        <ele>146</ele>
        <time>2024-01-30T13:52:43.288+00:00</time>
      </trkpt>
      <trkpt lat="49.24087" lon="1.0003">
        <ele>146</ele>
        <time>2024-01-30T13:52:47.696+00:00</time>
      </trkpt>
      <trkpt lat="49.24082" lon="1.00032">
        <ele>146</ele>
        <time>2024-01-30T13:52:52.341+00:00</time>
      </trkpt>
      <trkpt lat="49.24077" lon="1.00031">
        <ele>146</ele>
        <time>2024-01-30T13:52:56.511+00:00</time>
      </trkpt>
      <trkpt lat="49.24072" lon="1.00031">
        <ele>146</ele>
        <time>2024-01-30T13:53:00.680+00:00</time>
      </trkpt>
      <trkpt lat="49.24066" lon="1.00032">
        <ele>148</ele>
        <time>2024-01-30T13:53:04.849+00:00</time>
      </trkpt>
      <trkpt lat="49.24061" lon="1.00034">
        <ele>148</ele>
        <time>2024-01-30T13:53:09.522+00:00</time>
      </trkpt>
      <trkpt lat="49.24057" lon="1.00037">
        <ele>148</ele>
        <time>2024-01-30T13:53:13.663+00:00</time>
      </trkpt>
      <trkpt lat="49.24052" lon="1.00039">
        <ele>148</ele>
        <time>2024-01-30T13:53:17.833+00:00</time>
      </trkpt>
      <trkpt lat="49.24047" lon="1.00041">
        <ele>148</ele>
        <time>2024-01-30T13:53:21.883+00:00</time>
      </trkpt>
      <trkpt lat="49.24042" lon="1.00042">
        <ele>149</ele>
        <time>2024-01-30T13:53:26.409+00:00</time>
      </trkpt>
      <trkpt lat="49.24038" lon="1.00041">
        <ele>149</ele>
        <time>2024-01-30T13:53:31.055+00:00</time>
      </trkpt>
      <trkpt lat="49.24034" lon="1.0004">
        <ele>149</ele>
        <time>2024-01-30T13:53:35.700+00:00</time>
      </trkpt>
      <trkpt lat="49.2403" lon="1.0004">
        <ele>149</ele>
        <time>2024-01-30T13:53:39.869+00:00</time>
      </trkpt>
      <trkpt lat="49.24025" lon="1.00041">
        <ele>149</ele>
        <time>2024-01-30T13:53:44.038+00:00</time>
      </trkpt>
      <trkpt lat="49.2402" lon="1.00041">
        <ele>149</ele>
        <time>2024-01-30T13:53:48.088+00:00</time>
      </trkpt>
      <trkpt lat="49.24015" lon="1.00043">
        <ele>150</ele>
        <time>2024-01-30T13:53:52.537+00:00</time>
      </trkpt>
      <trkpt lat="49.24011" lon="1.00045">
        <ele>150</ele>
        <time>2024-01-30T13:53:56.665+00:00</time>
      </trkpt>
      <trkpt lat="49.24006" lon="1.00046">
        <ele>150</ele>
        <time>2024-01-30T13:54:00.834+00:00</time>
      </trkpt>
      <trkpt lat="49.24002" lon="1.00046">
        <ele>150</ele>
        <time>2024-01-30T13:54:05.480+00:00</time>
      </trkpt>
      <trkpt lat="49.23998" lon="1.00047">
        <ele>150</ele>
        <time>2024-01-30T13:54:09.649+00:00</time>
      </trkpt>
      <trkpt lat="49.23994" lon="1.00047">
        <ele>150</ele>
        <time>2024-01-30T13:54:13.699+00:00</time>
      </trkpt>
      <trkpt lat="49.2399" lon="1.00049">
        <ele>150</ele>
        <time>2024-01-30T13:54:18.344+00:00</time>
      </trkpt>
      <trkpt lat="49.23985" lon="1.00049">
        <ele>151</ele>
        <time>2024-01-30T13:54:22.515+00:00</time>
      </trkpt>
      <trkpt lat="49.2398" lon="1.00047">
        <ele>151</ele>
        <time>2024-01-30T13:54:26.683+00:00</time>
      </trkpt>
      <trkpt lat="49.23976" lon="1.00047">
        <ele>151</ele>
        <time>2024-01-30T13:54:30.852+00:00</time>
      </trkpt>
      <trkpt lat="49.2397" lon="1.00048">
        <ele>151</ele>
        <time>2024-01-30T13:54:35.497+00:00</time>
      </trkpt>
      <trkpt lat="49.23966" lon="1.00048">
        <ele>151</ele>
        <time>2024-01-30T13:54:39.071+00:00</time>
      </trkpt>
      <trkpt lat="49.23961" lon="1.00048">
        <ele>151</ele>
        <time>2024-01-30T13:54:43.717+00:00</time>
      </trkpt>
      <trkpt lat="49.23956" lon="1.00048">
        <ele>149</ele>
        <time>2024-01-30T13:54:47.886+00:00</time>
      </trkpt>
      <trkpt lat="49.2395" lon="1.00048">
        <ele>149</ele>
        <time>2024-01-30T13:54:52.055+00:00</time>
      </trkpt>
      <trkpt lat="49.23945" lon="1.00046">
        <ele>149</ele>
        <time>2024-01-30T13:54:56.700+00:00</time>
      </trkpt>
      <trkpt lat="49.23941" lon="1.00043">
        <ele>149</ele>
        <time>2024-01-30T13:55:00.870+00:00</time>
      </trkpt>
      <trkpt lat="49.23937" lon="1.00041">
        <ele>148</ele>
        <time>2024-01-30T13:55:05.039+00:00</time>
      </trkpt>
      <trkpt lat="49.23932" lon="1.00039">
        <ele>148</ele>
        <time>2024-01-30T13:55:09.089+00:00</time>
      </trkpt>
      <trkpt lat="49.23925" lon="1.0004">
        <ele>147</ele>
        <time>2024-01-30T13:55:13.735+00:00</time>
      </trkpt>
      <trkpt lat="49.2392" lon="1.00041">
        <ele>147</ele>
        <time>2024-01-30T13:55:17.904+00:00</time>
      </trkpt>
      <trkpt lat="49.23915" lon="1.00042">
        <ele>149</ele>
        <time>2024-01-30T13:55:22.073+00:00</time>
      </trkpt>
      <trkpt lat="49.23912" lon="1.00041">
        <ele>147</ele>
        <time>2024-01-30T13:55:26.242+00:00</time>
      </trkpt>
      <trkpt lat="49.23907" lon="1.00038">
        <ele>147</ele>
        <time>2024-01-30T13:55:30.769+00:00</time>
      </trkpt>
      <trkpt lat="49.23903" lon="1.00038">
        <ele>146</ele>
        <time>2024-01-30T13:55:34.700+00:00</time>
      </trkpt>
      <trkpt lat="49.23898" lon="1.00039">
        <ele>146</ele>
        <time>2024-01-30T13:55:38.869+00:00</time>
      </trkpt>
      <trkpt lat="49.23893" lon="1.00038">
        <ele>146</ele>
        <time>2024-01-30T13:55:43.038+00:00</time>
      </trkpt>
      <trkpt lat="49.23888" lon="1.00036">
        <ele>146</ele>
        <time>2024-01-30T13:55:47.629+00:00</time>
      </trkpt>
      <trkpt lat="49.23884" lon="1.00034">
        <ele>146</ele>
        <time>2024-01-30T13:55:51.537+00:00</time>
      </trkpt>
      <trkpt lat="49.23879" lon="1.00035">
        <ele>146</ele>
        <time>2024-01-30T13:55:56.022+00:00</time>
      </trkpt>
      <trkpt lat="49.23875" lon="1.00036">
        <ele>146</ele>
        <time>2024-01-30T13:56:00.072+00:00</time>
      </trkpt>
      <trkpt lat="49.2387" lon="1.00036">
        <ele>146</ele>
        <time>2024-01-30T13:56:04.241+00:00</time>
      </trkpt>
      <trkpt lat="49.23865" lon="1.00036">
        <ele>146</ele>
        <time>2024-01-30T13:56:08.648+00:00</time>
      </trkpt>
      <trkpt lat="49.23861" lon="1.00035">
        <ele>146</ele>
        <time>2024-01-30T13:56:12.699+00:00</time>
      </trkpt>
      <trkpt lat="49.23856" lon="1.00034">
        <ele>146</ele>
        <time>2024-01-30T13:56:16.868+00:00</time>
      </trkpt>
      <trkpt lat="49.23851" lon="1.00033">
        <ele>146</ele>
        <time>2024-01-30T13:56:21.037+00:00</time>
      </trkpt>
      <trkpt lat="49.23847" lon="1.00031">
        <ele>147</ele>
        <time>2024-01-30T13:56:25.509+00:00</time>
      </trkpt>
      <trkpt lat="49.23842" lon="1.0003">
        <ele>147</ele>
        <time>2024-01-30T13:56:29.537+00:00</time>
      </trkpt>
      <trkpt lat="49.23837" lon="1.00027">
        <ele>147</ele>
        <time>2024-01-30T13:56:34.021+00:00</time>
      </trkpt>
      <trkpt lat="49.23833" lon="1.00027">
        <ele>147</ele>
        <time>2024-01-30T13:56:38.071+00:00</time>
      </trkpt>
      <trkpt lat="49.23828" lon="1.00026">
        <ele>147</ele>
        <time>2024-01-30T13:56:42.240+00:00</time>
      </trkpt>
      <trkpt lat="49.23821" lon="1.00027">
        <ele>147</ele>
        <time>2024-01-30T13:56:46.729+00:00</time>
      </trkpt>
      <trkpt lat="49.23816" lon="1.00027">
        <ele>149</ele>
        <time>2024-01-30T13:56:50.698+00:00</time>
      </trkpt>
      <trkpt lat="49.23812" lon="1.00026">
        <ele>149</ele>
        <time>2024-01-30T13:56:54.867+00:00</time>
      </trkpt>
      <trkpt lat="49.23806" lon="1.00024">
        <ele>149</ele>
        <time>2024-01-30T13:56:59.506+00:00</time>
      </trkpt>
      <trkpt lat="49.23801" lon="1.00023">
        <ele>149</ele>
        <time>2024-01-30T13:57:03.682+00:00</time>
      </trkpt>
      <trkpt lat="49.23797" lon="1.00021">
        <ele>149</ele>
        <time>2024-01-30T13:57:07.851+00:00</time>
      </trkpt>
      <trkpt lat="49.23792" lon="1.0002">
        <ele>149</ele>
        <time>2024-01-30T13:57:12.020+00:00</time>
      </trkpt>
      <trkpt lat="49.23788" lon="1.00018">
        <ele>151</ele>
        <time>2024-01-30T13:57:16.070+00:00</time>
      </trkpt>
      <trkpt lat="49.23784" lon="1.00016">
        <ele>151</ele>
        <time>2024-01-30T13:57:20.239+00:00</time>
      </trkpt>
      <trkpt lat="49.23779" lon="1.00015">
        <ele>151</ele>
        <time>2024-01-30T13:57:24.885+00:00</time>
      </trkpt>
      <trkpt lat="49.23774" lon="1.00014">
        <ele>151</ele>
        <time>2024-01-30T13:57:29.054+00:00</time>
      </trkpt>
      <trkpt lat="49.23769" lon="1.00011">
        <ele>148</ele>
        <time>2024-01-30T13:57:33.671+00:00</time>
      </trkpt>
      <trkpt lat="49.23765" lon="1.00009">
        <ele>148</ele>
        <time>2024-01-30T13:57:37.537+00:00</time>
      </trkpt>
      <trkpt lat="49.23761" lon="1.00007">
        <ele>149</ele>
        <time>2024-01-30T13:57:41.681+00:00</time>
      </trkpt>
      <trkpt lat="49.23757" lon="1.00004">
        <ele>149</ele>
        <time>2024-01-30T13:57:46.327+00:00</time>
      </trkpt>
      <trkpt lat="49.23752" lon="1.00001">
        <ele>149</ele>
        <time>2024-01-30T13:57:50.510+00:00</time>
      </trkpt>
      <trkpt lat="49.23746" lon="1">
        <ele>149</ele>
        <time>2024-01-30T13:57:54.665+00:00</time>
      </trkpt>
      <trkpt lat="49.23742" lon="0.99998">
        <ele>149</ele>
        <time>2024-01-30T13:57:58.834+00:00</time>
      </trkpt>
      <trkpt lat="49.23737" lon="0.99995">
        <ele>149</ele>
        <time>2024-01-30T13:58:02.884+00:00</time>
      </trkpt>
      <trkpt lat="49.23733" lon="0.99991">
        <ele>150</ele>
        <time>2024-01-30T13:58:07.053+00:00</time>
      </trkpt>
      <trkpt lat="49.2373" lon="0.99988">
        <ele>150</ele>
        <time>2024-01-30T13:58:11.104+00:00</time>
      </trkpt>
      <trkpt lat="49.23726" lon="0.99986">
        <ele>149</ele>
        <time>2024-01-30T13:58:15.273+00:00</time>
      </trkpt>
      <trkpt lat="49.23721" lon="0.99983">
        <ele>149</ele>
        <time>2024-01-30T13:58:20.037+00:00</time>
      </trkpt>
      <trkpt lat="49.23716" lon="0.9998">
        <ele>149</ele>
        <time>2024-01-30T13:58:24.088+00:00</time>
      </trkpt>
      <trkpt lat="49.23713" lon="0.99978">
        <ele>149</ele>
        <time>2024-01-30T13:58:28.257+00:00</time>
      </trkpt>
      <trkpt lat="49.23709" lon="0.99976">
        <ele>149</ele>
        <time>2024-01-30T13:58:33.021+00:00</time>
      </trkpt>
      <trkpt lat="49.23705" lon="0.99974">
        <ele>151</ele>
        <time>2024-01-30T13:58:37.072+00:00</time>
      </trkpt>
      <trkpt lat="49.23701" lon="0.99971">
        <ele>151</ele>
        <time>2024-01-30T13:58:41.241+00:00</time>
      </trkpt>
      <trkpt lat="49.23698" lon="0.99967">
        <ele>151</ele>
        <time>2024-01-30T13:58:45.886+00:00</time>
      </trkpt>
      <trkpt lat="49.23694" lon="0.99963">
        <ele>151</ele>
        <time>2024-01-30T13:58:50.056+00:00</time>
      </trkpt>
      <trkpt lat="49.2369" lon="0.9996">
        <ele>151</ele>
        <time>2024-01-30T13:58:54.106+00:00</time>
      </trkpt>
      <trkpt lat="49.23686" lon="0.99956">
        <ele>150</ele>
        <time>2024-01-30T13:58:58.275+00:00</time>
      </trkpt>
      <trkpt lat="49.23683" lon="0.99952">
        <ele>150</ele>
        <time>2024-01-30T13:59:02.444+00:00</time>
      </trkpt>
      <trkpt lat="49.23678" lon="0.99948">
        <ele>151</ele>
        <time>2024-01-30T13:59:07.090+00:00</time>
      </trkpt>
      <trkpt lat="49.23673" lon="0.99945">
        <ele>151</ele>
        <time>2024-01-30T13:59:11.259+00:00</time>
      </trkpt>
      <trkpt lat="49.23667" lon="0.99938">
        <ele>151</ele>
        <time>2024-01-30T13:59:16.024+00:00</time>
      </trkpt>
      <trkpt lat="49.23663" lon="0.99931">
        <ele>151</ele>
        <time>2024-01-30T13:59:20.074+00:00</time>
      </trkpt>
      <trkpt lat="49.2366" lon="0.99922">
        <ele>150</ele>
        <time>2024-01-30T13:59:24.838+00:00</time>
      </trkpt>
      <trkpt lat="49.23656" lon="0.99916">
        <ele>150</ele>
        <time>2024-01-30T13:59:28.888+00:00</time>
      </trkpt>
      <trkpt lat="49.23651" lon="0.99911">
        <ele>152</ele>
        <time>2024-01-30T13:59:33.058+00:00</time>
      </trkpt>
      <trkpt lat="49.23647" lon="0.99907">
        <ele>152</ele>
        <time>2024-01-30T13:59:37.108+00:00</time>
      </trkpt>
      <trkpt lat="49.23643" lon="0.99902">
        <ele>151</ele>
        <time>2024-01-30T13:59:41.277+00:00</time>
      </trkpt>
      <trkpt lat="49.23639" lon="0.99898">
        <ele>151</ele>
        <time>2024-01-30T13:59:46.042+00:00</time>
      </trkpt>
      <trkpt lat="49.23635" lon="0.99895">
        <ele>151</ele>
        <time>2024-01-30T13:59:50.092+00:00</time>
      </trkpt>
      <trkpt lat="49.23631" lon="0.99891">
        <ele>151</ele>
        <time>2024-01-30T13:59:54.261+00:00</time>
      </trkpt>
      <trkpt lat="49.23626" lon="0.99884">
        <ele>151</ele>
        <time>2024-01-30T13:59:58.907+00:00</time>
      </trkpt>
      <trkpt lat="49.23622" lon="0.99878">
        <ele>151</ele>
        <time>2024-01-30T14:00:03.076+00:00</time>
      </trkpt>
      <trkpt lat="49.23618" lon="0.99871">
        <ele>150</ele>
        <time>2024-01-30T14:00:07.721+00:00</time>
      </trkpt>
      <trkpt lat="49.23614" lon="0.99866">
        <ele>150</ele>
        <time>2024-01-30T14:00:11.890+00:00</time>
      </trkpt>
      <trkpt lat="49.2361" lon="0.99861">
        <ele>150</ele>
        <time>2024-01-30T14:00:16.060+00:00</time>
      </trkpt>
      <trkpt lat="49.23606" lon="0.99857">
        <ele>150</ele>
        <time>2024-01-30T14:00:20.229+00:00</time>
      </trkpt>
      <trkpt lat="49.23601" lon="0.99852">
        <ele>150</ele>
        <time>2024-01-30T14:00:24.279+00:00</time>
      </trkpt>
      <trkpt lat="49.23595" lon="0.99849">
        <ele>150</ele>
        <time>2024-01-30T14:00:28.448+00:00</time>
      </trkpt>
      <trkpt lat="49.23589" lon="0.99847">
        <ele>148</ele>
        <time>2024-01-30T14:00:33.094+00:00</time>
      </trkpt>
      <trkpt lat="49.23582" lon="0.99845">
        <ele>148</ele>
        <time>2024-01-30T14:00:37.739+00:00</time>
      </trkpt>
      <trkpt lat="49.23576" lon="0.99845">
        <ele>148</ele>
        <time>2024-01-30T14:00:41.909+00:00</time>
      </trkpt>
      <trkpt lat="49.2357" lon="0.99846">
        <ele>148</ele>
        <time>2024-01-30T14:00:46.532+00:00</time>
      </trkpt>
      <trkpt lat="49.23564" lon="0.99847">
        <ele>149</ele>
        <time>2024-01-30T14:00:50.518+00:00</time>
      </trkpt>
      <trkpt lat="49.23558" lon="0.99848">
        <ele>149</ele>
        <time>2024-01-30T14:00:54.621+00:00</time>
      </trkpt>
      <trkpt lat="49.23553" lon="0.99848">
        <ele>149</ele>
        <time>2024-01-30T14:00:58.943+00:00</time>
      </trkpt>
      <trkpt lat="49.23547" lon="0.9985">
        <ele>149</ele>
        <time>2024-01-30T14:01:03.469+00:00</time>
      </trkpt>
      <trkpt lat="49.23542" lon="0.9985">
        <ele>149</ele>
        <time>2024-01-30T14:01:07.608+00:00</time>
      </trkpt>
      <trkpt lat="49.23536" lon="0.9985">
        <ele>148</ele>
        <time>2024-01-30T14:01:12.046+00:00</time>
      </trkpt>
      <trkpt lat="49.2353" lon="0.99849">
        <ele>148</ele>
        <time>2024-01-30T14:01:16.096+00:00</time>
      </trkpt>
      <trkpt lat="49.23526" lon="0.99849">
        <ele>148</ele>
        <time>2024-01-30T14:01:20.146+00:00</time>
      </trkpt>
      <trkpt lat="49.23521" lon="0.9985">
        <ele>148</ele>
        <time>2024-01-30T14:01:24.077+00:00</time>
      </trkpt>
      <trkpt lat="49.23516" lon="0.99852">
        <ele>148</ele>
        <time>2024-01-30T14:01:28.246+00:00</time>
      </trkpt>
      <trkpt lat="49.23511" lon="0.99855">
        <ele>147</ele>
        <time>2024-01-30T14:01:32.296+00:00</time>
      </trkpt>
      <trkpt lat="49.23505" lon="0.99858">
        <ele>147</ele>
        <time>2024-01-30T14:01:36.942+00:00</time>
      </trkpt>
      <trkpt lat="49.23499" lon="0.99859">
        <ele>147</ele>
        <time>2024-01-30T14:01:41.468+00:00</time>
      </trkpt>
      <trkpt lat="49.23494" lon="0.99858">
        <ele>147</ele>
        <time>2024-01-30T14:01:45.572+00:00</time>
      </trkpt>
      <trkpt lat="49.23488" lon="0.99859">
        <ele>147</ele>
        <time>2024-01-30T14:01:49.688+00:00</time>
      </trkpt>
      <trkpt lat="49.23483" lon="0.99859">
        <ele>147</ele>
        <time>2024-01-30T14:01:53.537+00:00</time>
      </trkpt>
      <trkpt lat="49.23478" lon="0.99859">
        <ele>147</ele>
        <time>2024-01-30T14:01:57.668+00:00</time>
      </trkpt>
      <trkpt lat="49.23473" lon="0.99859">
        <ele>147</ele>
        <time>2024-01-30T14:02:01.837+00:00</time>
      </trkpt>
      <trkpt lat="49.23468" lon="0.99862">
        <ele>147</ele>
        <time>2024-01-30T14:02:05.888+00:00</time>
      </trkpt>
      <trkpt lat="49.23463" lon="0.99863">
        <ele>147</ele>
        <time>2024-01-30T14:02:10.057+00:00</time>
      </trkpt>
      <trkpt lat="49.23458" lon="0.99863">
        <ele>148</ele>
        <time>2024-01-30T14:02:14.107+00:00</time>
      </trkpt>
      <trkpt lat="49.23453" lon="0.99864">
        <ele>148</ele>
        <time>2024-01-30T14:02:18.276+00:00</time>
      </trkpt>
      <trkpt lat="49.23448" lon="0.99863">
        <ele>148</ele>
        <time>2024-01-30T14:02:22.445+00:00</time>
      </trkpt>
      <trkpt lat="49.23443" lon="0.99863">
        <ele>148</ele>
        <time>2024-01-30T14:02:27.091+00:00</time>
      </trkpt>
      <trkpt lat="49.23438" lon="0.99863">
        <ele>148</ele>
        <time>2024-01-30T14:02:31.537+00:00</time>
      </trkpt>
      <trkpt lat="49.23433" lon="0.99864">
        <ele>148</ele>
        <time>2024-01-30T14:02:35.667+00:00</time>
      </trkpt>
      <trkpt lat="49.23428" lon="0.99865">
        <ele>148</ele>
        <time>2024-01-30T14:02:39.836+00:00</time>
      </trkpt>
      <trkpt lat="49.23423" lon="0.99865">
        <ele>148</ele>
        <time>2024-01-30T14:02:43.887+00:00</time>
      </trkpt>
      <trkpt lat="49.23418" lon="0.99866">
        <ele>148</ele>
        <time>2024-01-30T14:02:48.056+00:00</time>
      </trkpt>
      <trkpt lat="49.23413" lon="0.99867">
        <ele>148</ele>
        <time>2024-01-30T14:02:52.106+00:00</time>
      </trkpt>
      <trkpt lat="49.23408" lon="0.99867">
        <ele>148</ele>
        <time>2024-01-30T14:02:56.537+00:00</time>
      </trkpt>
      <trkpt lat="49.23403" lon="0.99867">
        <ele>148</ele>
        <time>2024-01-30T14:03:01.233+00:00</time>
      </trkpt>
      <trkpt lat="49.23398" lon="0.99868">
        <ele>149</ele>
        <time>2024-01-30T14:03:05.090+00:00</time>
      </trkpt>
      <trkpt lat="49.23394" lon="0.99868">
        <ele>149</ele>
        <time>2024-01-30T14:03:09.259+00:00</time>
      </trkpt>
      <trkpt lat="49.23388" lon="0.99869">
        <ele>149</ele>
        <time>2024-01-30T14:03:13.905+00:00</time>
      </trkpt>
      <trkpt lat="49.23383" lon="0.99869">
        <ele>149</ele>
        <time>2024-01-30T14:03:18.074+00:00</time>
      </trkpt>
      <trkpt lat="49.23378" lon="0.99869">
        <ele>149</ele>
        <time>2024-01-30T14:03:22.243+00:00</time>
      </trkpt>
      <trkpt lat="49.23372" lon="0.99867">
        <ele>150</ele>
        <time>2024-01-30T14:03:26.888+00:00</time>
      </trkpt>
      <trkpt lat="49.23367" lon="0.99865">
        <ele>150</ele>
        <time>2024-01-30T14:03:31.296+00:00</time>
      </trkpt>
      <trkpt lat="49.23361" lon="0.99866">
        <ele>150</ele>
        <time>2024-01-30T14:03:36.061+00:00</time>
      </trkpt>
      <trkpt lat="49.23356" lon="0.99867">
        <ele>150</ele>
        <time>2024-01-30T14:03:40.230+00:00</time>
      </trkpt>
      <trkpt lat="49.23351" lon="0.99869">
        <ele>150</ele>
        <time>2024-01-30T14:03:44.851+00:00</time>
      </trkpt>
      <trkpt lat="49.23346" lon="0.99869">
        <ele>153</ele>
        <time>2024-01-30T14:03:48.925+00:00</time>
      </trkpt>
      <trkpt lat="49.23341" lon="0.9987">
        <ele>153</ele>
        <time>2024-01-30T14:03:52.976+00:00</time>
      </trkpt>
      <trkpt lat="49.23335" lon="0.9987">
        <ele>153</ele>
        <time>2024-01-30T14:03:57.537+00:00</time>
      </trkpt>
      <trkpt lat="49.23329" lon="0.9987">
        <ele>153</ele>
        <time>2024-01-30T14:04:02.267+00:00</time>
      </trkpt>
      <trkpt lat="49.23326" lon="0.99867">
        <ele>153</ele>
        <time>2024-01-30T14:04:06.793+00:00</time>
      </trkpt>
      <trkpt lat="49.23321" lon="0.99871">
        <ele>153</ele>
        <time>2024-01-30T14:04:10.843+00:00</time>
      </trkpt>
      <trkpt lat="49.23317" lon="0.99874">
        <ele>154</ele>
        <time>2024-01-30T14:04:14.893+00:00</time>
      </trkpt>
      <trkpt lat="49.23312" lon="0.99875">
        <ele>154</ele>
        <time>2024-01-30T14:04:19.651+00:00</time>
      </trkpt>
      <trkpt lat="49.23306" lon="0.99875">
        <ele>154</ele>
        <time>2024-01-30T14:04:24.161+00:00</time>
      </trkpt>
      <trkpt lat="49.233" lon="0.99875">
        <ele>154</ele>
        <time>2024-01-30T14:04:28.686+00:00</time>
      </trkpt>
      <trkpt lat="49.23295" lon="0.99876">
        <ele>154</ele>
        <time>2024-01-30T14:04:33.222+00:00</time>
      </trkpt>
      <trkpt lat="49.23289" lon="0.99876">
        <ele>153</ele>
        <time>2024-01-30T14:04:37.745+00:00</time>
      </trkpt>
      <trkpt lat="49.23285" lon="0.99878">
        <ele>153</ele>
        <time>2024-01-30T14:04:41.695+00:00</time>
      </trkpt>
      <trkpt lat="49.23281" lon="0.99879">
        <ele>153</ele>
        <time>2024-01-30T14:04:45.864+00:00</time>
      </trkpt>
      <trkpt lat="49.23276" lon="0.99879">
        <ele>153</ele>
        <time>2024-01-30T14:04:49.914+00:00</time>
      </trkpt>
      <trkpt lat="49.23272" lon="0.9988">
        <ele>153</ele>
        <time>2024-01-30T14:04:53.964+00:00</time>
      </trkpt>
      <trkpt lat="49.23266" lon="0.99877">
        <ele>153</ele>
        <time>2024-01-30T14:05:07.067+00:00</time>
      </trkpt>
      <trkpt lat="49.23267" lon="0.99876">
        <ele>153</ele>
        <time>2024-01-30T14:05:12.428+00:00</time>
      </trkpt>
      <trkpt lat="49.23267" lon="0.99876">
        <ele>153</ele>
        <time>2024-01-30T14:05:16.478+00:00</time>
      </trkpt>
      <trkpt lat="49.23265" lon="0.99875">
        <ele>153</ele>
        <time>2024-01-30T14:05:20.647+00:00</time>
      </trkpt>
      <trkpt lat="49.23261" lon="0.99866">
        <ele>153</ele>
        <time>2024-01-30T14:05:25.279+00:00</time>
      </trkpt>
      <trkpt lat="49.23258" lon="0.99857">
        <ele>153</ele>
        <time>2024-01-30T14:05:29.461+00:00</time>
      </trkpt>
      <trkpt lat="49.23256" lon="0.99849">
        <ele>153</ele>
        <time>2024-01-30T14:05:33.537+00:00</time>
      </trkpt>
      <trkpt lat="49.23254" lon="0.99841">
        <ele>153</ele>
        <time>2024-01-30T14:05:37.681+00:00</time>
      </trkpt>
      <trkpt lat="49.23252" lon="0.99831">
        <ele>153</ele>
        <time>2024-01-30T14:05:42.326+00:00</time>
      </trkpt>
      <trkpt lat="49.23249" lon="0.99823">
        <ele>153</ele>
        <time>2024-01-30T14:05:46.972+00:00</time>
      </trkpt>
      <trkpt lat="49.23246" lon="0.99814">
        <ele>153</ele>
        <time>2024-01-30T14:05:51.513+00:00</time>
      </trkpt>
      <trkpt lat="49.23244" lon="0.99807">
        <ele>153</ele>
        <time>2024-01-30T14:05:55.667+00:00</time>
      </trkpt>
      <trkpt lat="49.23241" lon="0.998">
        <ele>153</ele>
        <time>2024-01-30T14:06:00.301+00:00</time>
      </trkpt>
      <trkpt lat="49.2324" lon="0.99795">
        <ele>153</ele>
        <time>2024-01-30T14:06:04.244+00:00</time>
      </trkpt>
      <trkpt lat="49.23238" lon="0.99789">
        <ele>153</ele>
        <time>2024-01-30T14:06:08.889+00:00</time>
      </trkpt>
      <trkpt lat="49.23235" lon="0.99783">
        <ele>153</ele>
        <time>2024-01-30T14:06:13.511+00:00</time>
      </trkpt>
      <trkpt lat="49.23232" lon="0.99777">
        <ele>153</ele>
        <time>2024-01-30T14:06:17.942+00:00</time>
      </trkpt>
      <trkpt lat="49.23228" lon="0.99773">
        <ele>153</ele>
        <time>2024-01-30T14:06:22.469+00:00</time>
      </trkpt>
      <trkpt lat="49.23222" lon="0.99772">
        <ele>153</ele>
        <time>2024-01-30T14:06:26.638+00:00</time>
      </trkpt>
      <trkpt lat="49.23216" lon="0.9977">
        <ele>153</ele>
        <time>2024-01-30T14:06:30.688+00:00</time>
      </trkpt>
      <trkpt lat="49.23211" lon="0.99768">
        <ele>153</ele>
        <time>2024-01-30T14:06:34.738+00:00</time>
      </trkpt>
      <trkpt lat="49.23205" lon="0.99769">
        <ele>153</ele>
        <time>2024-01-30T14:06:38.907+00:00</time>
      </trkpt>
      <trkpt lat="49.232" lon="0.9977">
        <ele>153</ele>
        <time>2024-01-30T14:06:43.076+00:00</time>
      </trkpt>
      <trkpt lat="49.23195" lon="0.99771">
        <ele>153</ele>
        <time>2024-01-30T14:06:47.245+00:00</time>
      </trkpt>
      <trkpt lat="49.2319" lon="0.99772">
        <ele>153</ele>
        <time>2024-01-30T14:06:51.295+00:00</time>
      </trkpt>
      <trkpt lat="49.23185" lon="0.99774">
        <ele>153</ele>
        <time>2024-01-30T14:06:55.345+00:00</time>
      </trkpt>
      <trkpt lat="49.2318" lon="0.99777">
        <ele>152</ele>
        <time>2024-01-30T14:07:00.110+00:00</time>
      </trkpt>
      <trkpt lat="49.23175" lon="0.99779">
        <ele>152</ele>
        <time>2024-01-30T14:07:04.279+00:00</time>
      </trkpt>
      <trkpt lat="49.23171" lon="0.99781">
        <ele>152</ele>
        <time>2024-01-30T14:07:08.448+00:00</time>
      </trkpt>
      <trkpt lat="49.23165" lon="0.99783">
        <ele>152</ele>
        <time>2024-01-30T14:07:13.094+00:00</time>
      </trkpt>
      <trkpt lat="49.2316" lon="0.99788">
        <ele>152</ele>
        <time>2024-01-30T14:07:17.858+00:00</time>
      </trkpt>
      <trkpt lat="49.23155" lon="0.99793">
        <ele>153</ele>
        <time>2024-01-30T14:07:22.385+00:00</time>
      </trkpt>
      <trkpt lat="49.23151" lon="0.99797">
        <ele>152</ele>
        <time>2024-01-30T14:07:26.435+00:00</time>
      </trkpt>
      <trkpt lat="49.23147" lon="0.99801">
        <ele>152</ele>
        <time>2024-01-30T14:07:31.080+00:00</time>
      </trkpt>
      <trkpt lat="49.23143" lon="0.99805">
        <ele>152</ele>
        <time>2024-01-30T14:07:35.250+00:00</time>
      </trkpt>
      <trkpt lat="49.2314" lon="0.99809">
        <ele>152</ele>
        <time>2024-01-30T14:07:39.419+00:00</time>
      </trkpt>
      <trkpt lat="49.23136" lon="0.99812">
        <ele>152</ele>
        <time>2024-01-30T14:07:43.469+00:00</time>
      </trkpt>
      <trkpt lat="49.23131" lon="0.99814">
        <ele>152</ele>
        <time>2024-01-30T14:07:47.638+00:00</time>
      </trkpt>
      <trkpt lat="49.23127" lon="0.99816">
        <ele>152</ele>
        <time>2024-01-30T14:07:51.688+00:00</time>
      </trkpt>
      <trkpt lat="49.23123" lon="0.9982">
        <ele>153</ele>
        <time>2024-01-30T14:07:55.857+00:00</time>
      </trkpt>
      <trkpt lat="49.23118" lon="0.99824">
        <ele>153</ele>
        <time>2024-01-30T14:08:00.026+00:00</time>
      </trkpt>
      <trkpt lat="49.23113" lon="0.99827">
        <ele>153</ele>
        <time>2024-01-30T14:08:04.515+00:00</time>
      </trkpt>
      <trkpt lat="49.23107" lon="0.99829">
        <ele>153</ele>
        <time>2024-01-30T14:08:09.079+00:00</time>
      </trkpt>
      <trkpt lat="49.23101" lon="0.99829">
        <ele>153</ele>
        <time>2024-01-30T14:08:13.844+00:00</time>
      </trkpt>
      <trkpt lat="49.23096" lon="0.99831">
        <ele>152</ele>
        <time>2024-01-30T14:08:17.894+00:00</time>
      </trkpt>
      <trkpt lat="49.23091" lon="0.99832">
        <ele>152</ele>
        <time>2024-01-30T14:08:21.944+00:00</time>
      </trkpt>
      <trkpt lat="49.23086" lon="0.99834">
        <ele>152</ele>
        <time>2024-01-30T14:08:26.470+00:00</time>
      </trkpt>
      <trkpt lat="49.23081" lon="0.99835">
        <ele>152</ele>
        <time>2024-01-30T14:08:30.509+00:00</time>
      </trkpt>
      <trkpt lat="49.23076" lon="0.99835">
        <ele>152</ele>
        <time>2024-01-30T14:08:34.570+00:00</time>
      </trkpt>
      <trkpt lat="49.23071" lon="0.99837">
        <ele>152</ele>
        <time>2024-01-30T14:08:38.537+00:00</time>
      </trkpt>
      <trkpt lat="49.23065" lon="0.9984">
        <ele>152</ele>
        <time>2024-01-30T14:08:43.232+00:00</time>
      </trkpt>
      <trkpt lat="49.23061" lon="0.99843">
        <ele>152</ele>
        <time>2024-01-30T14:08:47.197+00:00</time>
      </trkpt>
      <trkpt lat="49.23055" lon="0.99846">
        <ele>152</ele>
        <time>2024-01-30T14:08:51.723+00:00</time>
      </trkpt>
      <trkpt lat="49.23049" lon="0.99849">
        <ele>152</ele>
        <time>2024-01-30T14:08:56.369+00:00</time>
      </trkpt>
      <trkpt lat="49.23044" lon="0.99853">
        <ele>152</ele>
        <time>2024-01-30T14:09:00.300+00:00</time>
      </trkpt>
      <trkpt lat="49.2304" lon="0.99857">
        <ele>152</ele>
        <time>2024-01-30T14:09:04.350+00:00</time>
      </trkpt>
      <trkpt lat="49.23035" lon="0.99863">
        <ele>152</ele>
        <time>2024-01-30T14:09:08.876+00:00</time>
      </trkpt>
      <trkpt lat="49.2303" lon="0.99869">
        <ele>152</ele>
        <time>2024-01-30T14:09:13.641+00:00</time>
      </trkpt>
      <trkpt lat="49.23026" lon="0.99874">
        <ele>152</ele>
        <time>2024-01-30T14:09:17.813+00:00</time>
      </trkpt>
      <trkpt lat="49.23023" lon="0.9988">
        <ele>152</ele>
        <time>2024-01-30T14:09:21.869+00:00</time>
      </trkpt>
      <trkpt lat="49.2302" lon="0.99885">
        <ele>152</ele>
        <time>2024-01-30T14:09:26.386+00:00</time>
      </trkpt>
      <trkpt lat="49.23016" lon="0.99889">
        <ele>152</ele>
        <time>2024-01-30T14:09:30.317+00:00</time>
      </trkpt>
      <trkpt lat="49.23011" lon="0.99894">
        <ele>152</ele>
        <time>2024-01-30T14:09:34.844+00:00</time>
      </trkpt>
      <trkpt lat="49.23006" lon="0.99898">
        <ele>152</ele>
        <time>2024-01-30T14:09:38.894+00:00</time>
      </trkpt>
      <trkpt lat="49.23002" lon="0.99901">
        <ele>152</ele>
        <time>2024-01-30T14:09:42.944+00:00</time>
      </trkpt>
      <trkpt lat="49.22998" lon="0.99905">
        <ele>151</ele>
        <time>2024-01-30T14:09:46.994+00:00</time>
      </trkpt>
      <trkpt lat="49.22994" lon="0.99909">
        <ele>151</ele>
        <time>2024-01-30T14:09:51.022+00:00</time>
      </trkpt>
      <trkpt lat="49.22989" lon="0.99911">
        <ele>151</ele>
        <time>2024-01-30T14:09:55.520+00:00</time>
      </trkpt>
      <trkpt lat="49.22985" lon="0.99913">
        <ele>150</ele>
        <time>2024-01-30T14:09:59.537+00:00</time>
      </trkpt>
      <trkpt lat="49.22982" lon="0.99912">
        <ele>150</ele>
        <time>2024-01-30T14:10:04.028+00:00</time>
      </trkpt>
      <trkpt lat="49.2298" lon="0.99916">
        <ele>150</ele>
        <time>2024-01-30T14:10:08.078+00:00</time>
      </trkpt>
      <trkpt lat="49.22977" lon="0.99923">
        <ele>150</ele>
        <time>2024-01-30T14:10:12.224+00:00</time>
      </trkpt>
      <trkpt lat="49.22973" lon="0.99927">
        <ele>150</ele>
        <time>2024-01-30T14:10:16.178+00:00</time>
      </trkpt>
      <trkpt lat="49.22968" lon="0.99932">
        <ele>149</ele>
        <time>2024-01-30T14:10:20.704+00:00</time>
      </trkpt>
      <trkpt lat="49.22963" lon="0.99935">
        <ele>149</ele>
        <time>2024-01-30T14:10:24.769+00:00</time>
      </trkpt>
      <trkpt lat="49.22957" lon="0.99936">
        <ele>148</ele>
        <time>2024-01-30T14:10:29.281+00:00</time>
      </trkpt>
      <trkpt lat="49.22952" lon="0.99938">
        <ele>148</ele>
        <time>2024-01-30T14:10:33.926+00:00</time>
      </trkpt>
      <trkpt lat="49.22948" lon="0.99939">
        <ele>148</ele>
        <time>2024-01-30T14:10:37.857+00:00</time>
      </trkpt>
      <trkpt lat="49.22943" lon="0.99939">
        <ele>148</ele>
        <time>2024-01-30T14:10:42.026+00:00</time>
      </trkpt>
      <trkpt lat="49.22938" lon="0.99939">
        <ele>148</ele>
        <time>2024-01-30T14:10:46.511+00:00</time>
      </trkpt>
      <trkpt lat="49.22933" lon="0.99938">
        <ele>148</ele>
        <time>2024-01-30T14:10:51.079+00:00</time>
      </trkpt>
      <trkpt lat="49.22928" lon="0.99934">
        <ele>147</ele>
        <time>2024-01-30T14:10:55.010+00:00</time>
      </trkpt>
      <trkpt lat="49.22924" lon="0.99925">
        <ele>147</ele>
        <time>2024-01-30T14:10:59.656+00:00</time>
      </trkpt>
      <trkpt lat="49.22921" lon="0.99916">
        <ele>147</ele>
        <time>2024-01-30T14:11:04.182+00:00</time>
      </trkpt>
      <trkpt lat="49.22918" lon="0.99908">
        <ele>147</ele>
        <time>2024-01-30T14:11:08.709+00:00</time>
      </trkpt>
      <trkpt lat="49.22915" lon="0.99901">
        <ele>147</ele>
        <time>2024-01-30T14:11:12.846+00:00</time>
      </trkpt>
      <trkpt lat="49.22914" lon="0.99892">
        <ele>147</ele>
        <time>2024-01-30T14:11:17.285+00:00</time>
      </trkpt>
      <trkpt lat="49.22915" lon="0.99884">
        <ele>147</ele>
        <time>2024-01-30T14:11:21.693+00:00</time>
      </trkpt>
      <trkpt lat="49.22913" lon="0.99875">
        <ele>147</ele>
        <time>2024-01-30T14:11:26.323+00:00</time>
      </trkpt>
      <trkpt lat="49.22908" lon="0.99867">
        <ele>148</ele>
        <time>2024-01-30T14:11:30.865+00:00</time>
      </trkpt>
      <trkpt lat="49.22903" lon="0.99864">
        <ele>148</ele>
        <time>2024-01-30T14:11:35.510+00:00</time>
      </trkpt>
      <trkpt lat="49.22899" lon="0.99861">
        <ele>148</ele>
        <time>2024-01-30T14:11:39.981+00:00</time>
      </trkpt>
      <trkpt lat="49.22895" lon="0.99858">
        <ele>148</ele>
        <time>2024-01-30T14:11:43.968+00:00</time>
      </trkpt>
      <trkpt lat="49.2289" lon="0.99859">
        <ele>148</ele>
        <time>2024-01-30T14:11:48.018+00:00</time>
      </trkpt>
      <trkpt lat="49.22886" lon="0.99864">
        <ele>148</ele>
        <time>2024-01-30T14:11:52.583+00:00</time>
      </trkpt>
      <trkpt lat="49.22883" lon="0.99871">
        <ele>148</ele>
        <time>2024-01-30T14:11:57.070+00:00</time>
      </trkpt>
      <trkpt lat="49.22879" lon="0.99876">
        <ele>147</ele>
        <time>2024-01-30T14:12:01.518+00:00</time>
      </trkpt>
      <trkpt lat="49.22876" lon="0.99882">
        <ele>147</ele>
        <time>2024-01-30T14:12:05.537+00:00</time>
      </trkpt>
      <trkpt lat="49.22872" lon="0.99888">
        <ele>148</ele>
        <time>2024-01-30T14:12:10.054+00:00</time>
      </trkpt>
      <trkpt lat="49.22868" lon="0.99894">
        <ele>148</ele>
        <time>2024-01-30T14:12:14.104+00:00</time>
      </trkpt>
      <trkpt lat="49.22864" lon="0.99902">
        <ele>148</ele>
        <time>2024-01-30T14:12:18.750+00:00</time>
      </trkpt>
      <trkpt lat="49.2286" lon="0.99908">
        <ele>147</ele>
        <time>2024-01-30T14:12:23.231+00:00</time>
      </trkpt>
      <trkpt lat="49.22856" lon="0.99914">
        <ele>147</ele>
        <time>2024-01-30T14:12:27.207+00:00</time>
      </trkpt>
      <trkpt lat="49.22852" lon="0.9992">
        <ele>147</ele>
        <time>2024-01-30T14:12:31.852+00:00</time>
      </trkpt>
      <trkpt lat="49.22847" lon="0.99927">
        <ele>147</ele>
        <time>2024-01-30T14:12:36.379+00:00</time>
      </trkpt>
      <trkpt lat="49.22844" lon="0.99932">
        <ele>149</ele>
        <time>2024-01-30T14:12:40.429+00:00</time>
      </trkpt>
      <trkpt lat="49.2284" lon="0.99938">
        <ele>149</ele>
        <time>2024-01-30T14:12:45.074+00:00</time>
      </trkpt>
      <trkpt lat="49.22837" lon="0.99944">
        <ele>149</ele>
        <time>2024-01-30T14:12:49.243+00:00</time>
      </trkpt>
      <trkpt lat="49.22835" lon="0.99949">
        <ele>149</ele>
        <time>2024-01-30T14:12:53.293+00:00</time>
      </trkpt>
      <trkpt lat="49.22832" lon="0.99953">
        <ele>149</ele>
        <time>2024-01-30T14:12:57.463+00:00</time>
      </trkpt>
      <trkpt lat="49.22831" lon="0.99959">
        <ele>150</ele>
        <time>2024-01-30T14:13:01.537+00:00</time>
      </trkpt>
      <trkpt lat="49.22828" lon="0.99965">
        <ele>150</ele>
        <time>2024-01-30T14:13:06.039+00:00</time>
      </trkpt>
      <trkpt lat="49.22824" lon="0.99969">
        <ele>150</ele>
        <time>2024-01-30T14:13:10.089+00:00</time>
      </trkpt>
      <trkpt lat="49.22821" lon="0.99972">
        <ele>150</ele>
        <time>2024-01-30T14:13:14.258+00:00</time>
      </trkpt>
      <trkpt lat="49.22817" lon="0.99977">
        <ele>151</ele>
        <time>2024-01-30T14:13:18.427+00:00</time>
      </trkpt>
      <trkpt lat="49.22813" lon="0.99982">
        <ele>151</ele>
        <time>2024-01-30T14:13:23.073+00:00</time>
      </trkpt>
      <trkpt lat="49.2281" lon="0.99987">
        <ele>151</ele>
        <time>2024-01-30T14:13:27.122+00:00</time>
      </trkpt>
      <trkpt lat="49.22805" lon="0.99992">
        <ele>151</ele>
        <time>2024-01-30T14:13:31.649+00:00</time>
      </trkpt>
      <trkpt lat="49.228" lon="0.99996">
        <ele>151</ele>
        <time>2024-01-30T14:13:36.220+00:00</time>
      </trkpt>
      <trkpt lat="49.22796" lon="0.99999">
        <ele>151</ele>
        <time>2024-01-30T14:13:40.106+00:00</time>
      </trkpt>
      <trkpt lat="49.22792" lon="1.00001">
        <ele>151</ele>
        <time>2024-01-30T14:13:44.275+00:00</time>
      </trkpt>
      <trkpt lat="49.22787" lon="1.00003">
        <ele>151</ele>
        <time>2024-01-30T14:13:49.278+00:00</time>
      </trkpt>
      <trkpt lat="49.22782" lon="1.00002">
        <ele>151</ele>
        <time>2024-01-30T14:13:53.447+00:00</time>
      </trkpt>
      <trkpt lat="49.22779" lon="1.00003">
        <ele>151</ele>
        <time>2024-01-30T14:13:58.093+00:00</time>
      </trkpt>
      <trkpt lat="49.22776" lon="1.00006">
        <ele>151</ele>
        <time>2024-01-30T14:14:02.024+00:00</time>
      </trkpt>
      <trkpt lat="49.22771" lon="1.00004">
        <ele>151</ele>
        <time>2024-01-30T14:14:06.669+00:00</time>
      </trkpt>
      <trkpt lat="49.22767" lon="1.00002">
        <ele>151</ele>
        <time>2024-01-30T14:14:11.315+00:00</time>
      </trkpt>
      <trkpt lat="49.22765" lon="0.99995">
        <ele>151</ele>
        <time>2024-01-30T14:14:16.080+00:00</time>
      </trkpt>
      <trkpt lat="49.22766" lon="0.99986">
        <ele>151</ele>
        <time>2024-01-30T14:14:20.249+00:00</time>
      </trkpt>
      <trkpt lat="49.22768" lon="0.99977">
        <ele>151</ele>
        <time>2024-01-30T14:14:24.894+00:00</time>
      </trkpt>
      <trkpt lat="49.2277" lon="0.99969">
        <ele>151</ele>
        <time>2024-01-30T14:14:29.518+00:00</time>
      </trkpt>
      <trkpt lat="49.22772" lon="0.99963">
        <ele>151</ele>
        <time>2024-01-30T14:14:33.709+00:00</time>
      </trkpt>
      <trkpt lat="49.22775" lon="0.99957">
        <ele>151</ele>
        <time>2024-01-30T14:14:37.878+00:00</time>
      </trkpt>
      <trkpt lat="49.22777" lon="0.9995">
        <ele>151</ele>
        <time>2024-01-30T14:14:42.047+00:00</time>
      </trkpt>
      <trkpt lat="49.22779" lon="0.99942">
        <ele>151</ele>
        <time>2024-01-30T14:14:47.050+00:00</time>
      </trkpt>
      <trkpt lat="49.2278" lon="0.99935">
        <ele>151</ele>
        <time>2024-01-30T14:14:51.100+00:00</time>
      </trkpt>
      <trkpt lat="49.22782" lon="0.99927">
        <ele>152</ele>
        <time>2024-01-30T14:14:55.269+00:00</time>
      </trkpt>
      <trkpt lat="49.22784" lon="0.9992">
        <ele>152</ele>
        <time>2024-01-30T14:15:00.034+00:00</time>
      </trkpt>
      <trkpt lat="49.22786" lon="0.99913">
        <ele>152</ele>
        <time>2024-01-30T14:15:04.084+00:00</time>
      </trkpt>
      <trkpt lat="49.22787" lon="0.99906">
        <ele>152</ele>
        <time>2024-01-30T14:15:08.253+00:00</time>
      </trkpt>
      <trkpt lat="49.22788" lon="0.99897">
        <ele>153</ele>
        <time>2024-01-30T14:15:12.422+00:00</time>
      </trkpt>
      <trkpt lat="49.2279" lon="0.9989">
        <ele>153</ele>
        <time>2024-01-30T14:15:16.472+00:00</time>
      </trkpt>
      <trkpt lat="49.22792" lon="0.99884">
        <ele>152</ele>
        <time>2024-01-30T14:15:20.641+00:00</time>
      </trkpt>
      <trkpt lat="49.22791" lon="0.99876">
        <ele>153</ele>
        <time>2024-01-30T14:15:24.691+00:00</time>
      </trkpt>
      <trkpt lat="49.2279" lon="0.99868">
        <ele>154</ele>
        <time>2024-01-30T14:15:28.860+00:00</time>
      </trkpt>
      <trkpt lat="49.22789" lon="0.9986">
        <ele>154</ele>
        <time>2024-01-30T14:15:33.029+00:00</time>
      </trkpt>
      <trkpt lat="49.22788" lon="0.99853">
        <ele>154</ele>
        <time>2024-01-30T14:15:37.519+00:00</time>
      </trkpt>
      <trkpt lat="49.22786" lon="0.99845">
        <ele>155</ele>
        <time>2024-01-30T14:15:42.082+00:00</time>
      </trkpt>
      <trkpt lat="49.22785" lon="0.99837">
        <ele>155</ele>
        <time>2024-01-30T14:15:46.251+00:00</time>
      </trkpt>
      <trkpt lat="49.22785" lon="0.99831">
        <ele>155</ele>
        <time>2024-01-30T14:15:50.420+00:00</time>
      </trkpt>
      <trkpt lat="49.22786" lon="0.99822">
        <ele>155</ele>
        <time>2024-01-30T14:15:55.066+00:00</time>
      </trkpt>
      <trkpt lat="49.22787" lon="0.99815">
        <ele>154</ele>
        <time>2024-01-30T14:15:59.518+00:00</time>
      </trkpt>
      <trkpt lat="49.22789" lon="0.99807">
        <ele>154</ele>
        <time>2024-01-30T14:16:03.642+00:00</time>
      </trkpt>
      <trkpt lat="49.22791" lon="0.99801">
        <ele>154</ele>
        <time>2024-01-30T14:16:07.692+00:00</time>
      </trkpt>
      <trkpt lat="49.22792" lon="0.99793">
        <ele>154</ele>
        <time>2024-01-30T14:16:11.537+00:00</time>
      </trkpt>
      <trkpt lat="49.22794" lon="0.99785">
        <ele>152</ele>
        <time>2024-01-30T14:16:15.673+00:00</time>
      </trkpt>
      <trkpt lat="49.22795" lon="0.99779">
        <ele>152</ele>
        <time>2024-01-30T14:16:19.842+00:00</time>
      </trkpt>
      <trkpt lat="49.22797" lon="0.99771">
        <ele>152</ele>
        <time>2024-01-30T14:16:23.892+00:00</time>
      </trkpt>
      <trkpt lat="49.22798" lon="0.99763">
        <ele>152</ele>
        <time>2024-01-30T14:16:28.061+00:00</time>
      </trkpt>
      <trkpt lat="49.228" lon="0.99756">
        <ele>152</ele>
        <time>2024-01-30T14:16:32.111+00:00</time>
      </trkpt>
      <trkpt lat="49.22801" lon="0.99748">
        <ele>152</ele>
        <time>2024-01-30T14:16:36.637+00:00</time>
      </trkpt>
      <trkpt lat="49.22798" lon="0.99737">
        <ele>152</ele>
        <time>2024-01-30T14:16:41.164+00:00</time>
      </trkpt>
      <trkpt lat="49.22796" lon="0.9973">
        <ele>152</ele>
        <time>2024-01-30T14:16:45.095+00:00</time>
      </trkpt>
      <trkpt lat="49.22797" lon="0.99722">
        <ele>152</ele>
        <time>2024-01-30T14:16:49.537+00:00</time>
      </trkpt>
      <trkpt lat="49.22799" lon="0.99714">
        <ele>152</ele>
        <time>2024-01-30T14:16:53.671+00:00</time>
      </trkpt>
      <trkpt lat="49.22801" lon="0.99707">
        <ele>153</ele>
        <time>2024-01-30T14:16:57.840+00:00</time>
      </trkpt>
      <trkpt lat="49.22804" lon="0.99699">
        <ele>153</ele>
        <time>2024-01-30T14:17:01.890+00:00</time>
      </trkpt>
      <trkpt lat="49.22807" lon="0.99692">
        <ele>153</ele>
        <time>2024-01-30T14:17:06.060+00:00</time>
      </trkpt>
      <trkpt lat="49.22809" lon="0.99684">
        <ele>153</ele>
        <time>2024-01-30T14:17:10.229+00:00</time>
      </trkpt>
      <trkpt lat="49.2281" lon="0.99678">
        <ele>154</ele>
        <time>2024-01-30T14:17:14.279+00:00</time>
      </trkpt>
      <trkpt lat="49.22809" lon="0.99671">
        <ele>154</ele>
        <time>2024-01-30T14:17:19.043+00:00</time>
      </trkpt>
      <trkpt lat="49.2281" lon="0.99665">
        <ele>154</ele>
        <time>2024-01-30T14:17:23.093+00:00</time>
      </trkpt>
      <trkpt lat="49.22811" lon="0.99656">
        <ele>154</ele>
        <time>2024-01-30T14:17:27.262+00:00</time>
      </trkpt>
      <trkpt lat="49.22812" lon="0.99648">
        <ele>154</ele>
        <time>2024-01-30T14:17:32.027+00:00</time>
      </trkpt>
      <trkpt lat="49.22813" lon="0.9964">
        <ele>154</ele>
        <time>2024-01-30T14:17:36.084+00:00</time>
      </trkpt>
      <trkpt lat="49.22812" lon="0.99632">
        <ele>154</ele>
        <time>2024-01-30T14:17:40.127+00:00</time>
      </trkpt>
      <trkpt lat="49.22811" lon="0.99625">
        <ele>154</ele>
        <time>2024-01-30T14:17:44.058+00:00</time>
      </trkpt>
      <trkpt lat="49.22812" lon="0.99618">
        <ele>154</ele>
        <time>2024-01-30T14:17:48.108+00:00</time>
      </trkpt>
      <trkpt lat="49.22812" lon="0.9961">
        <ele>154</ele>
        <time>2024-01-30T14:17:52.753+00:00</time>
      </trkpt>
      <trkpt lat="49.22813" lon="0.99601">
        <ele>154</ele>
        <time>2024-01-30T14:17:57.280+00:00</time>
      </trkpt>
      <trkpt lat="49.22812" lon="0.99593">
        <ele>154</ele>
        <time>2024-01-30T14:18:01.449+00:00</time>
      </trkpt>
      <trkpt lat="49.22812" lon="0.99583">
        <ele>154</ele>
        <time>2024-01-30T14:18:06.094+00:00</time>
      </trkpt>
      <trkpt lat="49.22812" lon="0.99574">
        <ele>154</ele>
        <time>2024-01-30T14:18:10.025+00:00</time>
      </trkpt>
      <trkpt lat="49.22812" lon="0.99567">
        <ele>154</ele>
        <time>2024-01-30T14:18:14.075+00:00</time>
      </trkpt>
      <trkpt lat="49.22813" lon="0.99559">
        <ele>154</ele>
        <time>2024-01-30T14:18:18.244+00:00</time>
      </trkpt>
      <trkpt lat="49.22813" lon="0.99551">
        <ele>154</ele>
        <time>2024-01-30T14:18:22.890+00:00</time>
      </trkpt>
      <trkpt lat="49.22813" lon="0.99542">
        <ele>154</ele>
        <time>2024-01-30T14:18:27.520+00:00</time>
      </trkpt>
      <trkpt lat="49.22815" lon="0.99534">
        <ele>154</ele>
        <time>2024-01-30T14:18:32.062+00:00</time>
      </trkpt>
      <trkpt lat="49.22817" lon="0.99526">
        <ele>154</ele>
        <time>2024-01-30T14:18:36.504+00:00</time>
      </trkpt>
      <trkpt lat="49.22818" lon="0.99518">
        <ele>154</ele>
        <time>2024-01-30T14:18:40.629+00:00</time>
      </trkpt>
      <trkpt lat="49.22818" lon="0.9951">
        <ele>155</ele>
        <time>2024-01-30T14:18:44.569+00:00</time>
      </trkpt>
      <trkpt lat="49.22821" lon="0.99503">
        <ele>154</ele>
        <time>2024-01-30T14:18:49.096+00:00</time>
      </trkpt>
      <trkpt lat="49.22822" lon="0.99495">
        <ele>154</ele>
        <time>2024-01-30T14:18:53.537+00:00</time>
      </trkpt>
      <trkpt lat="49.22823" lon="0.99472">
        <ele>155</ele>
        <time>2024-01-30T14:19:12.442+00:00</time>
      </trkpt>
      <trkpt lat="49.2283" lon="0.99471">
        <ele>155</ele>
        <time>2024-01-30T14:19:16.537+00:00</time>
      </trkpt>
      <trkpt lat="49.22835" lon="0.99467">
        <ele>155</ele>
        <time>2024-01-30T14:19:21.257+00:00</time>
      </trkpt>
      <trkpt lat="49.22839" lon="0.99464">
        <ele>155</ele>
        <time>2024-01-30T14:19:26.022+00:00</time>
      </trkpt>
      <trkpt lat="49.22843" lon="0.99459">
        <ele>155</ele>
        <time>2024-01-30T14:19:30.390+00:00</time>
      </trkpt>
      <trkpt lat="49.22847" lon="0.99454">
        <ele>156</ele>
        <time>2024-01-30T14:19:34.448+00:00</time>
      </trkpt>
      <trkpt lat="49.22851" lon="0.99451">
        <ele>156</ele>
        <time>2024-01-30T14:19:38.291+00:00</time>
      </trkpt>
      <trkpt lat="49.22855" lon="0.99447">
        <ele>156</ele>
        <time>2024-01-30T14:19:42.460+00:00</time>
      </trkpt>
      <trkpt lat="49.22859" lon="0.99441">
        <ele>156</ele>
        <time>2024-01-30T14:19:46.537+00:00</time>
      </trkpt>
      <trkpt lat="49.22863" lon="0.99436">
        <ele>156</ele>
        <time>2024-01-30T14:19:50.679+00:00</time>
      </trkpt>
      <trkpt lat="49.22867" lon="0.99432">
        <ele>156</ele>
        <time>2024-01-30T14:19:54.848+00:00</time>
      </trkpt>
      <trkpt lat="49.22871" lon="0.99426">
        <ele>157</ele>
        <time>2024-01-30T14:19:59.517+00:00</time>
      </trkpt>
      <trkpt lat="49.22877" lon="0.9942">
        <ele>156</ele>
        <time>2024-01-30T14:20:04.020+00:00</time>
      </trkpt>
      <trkpt lat="49.22882" lon="0.99412">
        <ele>156</ele>
        <time>2024-01-30T14:20:08.665+00:00</time>
      </trkpt>
      <trkpt lat="49.22886" lon="0.99405">
        <ele>156</ele>
        <time>2024-01-30T14:20:13.311+00:00</time>
      </trkpt>
      <trkpt lat="49.22887" lon="0.99397">
        <ele>157</ele>
        <time>2024-01-30T14:20:17.361+00:00</time>
      </trkpt>
      <trkpt lat="49.22887" lon="0.99388">
        <ele>157</ele>
        <time>2024-01-30T14:20:21.881+00:00</time>
      </trkpt>
      <trkpt lat="49.22886" lon="0.99379">
        <ele>157</ele>
        <time>2024-01-30T14:20:25.937+00:00</time>
      </trkpt>
      <trkpt lat="49.22888" lon="0.99372">
        <ele>157</ele>
        <time>2024-01-30T14:20:29.868+00:00</time>
      </trkpt>
      <trkpt lat="49.22889" lon="0.99364">
        <ele>157</ele>
        <time>2024-01-30T14:20:33.918+00:00</time>
      </trkpt>
      <trkpt lat="49.22889" lon="0.99356">
        <ele>157</ele>
        <time>2024-01-30T14:20:38.514+00:00</time>
      </trkpt>
      <trkpt lat="49.22888" lon="0.99349">
        <ele>157</ele>
        <time>2024-01-30T14:20:42.494+00:00</time>
      </trkpt>
      <trkpt lat="49.22887" lon="0.99342">
        <ele>157</ele>
        <time>2024-01-30T14:20:46.663+00:00</time>
      </trkpt>
      <trkpt lat="49.22888" lon="0.99335">
        <ele>157</ele>
        <time>2024-01-30T14:20:50.832+00:00</time>
      </trkpt>
      <trkpt lat="49.22889" lon="0.99327">
        <ele>157</ele>
        <time>2024-01-30T14:20:54.882+00:00</time>
      </trkpt>
      <trkpt lat="49.22892" lon="0.99321">
        <ele>157</ele>
        <time>2024-01-30T14:20:59.051+00:00</time>
      </trkpt>
      <trkpt lat="49.22894" lon="0.99319">
        <ele>157</ele>
        <time>2024-01-30T14:21:03.101+00:00</time>
      </trkpt>
      <trkpt lat="49.22896" lon="0.99314">
        <ele>157</ele>
        <time>2024-01-30T14:21:07.270+00:00</time>
      </trkpt>
      <trkpt lat="49.22899" lon="0.99311">
        <ele>157</ele>
        <time>2024-01-30T14:21:11.439+00:00</time>
      </trkpt>
      <trkpt lat="49.22904" lon="0.9931">
        <ele>157</ele>
        <time>2024-01-30T14:21:15.966+00:00</time>
      </trkpt>
      <trkpt lat="49.22909" lon="0.99311">
        <ele>157</ele>
        <time>2024-01-30T14:21:20.016+00:00</time>
      </trkpt>
      <trkpt lat="49.22914" lon="0.99311">
        <ele>157</ele>
        <time>2024-01-30T14:21:24.066+00:00</time>
      </trkpt>
      <trkpt lat="49.22919" lon="0.99312">
        <ele>157</ele>
        <time>2024-01-30T14:21:28.235+00:00</time>
      </trkpt>
      <trkpt lat="49.22924" lon="0.99313">
        <ele>157</ele>
        <time>2024-01-30T14:21:32.880+00:00</time>
      </trkpt>
      <trkpt lat="49.22929" lon="0.99314">
        <ele>157</ele>
        <time>2024-01-30T14:21:37.471+00:00</time>
      </trkpt>
      <trkpt lat="49.22935" lon="0.99315">
        <ele>158</ele>
        <time>2024-01-30T14:21:41.457+00:00</time>
      </trkpt>
      <trkpt lat="49.2294" lon="0.99317">
        <ele>158</ele>
        <time>2024-01-30T14:21:46.102+00:00</time>
      </trkpt>
      <trkpt lat="49.22945" lon="0.99317">
        <ele>158</ele>
        <time>2024-01-30T14:21:50.278+00:00</time>
      </trkpt>
      <trkpt lat="49.2295" lon="0.99319">
        <ele>158</ele>
        <time>2024-01-30T14:21:54.202+00:00</time>
      </trkpt>
      <trkpt lat="49.22955" lon="0.99321">
        <ele>158</ele>
        <time>2024-01-30T14:21:58.728+00:00</time>
      </trkpt>
      <trkpt lat="49.2296" lon="0.99323">
        <ele>158</ele>
        <time>2024-01-30T14:22:02.887+00:00</time>
      </trkpt>
      <trkpt lat="49.22965" lon="0.99325">
        <ele>158</ele>
        <time>2024-01-30T14:22:06.828+00:00</time>
      </trkpt>
      <trkpt lat="49.22969" lon="0.99326">
        <ele>158</ele>
        <time>2024-01-30T14:22:10.878+00:00</time>
      </trkpt>
      <trkpt lat="49.22975" lon="0.99328">
        <ele>158</ele>
        <time>2024-01-30T14:22:15.059+00:00</time>
      </trkpt>
      <trkpt lat="49.22978" lon="0.99328">
        <ele>158</ele>
        <time>2024-01-30T14:22:19.097+00:00</time>
      </trkpt>
      <trkpt lat="49.22983" lon="0.9933">
        <ele>158</ele>
        <time>2024-01-30T14:22:23.266+00:00</time>
      </trkpt>
      <trkpt lat="49.22988" lon="0.9933">
        <ele>158</ele>
        <time>2024-01-30T14:22:27.435+00:00</time>
      </trkpt>
      <trkpt lat="49.22992" lon="0.9933">
        <ele>158</ele>
        <time>2024-01-30T14:22:31.485+00:00</time>
      </trkpt>
      <trkpt lat="49.22996" lon="0.99333">
        <ele>158</ele>
        <time>2024-01-30T14:22:35.654+00:00</time>
      </trkpt>
      <trkpt lat="49.22998" lon="0.99338">
        <ele>158</ele>
        <time>2024-01-30T14:22:39.704+00:00</time>
      </trkpt>
      <trkpt lat="49.23005" lon="0.99337">
        <ele>158</ele>
        <time>2024-01-30T14:22:43.873+00:00</time>
      </trkpt>
      <trkpt lat="49.2301" lon="0.99332">
        <ele>158</ele>
        <time>2024-01-30T14:22:48.042+00:00</time>
      </trkpt>
      <trkpt lat="49.2301" lon="0.99324">
        <ele>158</ele>
        <time>2024-01-30T14:22:52.687+00:00</time>
      </trkpt>
      <trkpt lat="49.23006" lon="0.99319">
        <ele>158</ele>
        <time>2024-01-30T14:22:56.856+00:00</time>
      </trkpt>
      <trkpt lat="49.23001" lon="0.99317">
        <ele>158</ele>
        <time>2024-01-30T14:23:01.025+00:00</time>
      </trkpt>
      <trkpt lat="49.22998" lon="0.99311">
        <ele>158</ele>
        <time>2024-01-30T14:23:05.075+00:00</time>
      </trkpt>
      <trkpt lat="49.22996" lon="0.99308">
        <ele>158</ele>
        <time>2024-01-30T14:23:09.244+00:00</time>
      </trkpt>
      <trkpt lat="49.22993" lon="0.99301">
        <ele>158</ele>
        <time>2024-01-30T14:23:13.771+00:00</time>
      </trkpt>
      <trkpt lat="49.22991" lon="0.99292">
        <ele>157</ele>
        <time>2024-01-30T14:23:18.297+00:00</time>
      </trkpt>
      <trkpt lat="49.22988" lon="0.99285">
        <ele>157</ele>
        <time>2024-01-30T14:23:22.466+00:00</time>
      </trkpt>
      <trkpt lat="49.22985" lon="0.9928">
        <ele>158</ele>
        <time>2024-01-30T14:23:26.635+00:00</time>
      </trkpt>
      <trkpt lat="49.22981" lon="0.99273">
        <ele>158</ele>
        <time>2024-01-30T14:23:31.294+00:00</time>
      </trkpt>
      <trkpt lat="49.22977" lon="0.99267">
        <ele>158</ele>
        <time>2024-01-30T14:23:35.688+00:00</time>
      </trkpt>
      <trkpt lat="49.22975" lon="0.99261">
        <ele>158</ele>
        <time>2024-01-30T14:23:39.857+00:00</time>
      </trkpt>
      <trkpt lat="49.22971" lon="0.99255">
        <ele>158</ele>
        <time>2024-01-30T14:23:44.026+00:00</time>
      </trkpt>
      <trkpt lat="49.22967" lon="0.9925">
        <ele>158</ele>
        <time>2024-01-30T14:23:48.671+00:00</time>
      </trkpt>
      <trkpt lat="49.22964" lon="0.99242">
        <ele>158</ele>
        <time>2024-01-30T14:23:53.198+00:00</time>
      </trkpt>
      <trkpt lat="49.2296" lon="0.99234">
        <ele>158</ele>
        <time>2024-01-30T14:23:57.786+00:00</time>
      </trkpt>
      <trkpt lat="49.22956" lon="0.99227">
        <ele>157</ele>
        <time>2024-01-30T14:24:02.369+00:00</time>
      </trkpt>
      <trkpt lat="49.22952" lon="0.99222">
        <ele>157</ele>
        <time>2024-01-30T14:24:06.896+00:00</time>
      </trkpt>
      <trkpt lat="49.22948" lon="0.99217">
        <ele>157</ele>
        <time>2024-01-30T14:24:11.532+00:00</time>
      </trkpt>
      <trkpt lat="49.22944" lon="0.99211">
        <ele>157</ele>
        <time>2024-01-30T14:24:16.068+00:00</time>
      </trkpt>
      <trkpt lat="49.22941" lon="0.99204">
        <ele>157</ele>
        <time>2024-01-30T14:24:20.713+00:00</time>
      </trkpt>
      <trkpt lat="49.22938" lon="0.99197">
        <ele>157</ele>
        <time>2024-01-30T14:24:25.358+00:00</time>
      </trkpt>
      <trkpt lat="49.22934" lon="0.99191">
        <ele>157</ele>
        <time>2024-01-30T14:24:29.885+00:00</time>
      </trkpt>
      <trkpt lat="49.22931" lon="0.99182">
        <ele>157</ele>
        <time>2024-01-30T14:24:34.411+00:00</time>
      </trkpt>
      <trkpt lat="49.22934" lon="0.99174">
        <ele>157</ele>
        <time>2024-01-30T14:24:38.938+00:00</time>
      </trkpt>
      <trkpt lat="49.22937" lon="0.99165">
        <ele>157</ele>
        <time>2024-01-30T14:24:43.464+00:00</time>
      </trkpt>
      <trkpt lat="49.22942" lon="0.99161">
        <ele>157</ele>
        <time>2024-01-30T14:24:47.528+00:00</time>
      </trkpt>
      <trkpt lat="49.22946" lon="0.99157">
        <ele>157</ele>
        <time>2024-01-30T14:24:51.515+00:00</time>
      </trkpt>
      <trkpt lat="49.2295" lon="0.99151">
        <ele>157</ele>
        <time>2024-01-30T14:24:56.090+00:00</time>
      </trkpt>
      <trkpt lat="49.22953" lon="0.99145">
        <ele>157</ele>
        <time>2024-01-30T14:25:00.140+00:00</time>
      </trkpt>
      <trkpt lat="49.22956" lon="0.99138">
        <ele>157</ele>
        <time>2024-01-30T14:25:04.071+00:00</time>
      </trkpt>
      <trkpt lat="49.22959" lon="0.99129">
        <ele>157</ele>
        <time>2024-01-30T14:25:08.716+00:00</time>
      </trkpt>
      <trkpt lat="49.22962" lon="0.99123">
        <ele>157</ele>
        <time>2024-01-30T14:25:12.869+00:00</time>
      </trkpt>
      <trkpt lat="49.22965" lon="0.99118">
        <ele>157</ele>
        <time>2024-01-30T14:25:16.697+00:00</time>
      </trkpt>
      <trkpt lat="49.22969" lon="0.99111">
        <ele>157</ele>
        <time>2024-01-30T14:25:21.456+00:00</time>
      </trkpt>
      <trkpt lat="49.22974" lon="0.99105">
        <ele>157</ele>
        <time>2024-01-30T14:25:25.988+00:00</time>
      </trkpt>
      <trkpt lat="49.22977" lon="0.99098">
        <ele>157</ele>
        <time>2024-01-30T14:25:30.619+00:00</time>
      </trkpt>
      <trkpt lat="49.2298" lon="0.99091">
        <ele>158</ele>
        <time>2024-01-30T14:25:35.041+00:00</time>
      </trkpt>
      <trkpt lat="49.22983" lon="0.99084">
        <ele>158</ele>
        <time>2024-01-30T14:25:39.686+00:00</time>
      </trkpt>
      <trkpt lat="49.22988" lon="0.99078">
        <ele>158</ele>
        <time>2024-01-30T14:25:44.331+00:00</time>
      </trkpt>
      <trkpt lat="49.22991" lon="0.99073">
        <ele>158</ele>
        <time>2024-01-30T14:25:48.457+00:00</time>
      </trkpt>
      <trkpt lat="49.22995" lon="0.99067">
        <ele>158</ele>
        <time>2024-01-30T14:25:52.431+00:00</time>
      </trkpt>
      <trkpt lat="49.22999" lon="0.99061">
        <ele>158</ele>
        <time>2024-01-30T14:25:56.958+00:00</time>
      </trkpt>
      <trkpt lat="49.23002" lon="0.99055">
        <ele>158</ele>
        <time>2024-01-30T14:26:01.484+00:00</time>
      </trkpt>
      <trkpt lat="49.23006" lon="0.99049">
        <ele>158</ele>
        <time>2024-01-30T14:26:06.129+00:00</time>
      </trkpt>
      <trkpt lat="49.23009" lon="0.99043">
        <ele>158</ele>
        <time>2024-01-30T14:26:10.894+00:00</time>
      </trkpt>
      <trkpt lat="49.23012" lon="0.99037">
        <ele>158</ele>
        <time>2024-01-30T14:26:15.420+00:00</time>
      </trkpt>
      <trkpt lat="49.23015" lon="0.99031">
        <ele>157</ele>
        <time>2024-01-30T14:26:20.066+00:00</time>
      </trkpt>
      <trkpt lat="49.23019" lon="0.99026">
        <ele>157</ele>
        <time>2024-01-30T14:26:24.235+00:00</time>
      </trkpt>
      <trkpt lat="49.23022" lon="0.99021">
        <ele>157</ele>
        <time>2024-01-30T14:26:28.880+00:00</time>
      </trkpt>
      <trkpt lat="49.23024" lon="0.99016">
        <ele>157</ele>
        <time>2024-01-30T14:26:33.049+00:00</time>
      </trkpt>
      <trkpt lat="49.23027" lon="0.99011">
        <ele>158</ele>
        <time>2024-01-30T14:26:37.099+00:00</time>
      </trkpt>
      <trkpt lat="49.23029" lon="0.99005">
        <ele>158</ele>
        <time>2024-01-30T14:26:41.729+00:00</time>
      </trkpt>
      <trkpt lat="49.23032" lon="0.98999">
        <ele>158</ele>
        <time>2024-01-30T14:26:45.914+00:00</time>
      </trkpt>
      <trkpt lat="49.23035" lon="0.98994">
        <ele>158</ele>
        <time>2024-01-30T14:26:50.083+00:00</time>
      </trkpt>
      <trkpt lat="49.2304" lon="0.98989">
        <ele>158</ele>
        <time>2024-01-30T14:26:54.842+00:00</time>
      </trkpt>
      <trkpt lat="49.23043" lon="0.98983">
        <ele>157</ele>
        <time>2024-01-30T14:26:59.016+00:00</time>
      </trkpt>
      <trkpt lat="49.23046" lon="0.98978">
        <ele>157</ele>
        <time>2024-01-30T14:27:03.066+00:00</time>
      </trkpt>
      <trkpt lat="49.23048" lon="0.98971">
        <ele>157</ele>
        <time>2024-01-30T14:27:07.235+00:00</time>
      </trkpt>
      <trkpt lat="49.23053" lon="0.98964">
        <ele>157</ele>
        <time>2024-01-30T14:27:11.881+00:00</time>
      </trkpt>
      <trkpt lat="49.23057" lon="0.98958">
        <ele>158</ele>
        <time>2024-01-30T14:27:16.050+00:00</time>
      </trkpt>
      <trkpt lat="49.2306" lon="0.98952">
        <ele>158</ele>
        <time>2024-01-30T14:27:20.100+00:00</time>
      </trkpt>
      <trkpt lat="49.23064" lon="0.98946">
        <ele>158</ele>
        <time>2024-01-30T14:27:24.269+00:00</time>
      </trkpt>
      <trkpt lat="49.23067" lon="0.9894">
        <ele>158</ele>
        <time>2024-01-30T14:27:28.438+00:00</time>
      </trkpt>
      <trkpt lat="49.23071" lon="0.98935">
        <ele>157</ele>
        <time>2024-01-30T14:27:33.083+00:00</time>
      </trkpt>
      <trkpt lat="49.23074" lon="0.98928">
        <ele>158</ele>
        <time>2024-01-30T14:27:37.537+00:00</time>
      </trkpt>
      <trkpt lat="49.23077" lon="0.98922">
        <ele>158</ele>
        <time>2024-01-30T14:27:41.659+00:00</time>
      </trkpt>
      <trkpt lat="49.23081" lon="0.98917">
        <ele>158</ele>
        <time>2024-01-30T14:27:45.828+00:00</time>
      </trkpt>
      <trkpt lat="49.23084" lon="0.9891">
        <ele>158</ele>
        <time>2024-01-30T14:27:50.474+00:00</time>
      </trkpt>
      <trkpt lat="49.23087" lon="0.98903">
        <ele>158</ele>
        <time>2024-01-30T14:27:54.480+00:00</time>
      </trkpt>
      <trkpt lat="49.23091" lon="0.98896">
        <ele>158</ele>
        <time>2024-01-30T14:27:59.050+00:00</time>
      </trkpt>
      <trkpt lat="49.23095" lon="0.9889">
        <ele>158</ele>
        <time>2024-01-30T14:28:03.537+00:00</time>
      </trkpt>
      <trkpt lat="49.23099" lon="0.98885">
        <ele>158</ele>
        <time>2024-01-30T14:28:07.537+00:00</time>
      </trkpt>
      <trkpt lat="49.23103" lon="0.9888">
        <ele>158</ele>
        <time>2024-01-30T14:28:11.676+00:00</time>
      </trkpt>
      <trkpt lat="49.23107" lon="0.98874">
        <ele>158</ele>
        <time>2024-01-30T14:28:15.726+00:00</time>
      </trkpt>
      <trkpt lat="49.23111" lon="0.98869">
        <ele>158</ele>
        <time>2024-01-30T14:28:19.845+00:00</time>
      </trkpt>
      <trkpt lat="49.23113" lon="0.98863">
        <ele>158</ele>
        <time>2024-01-30T14:28:23.826+00:00</time>
      </trkpt>
      <trkpt lat="49.23117" lon="0.98857">
        <ele>158</ele>
        <time>2024-01-30T14:28:28.352+00:00</time>
      </trkpt>
      <trkpt lat="49.2312" lon="0.98852">
        <ele>158</ele>
        <time>2024-01-30T14:28:32.402+00:00</time>
      </trkpt>
      <trkpt lat="49.23124" lon="0.98846">
        <ele>157</ele>
        <time>2024-01-30T14:28:36.452+00:00</time>
      </trkpt>
      <trkpt lat="49.23128" lon="0.98841">
        <ele>157</ele>
        <time>2024-01-30T14:28:40.537+00:00</time>
      </trkpt>
      <trkpt lat="49.23132" lon="0.98835">
        <ele>157</ele>
        <time>2024-01-30T14:28:44.671+00:00</time>
      </trkpt>
      <trkpt lat="49.23134" lon="0.98828">
        <ele>157</ele>
        <time>2024-01-30T14:28:48.840+00:00</time>
      </trkpt>
      <trkpt lat="49.23137" lon="0.98823">
        <ele>157</ele>
        <time>2024-01-30T14:28:52.890+00:00</time>
      </trkpt>
      <trkpt lat="49.2314" lon="0.98816">
        <ele>156</ele>
        <time>2024-01-30T14:28:57.654+00:00</time>
      </trkpt>
      <trkpt lat="49.23142" lon="0.9881">
        <ele>156</ele>
        <time>2024-01-30T14:29:01.704+00:00</time>
      </trkpt>
      <trkpt lat="49.23145" lon="0.98804">
        <ele>156</ele>
        <time>2024-01-30T14:29:05.754+00:00</time>
      </trkpt>
      <trkpt lat="49.23148" lon="0.988">
        <ele>156</ele>
        <time>2024-01-30T14:29:09.685+00:00</time>
      </trkpt>
      <trkpt lat="49.2315" lon="0.98795">
        <ele>156</ele>
        <time>2024-01-30T14:29:13.854+00:00</time>
      </trkpt>
      <trkpt lat="49.23152" lon="0.98789">
        <ele>156</ele>
        <time>2024-01-30T14:29:18.023+00:00</time>
      </trkpt>
      <trkpt lat="49.23155" lon="0.98784">
        <ele>155</ele>
        <time>2024-01-30T14:29:22.073+00:00</time>
      </trkpt>
      <trkpt lat="49.23158" lon="0.98778">
        <ele>155</ele>
        <time>2024-01-30T14:29:26.242+00:00</time>
      </trkpt>
      <trkpt lat="49.23162" lon="0.98773">
        <ele>155</ele>
        <time>2024-01-30T14:29:30.887+00:00</time>
      </trkpt>
      <trkpt lat="49.23166" lon="0.98767">
        <ele>155</ele>
        <time>2024-01-30T14:29:35.500+00:00</time>
      </trkpt>
      <trkpt lat="49.23171" lon="0.98761">
        <ele>156</ele>
        <time>2024-01-30T14:29:40.059+00:00</time>
      </trkpt>
      <trkpt lat="49.23173" lon="0.98755">
        <ele>156</ele>
        <time>2024-01-30T14:29:44.109+00:00</time>
      </trkpt>
      <trkpt lat="49.23177" lon="0.98749">
        <ele>156</ele>
        <time>2024-01-30T14:29:48.278+00:00</time>
      </trkpt>
      <trkpt lat="49.2318" lon="0.98743">
        <ele>156</ele>
        <time>2024-01-30T14:29:52.447+00:00</time>
      </trkpt>
      <trkpt lat="49.23184" lon="0.98738">
        <ele>154</ele>
        <time>2024-01-30T14:29:56.537+00:00</time>
      </trkpt>
      <trkpt lat="49.23187" lon="0.98733">
        <ele>154</ele>
        <time>2024-01-30T14:30:00.666+00:00</time>
      </trkpt>
      <trkpt lat="49.23192" lon="0.98727">
        <ele>154</ele>
        <time>2024-01-30T14:30:05.311+00:00</time>
      </trkpt>
      <trkpt lat="49.23195" lon="0.9872">
        <ele>154</ele>
        <time>2024-01-30T14:30:09.480+00:00</time>
      </trkpt>
      <trkpt lat="49.23198" lon="0.98716">
        <ele>154</ele>
        <time>2024-01-30T14:30:13.512+00:00</time>
      </trkpt>
      <trkpt lat="49.23203" lon="0.9871">
        <ele>154</ele>
        <time>2024-01-30T14:30:18.065+00:00</time>
      </trkpt>
      <trkpt lat="49.23208" lon="0.98706">
        <ele>155</ele>
        <time>2024-01-30T14:30:22.527+00:00</time>
      </trkpt>
      <trkpt lat="49.23212" lon="0.98701">
        <ele>153</ele>
        <time>2024-01-30T14:30:27.109+00:00</time>
      </trkpt>
      <trkpt lat="49.23216" lon="0.98696">
        <ele>153</ele>
        <time>2024-01-30T14:30:31.040+00:00</time>
      </trkpt>
      <trkpt lat="49.23219" lon="0.98691">
        <ele>153</ele>
        <time>2024-01-30T14:30:35.651+00:00</time>
      </trkpt>
      <trkpt lat="49.23222" lon="0.98687">
        <ele>153</ele>
        <time>2024-01-30T14:30:39.537+00:00</time>
      </trkpt>
      <trkpt lat="49.23226" lon="0.98682">
        <ele>153</ele>
        <time>2024-01-30T14:30:43.666+00:00</time>
      </trkpt>
      <trkpt lat="49.2323" lon="0.98678">
        <ele>152</ele>
        <time>2024-01-30T14:30:47.848+00:00</time>
      </trkpt>
      <trkpt lat="49.23234" lon="0.98673">
        <ele>152</ele>
        <time>2024-01-30T14:30:52.243+00:00</time>
      </trkpt>
      <trkpt lat="49.23238" lon="0.98669">
        <ele>152</ele>
        <time>2024-01-30T14:30:56.292+00:00</time>
      </trkpt>
      <trkpt lat="49.23243" lon="0.98664">
        <ele>152</ele>
        <time>2024-01-30T14:31:00.938+00:00</time>
      </trkpt>
      <trkpt lat="49.23248" lon="0.9866">
        <ele>152</ele>
        <time>2024-01-30T14:31:04.869+00:00</time>
      </trkpt>
      <trkpt lat="49.23251" lon="0.98655">
        <ele>152</ele>
        <time>2024-01-30T14:31:09.038+00:00</time>
      </trkpt>
      <trkpt lat="49.23255" lon="0.98649">
        <ele>152</ele>
        <time>2024-01-30T14:31:13.088+00:00</time>
      </trkpt>
      <trkpt lat="49.23259" lon="0.98645">
        <ele>152</ele>
        <time>2024-01-30T14:31:17.018+00:00</time>
      </trkpt>
      <trkpt lat="49.23262" lon="0.9864">
        <ele>152</ele>
        <time>2024-01-30T14:31:21.068+00:00</time>
      </trkpt>
      <trkpt lat="49.23266" lon="0.98635">
        <ele>151</ele>
        <time>2024-01-30T14:31:25.237+00:00</time>
      </trkpt>
      <trkpt lat="49.23269" lon="0.98627">
        <ele>151</ele>
        <time>2024-01-30T14:31:29.764+00:00</time>
      </trkpt>
      <trkpt lat="49.23271" lon="0.9862">
        <ele>151</ele>
        <time>2024-01-30T14:31:34.290+00:00</time>
      </trkpt>
      <trkpt lat="49.23273" lon="0.98614">
        <ele>151</ele>
        <time>2024-01-30T14:31:38.459+00:00</time>
      </trkpt>
      <trkpt lat="49.23276" lon="0.98609">
        <ele>151</ele>
        <time>2024-01-30T14:31:42.537+00:00</time>
      </trkpt>
      <trkpt lat="49.2328" lon="0.98608">
        <ele>151</ele>
        <time>2024-01-30T14:31:46.678+00:00</time>
      </trkpt>
      <trkpt lat="49.23284" lon="0.98603">
        <ele>151</ele>
        <time>2024-01-30T14:31:51.323+00:00</time>
      </trkpt>
      <trkpt lat="49.23287" lon="0.98595">
        <ele>151</ele>
        <time>2024-01-30T14:31:56.088+00:00</time>
      </trkpt>
      <trkpt lat="49.23289" lon="0.98588">
        <ele>151</ele>
        <time>2024-01-30T14:32:00.257+00:00</time>
      </trkpt>
      <trkpt lat="49.23292" lon="0.9858">
        <ele>149</ele>
        <time>2024-01-30T14:32:04.903+00:00</time>
      </trkpt>
      <trkpt lat="49.23295" lon="0.98573">
        <ele>149</ele>
        <time>2024-01-30T14:32:09.072+00:00</time>
      </trkpt>
      <trkpt lat="49.23296" lon="0.98566">
        <ele>149</ele>
        <time>2024-01-30T14:32:13.241+00:00</time>
      </trkpt>
      <trkpt lat="49.23298" lon="0.98558">
        <ele>149</ele>
        <time>2024-01-30T14:32:17.886+00:00</time>
      </trkpt>
      <trkpt lat="49.23299" lon="0.98551">
        <ele>149</ele>
        <time>2024-01-30T14:32:22.293+00:00</time>
      </trkpt>
      <trkpt lat="49.233" lon="0.98547">
        <ele>149</ele>
        <time>2024-01-30T14:32:36.532+00:00</time>
      </trkpt>
      <trkpt lat="49.23301" lon="0.98539">
        <ele>150</ele>
        <time>2024-01-30T14:32:41.512+00:00</time>
      </trkpt>
      <trkpt lat="49.23302" lon="0.98532">
        <ele>150</ele>
        <time>2024-01-30T14:32:46.514+00:00</time>
      </trkpt>
      <trkpt lat="49.23304" lon="0.98524">
        <ele>150</ele>
        <time>2024-01-30T14:32:51.513+00:00</time>
      </trkpt>
      <trkpt lat="49.23306" lon="0.98515">
        <ele>150</ele>
        <time>2024-01-30T14:32:56.122+00:00</time>
      </trkpt>
      <trkpt lat="49.23307" lon="0.98509">
        <ele>151</ele>
        <time>2024-01-30T14:33:00.291+00:00</time>
      </trkpt>
      <trkpt lat="49.23308" lon="0.98501">
        <ele>151</ele>
        <time>2024-01-30T14:33:04.936+00:00</time>
      </trkpt>
      <trkpt lat="49.23311" lon="0.98496">
        <ele>151</ele>
        <time>2024-01-30T14:33:09.105+00:00</time>
      </trkpt>
      <trkpt lat="49.23312" lon="0.9849">
        <ele>151</ele>
        <time>2024-01-30T14:33:13.274+00:00</time>
      </trkpt>
      <trkpt lat="49.23312" lon="0.98484">
        <ele>151</ele>
        <time>2024-01-30T14:33:17.443+00:00</time>
      </trkpt>
      <trkpt lat="49.23313" lon="0.98476">
        <ele>151</ele>
        <time>2024-01-30T14:33:21.970+00:00</time>
      </trkpt>
      <trkpt lat="49.23313" lon="0.98469">
        <ele>151</ele>
        <time>2024-01-30T14:33:26.496+00:00</time>
      </trkpt>
      <trkpt lat="49.23315" lon="0.98463">
        <ele>151</ele>
        <time>2024-01-30T14:33:30.665+00:00</time>
      </trkpt>
      <trkpt lat="49.23313" lon="0.98454">
        <ele>151</ele>
        <time>2024-01-30T14:34:00.682+00:00</time>
      </trkpt>
      <trkpt lat="49.23313" lon="0.98452">
        <ele>151</ele>
        <time>2024-01-30T14:34:05.446+00:00</time>
      </trkpt>
      <trkpt lat="49.23312" lon="0.98449">
        <ele>151</ele>
        <time>2024-01-30T14:34:09.537+00:00</time>
      </trkpt>
      <trkpt lat="49.23312" lon="0.98446">
        <ele>151</ele>
        <time>2024-01-30T14:34:13.665+00:00</time>
      </trkpt>
      <trkpt lat="49.23311" lon="0.98442">
        <ele>151</ele>
        <time>2024-01-30T14:34:18.430+00:00</time>
      </trkpt>
      <trkpt lat="49.23308" lon="0.98441">
        <ele>151</ele>
        <time>2024-01-30T14:37:17.523+00:00</time>
      </trkpt>
      <trkpt lat="49.23308" lon="0.98441">
        <ele>151</ele>
        <time>2024-01-30T14:37:27.509+00:00</time>
      </trkpt>
      <trkpt lat="49.23308" lon="0.98441">
        <ele>151</ele>
        <time>2024-01-30T14:37:32.521+00:00</time>
      </trkpt>
      <trkpt lat="49.23307" lon="0.98439">
        <ele>151</ele>
        <time>2024-01-30T14:37:37.513+00:00</time>
      </trkpt>
      <trkpt lat="49.23302" lon="0.98436">
        <ele>151</ele>
        <time>2024-01-30T14:37:42.526+00:00</time>
      </trkpt>
      <trkpt lat="49.23299" lon="0.9843">
        <ele>150</ele>
        <time>2024-01-30T14:37:47.519+00:00</time>
      </trkpt>
      <trkpt lat="49.23295" lon="0.98428">
        <ele>150</ele>
        <time>2024-01-30T14:37:51.764+00:00</time>
      </trkpt>
      <trkpt lat="49.2329" lon="0.98425">
        <ele>152</ele>
        <time>2024-01-30T14:37:55.695+00:00</time>
      </trkpt>
      <trkpt lat="49.23284" lon="0.98421">
        <ele>152</ele>
        <time>2024-01-30T14:38:00.340+00:00</time>
      </trkpt>
      <trkpt lat="49.23279" lon="0.9842">
        <ele>152</ele>
        <time>2024-01-30T14:38:04.867+00:00</time>
      </trkpt>
      <trkpt lat="49.23275" lon="0.98419">
        <ele>152</ele>
        <time>2024-01-30T14:38:08.916+00:00</time>
      </trkpt>
      <trkpt lat="49.2327" lon="0.98415">
        <ele>152</ele>
        <time>2024-01-30T14:38:13.085+00:00</time>
      </trkpt>
      <trkpt lat="49.23267" lon="0.9841">
        <ele>152</ele>
        <time>2024-01-30T14:38:17.016+00:00</time>
      </trkpt>
      <trkpt lat="49.23265" lon="0.98402">
        <ele>151</ele>
        <time>2024-01-30T14:38:21.665+00:00</time>
      </trkpt>
      <trkpt lat="49.23265" lon="0.98393">
        <ele>151</ele>
        <time>2024-01-30T14:38:25.712+00:00</time>
      </trkpt>
      <trkpt lat="49.23265" lon="0.98385">
        <ele>151</ele>
        <time>2024-01-30T14:38:30.238+00:00</time>
      </trkpt>
      <trkpt lat="49.23266" lon="0.98376">
        <ele>151</ele>
        <time>2024-01-30T14:38:34.764+00:00</time>
      </trkpt>
      <trkpt lat="49.23265" lon="0.98365">
        <ele>151</ele>
        <time>2024-01-30T14:38:39.164+00:00</time>
      </trkpt>
      <trkpt lat="49.23264" lon="0.98354">
        <ele>151</ele>
        <time>2024-01-30T14:38:43.579+00:00</time>
      </trkpt>
      <trkpt lat="49.23264" lon="0.98345">
        <ele>151</ele>
        <time>2024-01-30T14:38:47.986+00:00</time>
      </trkpt>
      <trkpt lat="49.23263" lon="0.98336">
        <ele>151</ele>
        <time>2024-01-30T14:38:52.521+00:00</time>
      </trkpt>
      <trkpt lat="49.23263" lon="0.98327">
        <ele>151</ele>
        <time>2024-01-30T14:38:56.920+00:00</time>
      </trkpt>
      <trkpt lat="49.23263" lon="0.98318">
        <ele>151</ele>
        <time>2024-01-30T14:39:01.368+00:00</time>
      </trkpt>
      <trkpt lat="49.23263" lon="0.9831">
        <ele>151</ele>
        <time>2024-01-30T14:39:05.496+00:00</time>
      </trkpt>
      <trkpt lat="49.23263" lon="0.98295">
        <ele>151</ele>
        <time>2024-01-30T14:39:10.022+00:00</time>
      </trkpt>
      <trkpt lat="49.23263" lon="0.98283">
        <ele>152</ele>
        <time>2024-01-30T14:39:14.526+00:00</time>
      </trkpt>
      <trkpt lat="49.23262" lon="0.98275">
        <ele>152</ele>
        <time>2024-01-30T14:39:18.718+00:00</time>
      </trkpt>
      <trkpt lat="49.23261" lon="0.98265">
        <ele>152</ele>
        <time>2024-01-30T14:39:23.244+00:00</time>
      </trkpt>
      <trkpt lat="49.23261" lon="0.98257">
        <ele>151</ele>
        <time>2024-01-30T14:39:27.651+00:00</time>
      </trkpt>
      <trkpt lat="49.23261" lon="0.98252">
        <ele>151</ele>
        <time>2024-01-30T14:39:31.701+00:00</time>
      </trkpt>
      <trkpt lat="49.2326" lon="0.98244">
        <ele>151</ele>
        <time>2024-01-30T14:39:36.482+00:00</time>
      </trkpt>
      <trkpt lat="49.2326" lon="0.98237">
        <ele>151</ele>
        <time>2024-01-30T14:39:40.635+00:00</time>
      </trkpt>
      <trkpt lat="49.23259" lon="0.98228">
        <ele>151</ele>
        <time>2024-01-30T14:39:45.161+00:00</time>
      </trkpt>
      <trkpt lat="49.23258" lon="0.9822">
        <ele>151</ele>
        <time>2024-01-30T14:39:49.654+00:00</time>
      </trkpt>
      <trkpt lat="49.23257" lon="0.98211">
        <ele>151</ele>
        <time>2024-01-30T14:39:54.106+00:00</time>
      </trkpt>
      <trkpt lat="49.23255" lon="0.98206">
        <ele>151</ele>
        <time>2024-01-30T14:39:58.264+00:00</time>
      </trkpt>
      <trkpt lat="49.23252" lon="0.98199">
        <ele>151</ele>
        <time>2024-01-30T14:40:02.314+00:00</time>
      </trkpt>
      <trkpt lat="49.23251" lon="0.9819">
        <ele>151</ele>
        <time>2024-01-30T14:40:06.840+00:00</time>
      </trkpt>
      <trkpt lat="49.23249" lon="0.98181">
        <ele>151</ele>
        <time>2024-01-30T14:40:11.486+00:00</time>
      </trkpt>
      <trkpt lat="49.23247" lon="0.98171">
        <ele>152</ele>
        <time>2024-01-30T14:40:16.012+00:00</time>
      </trkpt>
      <trkpt lat="49.23246" lon="0.98163">
        <ele>152</ele>
        <time>2024-01-30T14:40:20.420+00:00</time>
      </trkpt>
      <trkpt lat="49.23245" lon="0.98156">
        <ele>152</ele>
        <time>2024-01-30T14:40:24.827+00:00</time>
      </trkpt>
      <trkpt lat="49.23244" lon="0.98147">
        <ele>152</ele>
        <time>2024-01-30T14:40:29.353+00:00</time>
      </trkpt>
      <trkpt lat="49.23242" lon="0.98139">
        <ele>152</ele>
        <time>2024-01-30T14:40:33.880+00:00</time>
      </trkpt>
      <trkpt lat="49.23241" lon="0.98131">
        <ele>152</ele>
        <time>2024-01-30T14:40:38.287+00:00</time>
      </trkpt>
      <trkpt lat="49.23239" lon="0.98122">
        <ele>152</ele>
        <time>2024-01-30T14:40:43.029+00:00</time>
      </trkpt>
      <trkpt lat="49.23238" lon="0.98113">
        <ele>152</ele>
        <time>2024-01-30T14:40:47.459+00:00</time>
      </trkpt>
      <trkpt lat="49.23237" lon="0.98104">
        <ele>152</ele>
        <time>2024-01-30T14:40:52.104+00:00</time>
      </trkpt>
      <trkpt lat="49.23237" lon="0.98098">
        <ele>152</ele>
        <time>2024-01-30T14:40:56.035+00:00</time>
      </trkpt>
      <trkpt lat="49.23235" lon="0.9809">
        <ele>152</ele>
        <time>2024-01-30T14:41:01.038+00:00</time>
      </trkpt>
      <trkpt lat="49.23233" lon="0.98081">
        <ele>152</ele>
        <time>2024-01-30T14:41:05.532+00:00</time>
      </trkpt>
      <trkpt lat="49.23232" lon="0.98072">
        <ele>152</ele>
        <time>2024-01-30T14:41:10.091+00:00</time>
      </trkpt>
      <trkpt lat="49.23231" lon="0.98064">
        <ele>151</ele>
        <time>2024-01-30T14:41:14.141+00:00</time>
      </trkpt>
      <trkpt lat="49.23229" lon="0.98055">
        <ele>151</ele>
        <time>2024-01-30T14:41:18.906+00:00</time>
      </trkpt>
      <trkpt lat="49.23228" lon="0.98046">
        <ele>151</ele>
        <time>2024-01-30T14:41:23.509+00:00</time>
      </trkpt>
      <trkpt lat="49.23228" lon="0.98037">
        <ele>151</ele>
        <time>2024-01-30T14:41:27.958+00:00</time>
      </trkpt>
      <trkpt lat="49.23228" lon="0.98028">
        <ele>151</ele>
        <time>2024-01-30T14:41:32.485+00:00</time>
      </trkpt>
      <trkpt lat="49.23227" lon="0.9802">
        <ele>151</ele>
        <time>2024-01-30T14:41:37.011+00:00</time>
      </trkpt>
      <trkpt lat="49.23226" lon="0.98013">
        <ele>151</ele>
        <time>2024-01-30T14:41:41.511+00:00</time>
      </trkpt>
      <trkpt lat="49.23226" lon="0.98005">
        <ele>151</ele>
        <time>2024-01-30T14:41:45.945+00:00</time>
      </trkpt>
      <trkpt lat="49.23228" lon="0.98">
        <ele>151</ele>
        <time>2024-01-30T14:41:49.876+00:00</time>
      </trkpt>
      <trkpt lat="49.23227" lon="0.97989">
        <ele>151</ele>
        <time>2024-01-30T14:41:54.640+00:00</time>
      </trkpt>
      <trkpt lat="49.23224" lon="0.97979">
        <ele>151</ele>
        <time>2024-01-30T14:41:59.286+00:00</time>
      </trkpt>
      <trkpt lat="49.23225" lon="0.97971">
        <ele>151</ele>
        <time>2024-01-30T14:42:04.050+00:00</time>
      </trkpt>
      <trkpt lat="49.23227" lon="0.97964">
        <ele>151</ele>
        <time>2024-01-30T14:42:08.100+00:00</time>
      </trkpt>
      <trkpt lat="49.23232" lon="0.97958">
        <ele>151</ele>
        <time>2024-01-30T14:42:12.269+00:00</time>
      </trkpt>
      <trkpt lat="49.23235" lon="0.97952">
        <ele>151</ele>
        <time>2024-01-30T14:42:16.319+00:00</time>
      </trkpt>
      <trkpt lat="49.23239" lon="0.97948">
        <ele>152</ele>
        <time>2024-01-30T14:42:20.490+00:00</time>
      </trkpt>
      <trkpt lat="49.2324" lon="0.97944">
        <ele>152</ele>
        <time>2024-01-30T14:42:25.015+00:00</time>
      </trkpt>
      <trkpt lat="49.23244" lon="0.97939">
        <ele>152</ele>
        <time>2024-01-30T14:42:29.660+00:00</time>
      </trkpt>
      <trkpt lat="49.23248" lon="0.97933">
        <ele>152</ele>
        <time>2024-01-30T14:42:33.829+00:00</time>
      </trkpt>
      <trkpt lat="49.23252" lon="0.97925">
        <ele>152</ele>
        <time>2024-01-30T14:42:38.475+00:00</time>
      </trkpt>
      <trkpt lat="49.23255" lon="0.97918">
        <ele>152</ele>
        <time>2024-01-30T14:42:42.644+00:00</time>
      </trkpt>
      <trkpt lat="49.23258" lon="0.9791">
        <ele>152</ele>
        <time>2024-01-30T14:42:47.051+00:00</time>
      </trkpt>
      <trkpt lat="49.23261" lon="0.97904">
        <ele>152</ele>
        <time>2024-01-30T14:42:51.101+00:00</time>
      </trkpt>
      <trkpt lat="49.23265" lon="0.97896">
        <ele>153</ele>
        <time>2024-01-30T14:42:55.747+00:00</time>
      </trkpt>
      <trkpt lat="49.23268" lon="0.9789">
        <ele>153</ele>
        <time>2024-01-30T14:42:59.677+00:00</time>
      </trkpt>
      <trkpt lat="49.23272" lon="0.97882">
        <ele>153</ele>
        <time>2024-01-30T14:43:04.323+00:00</time>
      </trkpt>
      <trkpt lat="49.23275" lon="0.97874">
        <ele>152</ele>
        <time>2024-01-30T14:43:08.825+00:00</time>
      </trkpt>
      <trkpt lat="49.23277" lon="0.97867">
        <ele>152</ele>
        <time>2024-01-30T14:43:12.899+00:00</time>
      </trkpt>
      <trkpt lat="49.23279" lon="0.9786">
        <ele>152</ele>
        <time>2024-01-30T14:43:16.949+00:00</time>
      </trkpt>
      <trkpt lat="49.2328" lon="0.97852">
        <ele>152</ele>
        <time>2024-01-30T14:43:21.476+00:00</time>
      </trkpt>
      <trkpt lat="49.23282" lon="0.97844">
        <ele>152</ele>
        <time>2024-01-30T14:43:26.121+00:00</time>
      </trkpt>
      <trkpt lat="49.23285" lon="0.97837">
        <ele>152</ele>
        <time>2024-01-30T14:43:30.886+00:00</time>
      </trkpt>
      <trkpt lat="49.23289" lon="0.97832">
        <ele>152</ele>
        <time>2024-01-30T14:43:35.055+00:00</time>
      </trkpt>
      <trkpt lat="49.23292" lon="0.97826">
        <ele>151</ele>
        <time>2024-01-30T14:43:39.504+00:00</time>
      </trkpt>
      <trkpt lat="49.23295" lon="0.97821">
        <ele>151</ele>
        <time>2024-01-30T14:43:43.537+00:00</time>
      </trkpt>
      <trkpt lat="49.23298" lon="0.97817">
        <ele>151</ele>
        <time>2024-01-30T14:43:47.681+00:00</time>
      </trkpt>
      <trkpt lat="49.23302" lon="0.97813">
        <ele>151</ele>
        <time>2024-01-30T14:43:51.850+00:00</time>
      </trkpt>
      <trkpt lat="49.23304" lon="0.97807">
        <ele>151</ele>
        <time>2024-01-30T14:43:55.781+00:00</time>
      </trkpt>
      <trkpt lat="49.23307" lon="0.97798">
        <ele>151</ele>
        <time>2024-01-30T14:44:00.426+00:00</time>
      </trkpt>
      <trkpt lat="49.23309" lon="0.97791">
        <ele>151</ele>
        <time>2024-01-30T14:44:04.476+00:00</time>
      </trkpt>
      <trkpt lat="49.2331" lon="0.97782">
        <ele>151</ele>
        <time>2024-01-30T14:44:08.645+00:00</time>
      </trkpt>
      <trkpt lat="49.23312" lon="0.97774">
        <ele>151</ele>
        <time>2024-01-30T14:44:13.172+00:00</time>
      </trkpt>
      <trkpt lat="49.23313" lon="0.97766">
        <ele>151</ele>
        <time>2024-01-30T14:44:17.102+00:00</time>
      </trkpt>
      <trkpt lat="49.23315" lon="0.9776">
        <ele>151</ele>
        <time>2024-01-30T14:44:21.271+00:00</time>
      </trkpt>
      <trkpt lat="49.2332" lon="0.97756">
        <ele>150</ele>
        <time>2024-01-30T14:44:25.440+00:00</time>
      </trkpt>
      <trkpt lat="49.23325" lon="0.97753">
        <ele>150</ele>
        <time>2024-01-30T14:44:29.490+00:00</time>
      </trkpt>
      <trkpt lat="49.23331" lon="0.97751">
        <ele>150</ele>
        <time>2024-01-30T14:44:34.017+00:00</time>
      </trkpt>
      <trkpt lat="49.23335" lon="0.97749">
        <ele>150</ele>
        <time>2024-01-30T14:44:38.067+00:00</time>
      </trkpt>
      <trkpt lat="49.23341" lon="0.97748">
        <ele>150</ele>
        <time>2024-01-30T14:44:42.236+00:00</time>
      </trkpt>
      <trkpt lat="49.23345" lon="0.97748">
        <ele>150</ele>
        <time>2024-01-30T14:44:46.286+00:00</time>
      </trkpt>
      <trkpt lat="49.2335" lon="0.97748">
        <ele>150</ele>
        <time>2024-01-30T14:44:50.469+00:00</time>
      </trkpt>
      <trkpt lat="49.23354" lon="0.97748">
        <ele>150</ele>
        <time>2024-01-30T14:44:54.981+00:00</time>
      </trkpt>
      <trkpt lat="49.23359" lon="0.9775">
        <ele>150</ele>
        <time>2024-01-30T14:44:59.537+00:00</time>
      </trkpt>
      <trkpt lat="49.23364" lon="0.97751">
        <ele>150</ele>
        <time>2024-01-30T14:45:03.676+00:00</time>
      </trkpt>
      <trkpt lat="49.23369" lon="0.97749">
        <ele>150</ele>
        <time>2024-01-30T14:45:07.537+00:00</time>
      </trkpt>
      <trkpt lat="49.23375" lon="0.97746">
        <ele>150</ele>
        <time>2024-01-30T14:45:11.657+00:00</time>
      </trkpt>
      <trkpt lat="49.23381" lon="0.97744">
        <ele>150</ele>
        <time>2024-01-30T14:45:16.302+00:00</time>
      </trkpt>
      <trkpt lat="49.23386" lon="0.97741">
        <ele>150</ele>
        <time>2024-01-30T14:45:20.352+00:00</time>
      </trkpt>
      <trkpt lat="49.23391" lon="0.9774">
        <ele>150</ele>
        <time>2024-01-30T14:45:24.283+00:00</time>
      </trkpt>
      <trkpt lat="49.23396" lon="0.97736">
        <ele>149</ele>
        <time>2024-01-30T14:45:29.048+00:00</time>
      </trkpt>
      <trkpt lat="49.23399" lon="0.97731">
        <ele>149</ele>
        <time>2024-01-30T14:45:33.505+00:00</time>
      </trkpt>
      <trkpt lat="49.23403" lon="0.97725">
        <ele>146</ele>
        <time>2024-01-30T14:45:37.537+00:00</time>
      </trkpt>
      <trkpt lat="49.23406" lon="0.9772">
        <ele>146</ele>
        <time>2024-01-30T14:45:41.663+00:00</time>
      </trkpt>
      <trkpt lat="49.23408" lon="0.97713">
        <ele>146</ele>
        <time>2024-01-30T14:45:46.081+00:00</time>
      </trkpt>
      <trkpt lat="49.2341" lon="0.97706">
        <ele>143</ele>
        <time>2024-01-30T14:45:50.513+00:00</time>
      </trkpt>
      <trkpt lat="49.23413" lon="0.97699">
        <ele>143</ele>
        <time>2024-01-30T14:45:54.658+00:00</time>
      </trkpt>
      <trkpt lat="49.23418" lon="0.97694">
        <ele>143</ele>
        <time>2024-01-30T14:45:59.184+00:00</time>
      </trkpt>
      <trkpt lat="49.23419" lon="0.97688">
        <ele>143</ele>
        <time>2024-01-30T14:46:03.829+00:00</time>
      </trkpt>
      <trkpt lat="49.2342" lon="0.97682">
        <ele>143</ele>
        <time>2024-01-30T14:46:08.356+00:00</time>
      </trkpt>
      <trkpt lat="49.23423" lon="0.97675">
        <ele>141</ele>
        <time>2024-01-30T14:46:12.882+00:00</time>
      </trkpt>
      <trkpt lat="49.23428" lon="0.9767">
        <ele>141</ele>
        <time>2024-01-30T14:46:16.932+00:00</time>
      </trkpt>
      <trkpt lat="49.23432" lon="0.97665">
        <ele>138</ele>
        <time>2024-01-30T14:46:20.982+00:00</time>
      </trkpt>
      <trkpt lat="49.23436" lon="0.9766">
        <ele>138</ele>
        <time>2024-01-30T14:46:25.032+00:00</time>
      </trkpt>
      <trkpt lat="49.2344" lon="0.97655">
        <ele>138</ele>
        <time>2024-01-30T14:46:29.082+00:00</time>
      </trkpt>
      <trkpt lat="49.23444" lon="0.97649">
        <ele>137</ele>
        <time>2024-01-30T14:46:33.251+00:00</time>
      </trkpt>
      <trkpt lat="49.23448" lon="0.97645">
        <ele>137</ele>
        <time>2024-01-30T14:46:37.300+00:00</time>
      </trkpt>
      <trkpt lat="49.23452" lon="0.97641">
        <ele>137</ele>
        <time>2024-01-30T14:46:41.350+00:00</time>
      </trkpt>
      <trkpt lat="49.23456" lon="0.97637">
        <ele>137</ele>
        <time>2024-01-30T14:46:45.281+00:00</time>
      </trkpt>
      <trkpt lat="49.23461" lon="0.97635">
        <ele>136</ele>
        <time>2024-01-30T14:46:49.450+00:00</time>
      </trkpt>
      <trkpt lat="49.23466" lon="0.97632">
        <ele>136</ele>
        <time>2024-01-30T14:46:53.537+00:00</time>
      </trkpt>
      <trkpt lat="49.23471" lon="0.97627">
        <ele>136</ele>
        <time>2024-01-30T14:46:58.026+00:00</time>
      </trkpt>
      <trkpt lat="49.23474" lon="0.97624">
        <ele>136</ele>
        <time>2024-01-30T14:47:02.076+00:00</time>
      </trkpt>
      <trkpt lat="49.23478" lon="0.9762">
        <ele>136</ele>
        <time>2024-01-30T14:47:06.245+00:00</time>
      </trkpt>
      <trkpt lat="49.23481" lon="0.97618">
        <ele>136</ele>
        <time>2024-01-30T14:47:10.295+00:00</time>
      </trkpt>
      <trkpt lat="49.23484" lon="0.97614">
        <ele>136</ele>
        <time>2024-01-30T14:47:14.464+00:00</time>
      </trkpt>
      <trkpt lat="49.23489" lon="0.9761">
        <ele>133</ele>
        <time>2024-01-30T14:47:18.990+00:00</time>
      </trkpt>
      <trkpt lat="49.23493" lon="0.97608">
        <ele>133</ele>
        <time>2024-01-30T14:47:23.040+00:00</time>
      </trkpt>
      <trkpt lat="49.23498" lon="0.97606">
        <ele>133</ele>
        <time>2024-01-30T14:47:27.686+00:00</time>
      </trkpt>
      <trkpt lat="49.23502" lon="0.97605">
        <ele>133</ele>
        <time>2024-01-30T14:47:31.854+00:00</time>
      </trkpt>
      <trkpt lat="49.23506" lon="0.97603">
        <ele>133</ele>
        <time>2024-01-30T14:47:35.904+00:00</time>
      </trkpt>
      <trkpt lat="49.2351" lon="0.97601">
        <ele>133</ele>
        <time>2024-01-30T14:47:40.431+00:00</time>
      </trkpt>
      <trkpt lat="49.23513" lon="0.97596">
        <ele>132</ele>
        <time>2024-01-30T14:47:44.480+00:00</time>
      </trkpt>
      <trkpt lat="49.23516" lon="0.97594">
        <ele>127</ele>
        <time>2024-01-30T14:47:48.514+00:00</time>
      </trkpt>
      <trkpt lat="49.23521" lon="0.97592">
        <ele>127</ele>
        <time>2024-01-30T14:47:52.649+00:00</time>
      </trkpt>
      <trkpt lat="49.23525" lon="0.97591">
        <ele>127</ele>
        <time>2024-01-30T14:47:56.537+00:00</time>
      </trkpt>
      <trkpt lat="49.23531" lon="0.9759">
        <ele>127</ele>
        <time>2024-01-30T14:48:00.688+00:00</time>
      </trkpt>
      <trkpt lat="49.23537" lon="0.97588">
        <ele>127</ele>
        <time>2024-01-30T14:48:05.087+00:00</time>
      </trkpt>
      <trkpt lat="49.23544" lon="0.97586">
        <ele>126</ele>
        <time>2024-01-30T14:48:09.861+00:00</time>
      </trkpt>
      <trkpt lat="49.2355" lon="0.97585">
        <ele>126</ele>
        <time>2024-01-30T14:48:14.378+00:00</time>
      </trkpt>
      <trkpt lat="49.23556" lon="0.97584">
        <ele>126</ele>
        <time>2024-01-30T14:48:18.428+00:00</time>
      </trkpt>
      <trkpt lat="49.23562" lon="0.97582">
        <ele>126</ele>
        <time>2024-01-30T14:48:23.085+00:00</time>
      </trkpt>
      <trkpt lat="49.23568" lon="0.97581">
        <ele>126</ele>
        <time>2024-01-30T14:48:27.707+00:00</time>
      </trkpt>
      <trkpt lat="49.23574" lon="0.97578">
        <ele>126</ele>
        <time>2024-01-30T14:48:32.245+00:00</time>
      </trkpt>
      <trkpt lat="49.23579" lon="0.97576">
        <ele>126</ele>
        <time>2024-01-30T14:48:36.905+00:00</time>
      </trkpt>
      <trkpt lat="49.23585" lon="0.97574">
        <ele>126</ele>
        <time>2024-01-30T14:48:41.297+00:00</time>
      </trkpt>
      <trkpt lat="49.23589" lon="0.97572">
        <ele>126</ele>
        <time>2024-01-30T14:48:45.466+00:00</time>
      </trkpt>
      <trkpt lat="49.23595" lon="0.9757">
        <ele>126</ele>
        <time>2024-01-30T14:48:50.061+00:00</time>
      </trkpt>
      <trkpt lat="49.236" lon="0.97568">
        <ele>122</ele>
        <time>2024-01-30T14:48:54.043+00:00</time>
      </trkpt>
      <trkpt lat="49.23604" lon="0.97566">
        <ele>122</ele>
        <time>2024-01-30T14:48:58.092+00:00</time>
      </trkpt>
      <trkpt lat="49.2361" lon="0.97564">
        <ele>122</ele>
        <time>2024-01-30T14:49:02.261+00:00</time>
      </trkpt>
      <trkpt lat="49.23616" lon="0.97562">
        <ele>122</ele>
        <time>2024-01-30T14:49:06.902+00:00</time>
      </trkpt>
      <trkpt lat="49.23621" lon="0.9756">
        <ele>122</ele>
        <time>2024-01-30T14:49:11.433+00:00</time>
      </trkpt>
      <trkpt lat="49.23627" lon="0.97557">
        <ele>124</ele>
        <time>2024-01-30T14:49:15.483+00:00</time>
      </trkpt>
      <trkpt lat="49.23632" lon="0.97555">
        <ele>124</ele>
        <time>2024-01-30T14:49:20.107+00:00</time>
      </trkpt>
      <trkpt lat="49.23638" lon="0.97554">
        <ele>124</ele>
        <time>2024-01-30T14:49:24.059+00:00</time>
      </trkpt>
      <trkpt lat="49.23643" lon="0.97553">
        <ele>124</ele>
        <time>2024-01-30T14:49:28.109+00:00</time>
      </trkpt>
      <trkpt lat="49.23648" lon="0.97551">
        <ele>124</ele>
        <time>2024-01-30T14:49:32.159+00:00</time>
      </trkpt>
      <trkpt lat="49.23652" lon="0.97549">
        <ele>124</ele>
        <time>2024-01-30T14:49:36.090+00:00</time>
      </trkpt>
      <trkpt lat="49.23657" lon="0.97547">
        <ele>126</ele>
        <time>2024-01-30T14:49:40.259+00:00</time>
      </trkpt>
      <trkpt lat="49.23662" lon="0.97546">
        <ele>126</ele>
        <time>2024-01-30T14:49:44.428+00:00</time>
      </trkpt>
      <trkpt lat="49.23666" lon="0.97543">
        <ele>126</ele>
        <time>2024-01-30T14:49:48.477+00:00</time>
      </trkpt>
      <trkpt lat="49.23671" lon="0.9754">
        <ele>121</ele>
        <time>2024-01-30T14:49:52.646+00:00</time>
      </trkpt>
      <trkpt lat="49.23676" lon="0.97538">
        <ele>121</ele>
        <time>2024-01-30T14:49:56.708+00:00</time>
      </trkpt>
      <trkpt lat="49.23681" lon="0.97536">
        <ele>123</ele>
        <time>2024-01-30T14:50:00.537+00:00</time>
      </trkpt>
      <trkpt lat="49.23686" lon="0.97534">
        <ele>123</ele>
        <time>2024-01-30T14:50:04.677+00:00</time>
      </trkpt>
      <trkpt lat="49.23691" lon="0.97532">
        <ele>123</ele>
        <time>2024-01-30T14:50:08.846+00:00</time>
      </trkpt>
      <trkpt lat="49.23696" lon="0.9753">
        <ele>123</ele>
        <time>2024-01-30T14:50:12.896+00:00</time>
      </trkpt>
      <trkpt lat="49.237" lon="0.97526">
        <ele>123</ele>
        <time>2024-01-30T14:50:17.065+00:00</time>
      </trkpt>
      <trkpt lat="49.23705" lon="0.97523">
        <ele>123</ele>
        <time>2024-01-30T14:50:21.206+00:00</time>
      </trkpt>
      <trkpt lat="49.23709" lon="0.9752">
        <ele>128</ele>
        <time>2024-01-30T14:50:25.239+00:00</time>
      </trkpt>
      <trkpt lat="49.23714" lon="0.97517">
        <ele>128</ele>
        <time>2024-01-30T14:50:29.095+00:00</time>
      </trkpt>
      <trkpt lat="49.23719" lon="0.97514">
        <ele>128</ele>
        <time>2024-01-30T14:50:33.264+00:00</time>
      </trkpt>
      <trkpt lat="49.23724" lon="0.9751">
        <ele>122</ele>
        <time>2024-01-30T14:50:37.791+00:00</time>
      </trkpt>
      <trkpt lat="49.23729" lon="0.97508">
        <ele>122</ele>
        <time>2024-01-30T14:50:41.841+00:00</time>
      </trkpt>
      <trkpt lat="49.23735" lon="0.97503">
        <ele>122</ele>
        <time>2024-01-30T14:50:46.486+00:00</time>
      </trkpt>
      <trkpt lat="49.23741" lon="0.97498">
        <ele>127</ele>
        <time>2024-01-30T14:50:51.012+00:00</time>
      </trkpt>
      <trkpt lat="49.23745" lon="0.97493">
        <ele>127</ele>
        <time>2024-01-30T14:50:55.420+00:00</time>
      </trkpt>
      <trkpt lat="49.23748" lon="0.97487">
        <ele>127</ele>
        <time>2024-01-30T14:50:59.946+00:00</time>
      </trkpt>
      <trkpt lat="49.23752" lon="0.97482">
        <ele>122</ele>
        <time>2024-01-30T14:51:04.479+00:00</time>
      </trkpt>
      <trkpt lat="49.23756" lon="0.97478">
        <ele>122</ele>
        <time>2024-01-30T14:51:08.949+00:00</time>
      </trkpt>
      <trkpt lat="49.23759" lon="0.97474">
        <ele>122</ele>
        <time>2024-01-30T14:51:12.967+00:00</time>
      </trkpt>
      <trkpt lat="49.23764" lon="0.9747">
        <ele>122</ele>
        <time>2024-01-30T14:51:17.471+00:00</time>
      </trkpt>
      <trkpt lat="49.23766" lon="0.97462">
        <ele>129</ele>
        <time>2024-01-30T14:51:21.386+00:00</time>
      </trkpt>
      <trkpt lat="49.23767" lon="0.97456">
        <ele>124</ele>
        <time>2024-01-30T14:51:25.962+00:00</time>
      </trkpt>
      <trkpt lat="49.23772" lon="0.9745">
        <ele>124</ele>
        <time>2024-01-30T14:51:30.439+00:00</time>
      </trkpt>
      <trkpt lat="49.23776" lon="0.97443">
        <ele>124</ele>
        <time>2024-01-30T14:51:34.966+00:00</time>
      </trkpt>
      <trkpt lat="49.2378" lon="0.97436">
        <ele>124</ele>
        <time>2024-01-30T14:51:39.373+00:00</time>
      </trkpt>
      <trkpt lat="49.23783" lon="0.9743">
        <ele>120</ele>
        <time>2024-01-30T14:51:43.780+00:00</time>
      </trkpt>
      <trkpt lat="49.23787" lon="0.97424">
        <ele>120</ele>
        <time>2024-01-30T14:51:48.306+00:00</time>
      </trkpt>
      <trkpt lat="49.23791" lon="0.97417">
        <ele>120</ele>
        <time>2024-01-30T14:51:52.710+00:00</time>
      </trkpt>
      <trkpt lat="49.23792" lon="0.97412">
        <ele>124</ele>
        <time>2024-01-30T14:51:56.644+00:00</time>
      </trkpt>
      <trkpt lat="49.23796" lon="0.97407">
        <ele>124</ele>
        <time>2024-01-30T14:52:01.171+00:00</time>
      </trkpt>
      <trkpt lat="49.238" lon="0.97404">
        <ele>124</ele>
        <time>2024-01-30T14:52:05.101+00:00</time>
      </trkpt>
      <trkpt lat="49.23804" lon="0.97399">
        <ele>119</ele>
        <time>2024-01-30T14:52:09.866+00:00</time>
      </trkpt>
      <trkpt lat="49.23809" lon="0.97394">
        <ele>119</ele>
        <time>2024-01-30T14:52:14.035+00:00</time>
      </trkpt>
      <trkpt lat="49.23816" lon="0.97392">
        <ele>119</ele>
        <time>2024-01-30T14:52:19.038+00:00</time>
      </trkpt>
      <trkpt lat="49.23821" lon="0.97387">
        <ele>121</ele>
        <time>2024-01-30T14:52:23.662+00:00</time>
      </trkpt>
      <trkpt lat="49.23826" lon="0.97381">
        <ele>121</ele>
        <time>2024-01-30T14:52:28.090+00:00</time>
      </trkpt>
      <trkpt lat="49.23831" lon="0.97376">
        <ele>121</ele>
        <time>2024-01-30T14:52:32.537+00:00</time>
      </trkpt>
      <trkpt lat="49.23836" lon="0.97371">
        <ele>117</ele>
        <time>2024-01-30T14:52:37.143+00:00</time>
      </trkpt>
      <trkpt lat="49.2384" lon="0.97366">
        <ele>117</ele>
        <time>2024-01-30T14:52:41.669+00:00</time>
      </trkpt>
      <trkpt lat="49.23844" lon="0.97362">
        <ele>117</ele>
        <time>2024-01-30T14:52:46.301+00:00</time>
      </trkpt>
      <trkpt lat="49.2385" lon="0.97357">
        <ele>119</ele>
        <time>2024-01-30T14:52:50.841+00:00</time>
      </trkpt>
      <trkpt lat="49.23856" lon="0.97354">
        <ele>119</ele>
        <time>2024-01-30T14:52:55.367+00:00</time>
      </trkpt>
      <trkpt lat="49.23862" lon="0.9735">
        <ele>119</ele>
        <time>2024-01-30T14:52:59.893+00:00</time>
      </trkpt>
      <trkpt lat="49.2387" lon="0.97349">
        <ele>119</ele>
        <time>2024-01-30T14:53:04.539+00:00</time>
      </trkpt>
      <trkpt lat="49.23875" lon="0.97349">
        <ele>121</ele>
        <time>2024-01-30T14:53:09.065+00:00</time>
      </trkpt>
      <trkpt lat="49.2388" lon="0.97349">
        <ele>121</ele>
        <time>2024-01-30T14:53:13.222+00:00</time>
      </trkpt>
      <trkpt lat="49.23886" lon="0.97347">
        <ele>115</ele>
        <time>2024-01-30T14:53:17.765+00:00</time>
      </trkpt>
      <trkpt lat="49.23892" lon="0.97346">
        <ele>115</ele>
        <time>2024-01-30T14:53:22.287+00:00</time>
      </trkpt>
      <trkpt lat="49.23898" lon="0.97343">
        <ele>115</ele>
        <time>2024-01-30T14:53:26.883+00:00</time>
      </trkpt>
      <trkpt lat="49.23903" lon="0.97342">
        <ele>114</ele>
        <time>2024-01-30T14:53:30.863+00:00</time>
      </trkpt>
      <trkpt lat="49.23908" lon="0.9734">
        <ele>114</ele>
        <time>2024-01-30T14:53:35.389+00:00</time>
      </trkpt>
      <trkpt lat="49.23913" lon="0.97339">
        <ele>114</ele>
        <time>2024-01-30T14:53:39.915+00:00</time>
      </trkpt>
      <trkpt lat="49.23918" lon="0.97339">
        <ele>114</ele>
        <time>2024-01-30T14:53:44.656+00:00</time>
      </trkpt>
      <trkpt lat="49.23923" lon="0.97339">
        <ele>114</ele>
        <time>2024-01-30T14:53:49.087+00:00</time>
      </trkpt>
      <trkpt lat="49.23928" lon="0.97339">
        <ele>114</ele>
        <time>2024-01-30T14:53:53.256+00:00</time>
      </trkpt>
      <trkpt lat="49.23932" lon="0.97337">
        <ele>112</ele>
        <time>2024-01-30T14:53:57.425+00:00</time>
      </trkpt>
      <trkpt lat="49.23937" lon="0.97335">
        <ele>112</ele>
        <time>2024-01-30T14:54:01.474+00:00</time>
      </trkpt>
      <trkpt lat="49.23942" lon="0.97334">
        <ele>112</ele>
        <time>2024-01-30T14:54:05.503+00:00</time>
      </trkpt>
      <trkpt lat="49.23946" lon="0.97335">
        <ele>112</ele>
        <time>2024-01-30T14:54:09.514+00:00</time>
      </trkpt>
      <trkpt lat="49.23954" lon="0.9733">
        <ele>112</ele>
        <time>2024-01-30T14:54:26.964+00:00</time>
      </trkpt>
      <trkpt lat="49.23959" lon="0.97331">
        <ele>114</ele>
        <time>2024-01-30T14:54:30.895+00:00</time>
      </trkpt>
      <trkpt lat="49.23967" lon="0.9733">
        <ele>114</ele>
        <time>2024-01-30T14:54:35.633+00:00</time>
      </trkpt>
      <trkpt lat="49.23973" lon="0.97328">
        <ele>114</ele>
        <time>2024-01-30T14:54:40.067+00:00</time>
      </trkpt>
      <trkpt lat="49.23979" lon="0.97327">
        <ele>114</ele>
        <time>2024-01-30T14:54:44.116+00:00</time>
      </trkpt>
      <trkpt lat="49.23984" lon="0.97327">
        <ele>114</ele>
        <time>2024-01-30T14:54:48.643+00:00</time>
      </trkpt>
      <trkpt lat="49.23989" lon="0.97325">
        <ele>115</ele>
        <time>2024-01-30T14:54:53.288+00:00</time>
      </trkpt>
      <trkpt lat="49.23993" lon="0.97324">
        <ele>115</ele>
        <time>2024-01-30T14:54:57.338+00:00</time>
      </trkpt>
      <trkpt lat="49.23997" lon="0.97322">
        <ele>115</ele>
        <time>2024-01-30T14:55:01.846+00:00</time>
      </trkpt>
      <trkpt lat="49.24003" lon="0.97321">
        <ele>115</ele>
        <time>2024-01-30T14:55:06.033+00:00</time>
      </trkpt>
      <trkpt lat="49.24007" lon="0.97319">
        <ele>110</ele>
        <time>2024-01-30T14:55:10.083+00:00</time>
      </trkpt>
      <trkpt lat="49.24012" lon="0.97319">
        <ele>110</ele>
        <time>2024-01-30T14:55:14.252+00:00</time>
      </trkpt>
      <trkpt lat="49.24018" lon="0.97318">
        <ele>111</ele>
        <time>2024-01-30T14:55:18.900+00:00</time>
      </trkpt>
      <trkpt lat="49.24022" lon="0.97318">
        <ele>111</ele>
        <time>2024-01-30T14:55:22.828+00:00</time>
      </trkpt>
      <trkpt lat="49.24026" lon="0.97316">
        <ele>111</ele>
        <time>2024-01-30T14:55:26.878+00:00</time>
      </trkpt>
      <trkpt lat="49.2403" lon="0.97315">
        <ele>111</ele>
        <time>2024-01-30T14:55:31.514+00:00</time>
      </trkpt>
      <trkpt lat="49.24036" lon="0.97313">
        <ele>111</ele>
        <time>2024-01-30T14:55:36.049+00:00</time>
      </trkpt>
      <trkpt lat="49.24041" lon="0.97312">
        <ele>111</ele>
        <time>2024-01-30T14:55:40.108+00:00</time>
      </trkpt>
      <trkpt lat="49.24048" lon="0.9731">
        <ele>110</ele>
        <time>2024-01-30T14:55:44.537+00:00</time>
      </trkpt>
      <trkpt lat="49.24055" lon="0.97309">
        <ele>110</ele>
        <time>2024-01-30T14:55:48.688+00:00</time>
      </trkpt>
      <trkpt lat="49.24062" lon="0.97307">
        <ele>110</ele>
        <time>2024-01-30T14:55:52.537+00:00</time>
      </trkpt>
      <trkpt lat="49.24069" lon="0.97306">
        <ele>110</ele>
        <time>2024-01-30T14:55:57.187+00:00</time>
      </trkpt>
      <trkpt lat="49.24074" lon="0.97307">
        <ele>110</ele>
        <time>2024-01-30T14:56:01.182+00:00</time>
      </trkpt>
      <trkpt lat="49.24079" lon="0.97305">
        <ele>110</ele>
        <time>2024-01-30T14:56:05.708+00:00</time>
      </trkpt>
      <trkpt lat="49.24084" lon="0.97304">
        <ele>110</ele>
        <time>2024-01-30T14:56:10.243+00:00</time>
      </trkpt>
      <trkpt lat="49.2409" lon="0.97303">
        <ele>110</ele>
        <time>2024-01-30T14:56:14.266+00:00</time>
      </trkpt>
      <trkpt lat="49.24097" lon="0.973">
        <ele>110</ele>
        <time>2024-01-30T14:56:18.691+00:00</time>
      </trkpt>
      <trkpt lat="49.24103" lon="0.97298">
        <ele>111</ele>
        <time>2024-01-30T14:56:23.313+00:00</time>
      </trkpt>
      <trkpt lat="49.24109" lon="0.97297">
        <ele>111</ele>
        <time>2024-01-30T14:56:27.744+00:00</time>
      </trkpt>
      <trkpt lat="49.24114" lon="0.97296">
        <ele>111</ele>
        <time>2024-01-30T14:56:31.675+00:00</time>
      </trkpt>
      <trkpt lat="49.24119" lon="0.97292">
        <ele>111</ele>
        <time>2024-01-30T14:56:36.439+00:00</time>
      </trkpt>
      <trkpt lat="49.24121" lon="0.97286">
        <ele>106</ele>
        <time>2024-01-30T14:56:40.489+00:00</time>
      </trkpt>
      <trkpt lat="49.24123" lon="0.97279">
        <ele>106</ele>
        <time>2024-01-30T14:56:44.658+00:00</time>
      </trkpt>
      <trkpt lat="49.24125" lon="0.97273">
        <ele>106</ele>
        <time>2024-01-30T14:56:48.827+00:00</time>
      </trkpt>
      <trkpt lat="49.24127" lon="0.97266">
        <ele>106</ele>
        <time>2024-01-30T14:56:52.877+00:00</time>
      </trkpt>
      <trkpt lat="49.24129" lon="0.97258">
        <ele>102</ele>
        <time>2024-01-30T14:56:57.046+00:00</time>
      </trkpt>
      <trkpt lat="49.2413" lon="0.97251">
        <ele>102</ele>
        <time>2024-01-30T14:57:01.095+00:00</time>
      </trkpt>
      <trkpt lat="49.24135" lon="0.97245">
        <ele>102</ele>
        <time>2024-01-30T14:57:05.741+00:00</time>
      </trkpt>
      <trkpt lat="49.24139" lon="0.9724">
        <ele>102</ele>
        <time>2024-01-30T14:57:09.791+00:00</time>
      </trkpt>
      <trkpt lat="49.24143" lon="0.97234">
        <ele>100</ele>
        <time>2024-01-30T14:57:13.840+00:00</time>
      </trkpt>
      <trkpt lat="49.24146" lon="0.97229">
        <ele>100</ele>
        <time>2024-01-30T14:57:17.890+00:00</time>
      </trkpt>
      <trkpt lat="49.24147" lon="0.97223">
        <ele>100</ele>
        <time>2024-01-30T14:57:22.519+00:00</time>
      </trkpt>
      <trkpt lat="49.2415" lon="0.97217">
        <ele>100</ele>
        <time>2024-01-30T14:57:26.705+00:00</time>
      </trkpt>
      <trkpt lat="49.24151" lon="0.97211">
        <ele>100</ele>
        <time>2024-01-30T14:57:30.873+00:00</time>
      </trkpt>
      <trkpt lat="49.24154" lon="0.97205">
        <ele>99</ele>
        <time>2024-01-30T14:57:35.522+00:00</time>
      </trkpt>
      <trkpt lat="49.24156" lon="0.97199">
        <ele>99</ele>
        <time>2024-01-30T14:57:39.688+00:00</time>
      </trkpt>
      <trkpt lat="49.24158" lon="0.97191">
        <ele>99</ele>
        <time>2024-01-30T14:57:44.333+00:00</time>
      </trkpt>
      <trkpt lat="49.24161" lon="0.97185">
        <ele>99</ele>
        <time>2024-01-30T14:57:48.512+00:00</time>
      </trkpt>
      <trkpt lat="49.24163" lon="0.97179">
        <ele>98</ele>
        <time>2024-01-30T14:57:52.597+00:00</time>
      </trkpt>
      <trkpt lat="49.24165" lon="0.97172">
        <ele>98</ele>
        <time>2024-01-30T14:57:56.721+00:00</time>
      </trkpt>
      <trkpt lat="49.24168" lon="0.97166">
        <ele>98</ele>
        <time>2024-01-30T14:58:01.366+00:00</time>
      </trkpt>
      <trkpt lat="49.24172" lon="0.97162">
        <ele>98</ele>
        <time>2024-01-30T14:58:05.893+00:00</time>
      </trkpt>
      <trkpt lat="49.24175" lon="0.97158">
        <ele>98</ele>
        <time>2024-01-30T14:58:10.512+00:00</time>
      </trkpt>
      <trkpt lat="49.24178" lon="0.97153">
        <ele>98</ele>
        <time>2024-01-30T14:58:15.043+00:00</time>
      </trkpt>
      <trkpt lat="49.24181" lon="0.97148">
        <ele>98</ele>
        <time>2024-01-30T14:58:19.233+00:00</time>
      </trkpt>
      <trkpt lat="49.24183" lon="0.97144">
        <ele>98</ele>
        <time>2024-01-30T14:58:23.283+00:00</time>
      </trkpt>
      <trkpt lat="49.24183" lon="0.97139">
        <ele>98</ele>
        <time>2024-01-30T14:58:27.690+00:00</time>
      </trkpt>
      <trkpt lat="49.24183" lon="0.97136">
        <ele>98</ele>
        <time>2024-01-30T14:58:31.859+00:00</time>
      </trkpt>
      <trkpt lat="49.24184" lon="0.97131">
        <ele>98</ele>
        <time>2024-01-30T14:58:36.537+00:00</time>
      </trkpt>
      <trkpt lat="49.24184" lon="0.97126">
        <ele>98</ele>
        <time>2024-01-30T14:58:41.187+00:00</time>
      </trkpt>
      <trkpt lat="49.24185" lon="0.97123">
        <ele>100</ele>
        <time>2024-01-30T14:58:45.319+00:00</time>
      </trkpt>
      <trkpt lat="49.24186" lon="0.97119">
        <ele>100</ele>
        <time>2024-01-30T14:58:49.964+00:00</time>
      </trkpt>
      <trkpt lat="49.2419" lon="0.97124">
        <ele>100</ele>
        <time>2024-01-30T15:16:24.515+00:00</time>
      </trkpt>
      <trkpt lat="49.2419" lon="0.97124">
        <ele>100</ele>
        <time>2024-01-30T15:16:28.510+00:00</time>
      </trkpt>
      <trkpt lat="49.2419" lon="0.97124">
        <ele>100</ele>
        <time>2024-01-30T15:16:33.516+00:00</time>
      </trkpt>
      <trkpt lat="49.24193" lon="0.97122">
        <ele>100</ele>
        <time>2024-01-30T15:16:38.529+00:00</time>
      </trkpt>
      <trkpt lat="49.24197" lon="0.97121">
        <ele>100</ele>
        <time>2024-01-30T15:16:42.080+00:00</time>
      </trkpt>
      <trkpt lat="49.24198" lon="0.9712">
        <ele>100</ele>
        <time>2024-01-30T15:17:01.532+00:00</time>
      </trkpt>
      <trkpt lat="49.24199" lon="0.9712">
        <ele>100</ele>
        <time>2024-01-30T15:17:06.511+00:00</time>
      </trkpt>
      <trkpt lat="49.24202" lon="0.97118">
        <ele>100</ele>
        <time>2024-01-30T15:17:11.026+00:00</time>
      </trkpt>
      <trkpt lat="49.24206" lon="0.97116">
        <ele>100</ele>
        <time>2024-01-30T15:17:15.074+00:00</time>
      </trkpt>
      <trkpt lat="49.2421" lon="0.97116">
        <ele>99</ele>
        <time>2024-01-30T15:17:19.124+00:00</time>
      </trkpt>
      <trkpt lat="49.24214" lon="0.97114">
        <ele>99</ele>
        <time>2024-01-30T15:17:23.293+00:00</time>
      </trkpt>
      <trkpt lat="49.24218" lon="0.97114">
        <ele>99</ele>
        <time>2024-01-30T15:17:27.461+00:00</time>
      </trkpt>
      <trkpt lat="49.24222" lon="0.97114">
        <ele>99</ele>
        <time>2024-01-30T15:17:32.107+00:00</time>
      </trkpt>
      <trkpt lat="49.24226" lon="0.97113">
        <ele>99</ele>
        <time>2024-01-30T15:17:36.276+00:00</time>
      </trkpt>
      <trkpt lat="49.2423" lon="0.97111">
        <ele>99</ele>
        <time>2024-01-30T15:17:40.325+00:00</time>
      </trkpt>
      <trkpt lat="49.24234" lon="0.97109">
        <ele>99</ele>
        <time>2024-01-30T15:17:44.494+00:00</time>
      </trkpt>
      <trkpt lat="49.24239" lon="0.97107">
        <ele>97</ele>
        <time>2024-01-30T15:17:49.020+00:00</time>
      </trkpt>
      <trkpt lat="49.24244" lon="0.97105">
        <ele>97</ele>
        <time>2024-01-30T15:17:53.070+00:00</time>
      </trkpt>
      <trkpt lat="49.24247" lon="0.97101">
        <ele>97</ele>
        <time>2024-01-30T15:17:57.231+00:00</time>
      </trkpt>
      <trkpt lat="49.2425" lon="0.97097">
        <ele>99</ele>
        <time>2024-01-30T15:18:01.289+00:00</time>
      </trkpt>
      <trkpt lat="49.24253" lon="0.97094">
        <ele>99</ele>
        <time>2024-01-30T15:18:05.339+00:00</time>
      </trkpt>
      <trkpt lat="49.24256" lon="0.97091">
        <ele>99</ele>
        <time>2024-01-30T15:18:09.746+00:00</time>
      </trkpt>
      <trkpt lat="49.24259" lon="0.97088">
        <ele>99</ele>
        <time>2024-01-30T15:18:13.915+00:00</time>
      </trkpt>
      <trkpt lat="49.24263" lon="0.97087">
        <ele>99</ele>
        <time>2024-01-30T15:18:18.084+00:00</time>
      </trkpt>
      <trkpt lat="49.24268" lon="0.97085">
        <ele>98</ele>
        <time>2024-01-30T15:18:22.253+00:00</time>
      </trkpt>
      <trkpt lat="49.24273" lon="0.97084">
        <ele>98</ele>
        <time>2024-01-30T15:18:27.017+00:00</time>
      </trkpt>
      <trkpt lat="49.24278" lon="0.97084">
        <ele>98</ele>
        <time>2024-01-30T15:18:31.525+00:00</time>
      </trkpt>
      <trkpt lat="49.24283" lon="0.97084">
        <ele>98</ele>
        <time>2024-01-30T15:18:35.712+00:00</time>
      </trkpt>
      <trkpt lat="49.24288" lon="0.97084">
        <ele>98</ele>
        <time>2024-01-30T15:18:39.881+00:00</time>
      </trkpt>
      <trkpt lat="49.24292" lon="0.97084">
        <ele>98</ele>
        <time>2024-01-30T15:18:44.050+00:00</time>
      </trkpt>
      <trkpt lat="49.24289" lon="0.97082">
        <ele>98</ele>
        <time>2024-01-30T15:18:53.460+00:00</time>
      </trkpt>
      <trkpt lat="49.24289" lon="0.97082">
        <ele>98</ele>
        <time>2024-01-30T15:18:57.537+00:00</time>
      </trkpt>
      <trkpt lat="49.24292" lon="0.97083">
        <ele>96</ele>
        <time>2024-01-30T15:19:02.036+00:00</time>
      </trkpt>
      <trkpt lat="49.24298" lon="0.97082">
        <ele>96</ele>
        <time>2024-01-30T15:19:06.085+00:00</time>
      </trkpt>
      <trkpt lat="49.24305" lon="0.97079">
        <ele>96</ele>
        <time>2024-01-30T15:19:11.088+00:00</time>
      </trkpt>
      <trkpt lat="49.2431" lon="0.97079">
        <ele>96</ele>
        <time>2024-01-30T15:19:15.257+00:00</time>
      </trkpt>
      <trkpt lat="49.24318" lon="0.97077">
        <ele>96</ele>
        <time>2024-01-30T15:19:19.902+00:00</time>
      </trkpt>
      <trkpt lat="49.24322" lon="0.97075">
        <ele>97</ele>
        <time>2024-01-30T15:19:24.071+00:00</time>
      </trkpt>
      <trkpt lat="49.24326" lon="0.97075">
        <ele>97</ele>
        <time>2024-01-30T15:19:28.240+00:00</time>
      </trkpt>
      <trkpt lat="49.2433" lon="0.97074">
        <ele>97</ele>
        <time>2024-01-30T15:19:32.886+00:00</time>
      </trkpt>
      <trkpt lat="49.24334" lon="0.97072">
        <ele>97</ele>
        <time>2024-01-30T15:19:37.054+00:00</time>
      </trkpt>
      <trkpt lat="49.24338" lon="0.9707">
        <ele>97</ele>
        <time>2024-01-30T15:19:41.700+00:00</time>
      </trkpt>
      <trkpt lat="49.24345" lon="0.9707">
        <ele>97</ele>
        <time>2024-01-30T15:19:45.869+00:00</time>
      </trkpt>
      <trkpt lat="49.2435" lon="0.97069">
        <ele>98</ele>
        <time>2024-01-30T15:19:50.038+00:00</time>
      </trkpt>
      <trkpt lat="49.24355" lon="0.97067">
        <ele>98</ele>
        <time>2024-01-30T15:19:54.683+00:00</time>
      </trkpt>
      <trkpt lat="49.24359" lon="0.97065">
        <ele>98</ele>
        <time>2024-01-30T15:19:59.090+00:00</time>
      </trkpt>
      <trkpt lat="49.24363" lon="0.97061">
        <ele>98</ele>
        <time>2024-01-30T15:20:03.855+00:00</time>
      </trkpt>
      <trkpt lat="49.24366" lon="0.97059">
        <ele>98</ele>
        <time>2024-01-30T15:20:07.904+00:00</time>
      </trkpt>
      <trkpt lat="49.2437" lon="0.97055">
        <ele>98</ele>
        <time>2024-01-30T15:20:12.669+00:00</time>
      </trkpt>
      <trkpt lat="49.24374" lon="0.97053">
        <ele>98</ele>
        <time>2024-01-30T15:20:17.426+00:00</time>
      </trkpt>
      <trkpt lat="49.24377" lon="0.97051">
        <ele>102</ele>
        <time>2024-01-30T15:20:21.364+00:00</time>
      </trkpt>
      <trkpt lat="49.24381" lon="0.97048">
        <ele>102</ele>
        <time>2024-01-30T15:20:26.486+00:00</time>
      </trkpt>
      <trkpt lat="49.24384" lon="0.97046">
        <ele>102</ele>
        <time>2024-01-30T15:20:31.012+00:00</time>
      </trkpt>
      <trkpt lat="49.24387" lon="0.97044">
        <ele>102</ele>
        <time>2024-01-30T15:20:35.514+00:00</time>
      </trkpt>
      <trkpt lat="49.24391" lon="0.97041">
        <ele>102</ele>
        <time>2024-01-30T15:20:40.481+00:00</time>
      </trkpt>
      <trkpt lat="49.24394" lon="0.97039">
        <ele>102</ele>
        <time>2024-01-30T15:20:44.472+00:00</time>
      </trkpt>
      <trkpt lat="49.24397" lon="0.97038">
        <ele>102</ele>
        <time>2024-01-30T15:20:48.653+00:00</time>
      </trkpt>
      <trkpt lat="49.24399" lon="0.97036">
        <ele>102</ele>
        <time>2024-01-30T15:20:52.690+00:00</time>
      </trkpt>
      <trkpt lat="49.24401" lon="0.97034">
        <ele>102</ele>
        <time>2024-01-30T15:20:57.098+00:00</time>
      </trkpt>
      <trkpt lat="49.24404" lon="0.97031">
        <ele>108</ele>
        <time>2024-01-30T15:21:01.862+00:00</time>
      </trkpt>
      <trkpt lat="49.24406" lon="0.97028">
        <ele>108</ele>
        <time>2024-01-30T15:21:06.031+00:00</time>
      </trkpt>
      <trkpt lat="49.24409" lon="0.97025">
        <ele>108</ele>
        <time>2024-01-30T15:21:10.676+00:00</time>
      </trkpt>
      <trkpt lat="49.24412" lon="0.97023">
        <ele>108</ele>
        <time>2024-01-30T15:21:14.845+00:00</time>
      </trkpt>
      <trkpt lat="49.24414" lon="0.97023">
        <ele>108</ele>
        <time>2024-01-30T15:21:18.895+00:00</time>
      </trkpt>
      <trkpt lat="49.24416" lon="0.97021">
        <ele>108</ele>
        <time>2024-01-30T15:21:23.660+00:00</time>
      </trkpt>
      <trkpt lat="49.2442" lon="0.97019">
        <ele>108</ele>
        <time>2024-01-30T15:21:28.424+00:00</time>
      </trkpt>
      <trkpt lat="49.24424" lon="0.97019">
        <ele>108</ele>
        <time>2024-01-30T15:21:33.007+00:00</time>
      </trkpt>
      <trkpt lat="49.24429" lon="0.97017">
        <ele>108</ele>
        <time>2024-01-30T15:21:37.264+00:00</time>
      </trkpt>
      <trkpt lat="49.24433" lon="0.97015">
        <ele>112</ele>
        <time>2024-01-30T15:21:41.288+00:00</time>
      </trkpt>
      <trkpt lat="49.24436" lon="0.97013">
        <ele>113</ele>
        <time>2024-01-30T15:21:45.695+00:00</time>
      </trkpt>
      <trkpt lat="49.2444" lon="0.9701">
        <ele>113</ele>
        <time>2024-01-30T15:21:50.102+00:00</time>
      </trkpt>
      <trkpt lat="49.24443" lon="0.97008">
        <ele>113</ele>
        <time>2024-01-30T15:21:54.033+00:00</time>
      </trkpt>
      <trkpt lat="49.24446" lon="0.97005">
        <ele>113</ele>
        <time>2024-01-30T15:21:59.036+00:00</time>
      </trkpt>
      <trkpt lat="49.24449" lon="0.97002">
        <ele>113</ele>
        <time>2024-01-30T15:22:03.086+00:00</time>
      </trkpt>
      <trkpt lat="49.24452" lon="0.97">
        <ele>113</ele>
        <time>2024-01-30T15:22:07.255+00:00</time>
      </trkpt>
      <trkpt lat="49.24455" lon="0.96997">
        <ele>113</ele>
        <time>2024-01-30T15:22:11.900+00:00</time>
      </trkpt>
      <trkpt lat="49.24459" lon="0.96996">
        <ele>115</ele>
        <time>2024-01-30T15:22:16.512+00:00</time>
      </trkpt>
      <trkpt lat="49.24467" lon="0.97003">
        <ele>115</ele>
        <time>2024-01-30T15:22:34.055+00:00</time>
      </trkpt>
      <trkpt lat="49.24466" lon="0.97004">
        <ele>115</ele>
        <time>2024-01-30T15:22:38.700+00:00</time>
      </trkpt>
      <trkpt lat="49.24464" lon="0.97009">
        <ele>115</ele>
        <time>2024-01-30T15:22:43.346+00:00</time>
      </trkpt>
      <trkpt lat="49.24462" lon="0.97015">
        <ele>114</ele>
        <time>2024-01-30T15:22:47.276+00:00</time>
      </trkpt>
      <trkpt lat="49.24458" lon="0.97023">
        <ele>114</ele>
        <time>2024-01-30T15:22:52.041+00:00</time>
      </trkpt>
      <trkpt lat="49.24455" lon="0.97031">
        <ele>112</ele>
        <time>2024-01-30T15:22:56.686+00:00</time>
      </trkpt>
      <trkpt lat="49.24453" lon="0.97038">
        <ele>112</ele>
        <time>2024-01-30T15:23:00.855+00:00</time>
      </trkpt>
      <trkpt lat="49.24451" lon="0.97045">
        <ele>111</ele>
        <time>2024-01-30T15:23:05.024+00:00</time>
      </trkpt>
      <trkpt lat="49.2445" lon="0.97052">
        <ele>111</ele>
        <time>2024-01-30T15:23:09.074+00:00</time>
      </trkpt>
      <trkpt lat="49.24448" lon="0.97059">
        <ele>111</ele>
        <time>2024-01-30T15:23:13.243+00:00</time>
      </trkpt>
      <trkpt lat="49.24447" lon="0.97067">
        <ele>111</ele>
        <time>2024-01-30T15:23:17.769+00:00</time>
      </trkpt>
      <trkpt lat="49.24446" lon="0.97075">
        <ele>109</ele>
        <time>2024-01-30T15:23:21.700+00:00</time>
      </trkpt>
      <trkpt lat="49.24445" lon="0.97083">
        <ele>109</ele>
        <time>2024-01-30T15:23:26.345+00:00</time>
      </trkpt>
      <trkpt lat="49.24445" lon="0.97091">
        <ele>109</ele>
        <time>2024-01-30T15:23:30.276+00:00</time>
      </trkpt>
      <trkpt lat="49.24444" lon="0.971">
        <ele>108</ele>
        <time>2024-01-30T15:23:35.040+00:00</time>
      </trkpt>
      <trkpt lat="49.24445" lon="0.97109">
        <ele>108</ele>
        <time>2024-01-30T15:23:40.043+00:00</time>
      </trkpt>
      <trkpt lat="49.24445" lon="0.97116">
        <ele>108</ele>
        <time>2024-01-30T15:23:44.569+00:00</time>
      </trkpt>
      <trkpt lat="49.24445" lon="0.97124">
        <ele>108</ele>
        <time>2024-01-30T15:23:48.537+00:00</time>
      </trkpt>
      <trkpt lat="49.24446" lon="0.97131">
        <ele>108</ele>
        <time>2024-01-30T15:23:52.669+00:00</time>
      </trkpt>
      <trkpt lat="49.24447" lon="0.97139">
        <ele>108</ele>
        <time>2024-01-30T15:23:56.838+00:00</time>
      </trkpt>
      <trkpt lat="49.24447" lon="0.97147">
        <ele>108</ele>
        <time>2024-01-30T15:24:01.483+00:00</time>
      </trkpt>
      <trkpt lat="49.24447" lon="0.97154">
        <ele>106</ele>
        <time>2024-01-30T15:24:05.652+00:00</time>
      </trkpt>
      <trkpt lat="49.24449" lon="0.97159">
        <ele>106</ele>
        <time>2024-01-30T15:24:09.702+00:00</time>
      </trkpt>
      <trkpt lat="49.24451" lon="0.97167">
        <ele>106</ele>
        <time>2024-01-30T15:24:14.347+00:00</time>
      </trkpt>
      <trkpt lat="49.24453" lon="0.97172">
        <ele>106</ele>
        <time>2024-01-30T15:24:18.278+00:00</time>
      </trkpt>
      <trkpt lat="49.24454" lon="0.9718">
        <ele>106</ele>
        <time>2024-01-30T15:24:23.043+00:00</time>
      </trkpt>
      <trkpt lat="49.24456" lon="0.97187">
        <ele>105</ele>
        <time>2024-01-30T15:24:27.569+00:00</time>
      </trkpt>
      <trkpt lat="49.24457" lon="0.97193">
        <ele>105</ele>
        <time>2024-01-30T15:24:31.537+00:00</time>
      </trkpt>
      <trkpt lat="49.24459" lon="0.972">
        <ele>106</ele>
        <time>2024-01-30T15:24:35.669+00:00</time>
      </trkpt>
      <trkpt lat="49.2446" lon="0.97208">
        <ele>106</ele>
        <time>2024-01-30T15:24:39.838+00:00</time>
      </trkpt>
      <trkpt lat="49.24461" lon="0.97216">
        <ele>105</ele>
        <time>2024-01-30T15:24:44.364+00:00</time>
      </trkpt>
      <trkpt lat="49.24462" lon="0.97222">
        <ele>105</ele>
        <time>2024-01-30T15:24:48.295+00:00</time>
      </trkpt>
      <trkpt lat="49.24463" lon="0.97228">
        <ele>105</ele>
        <time>2024-01-30T15:24:53.059+00:00</time>
      </trkpt>
      <trkpt lat="49.24463" lon="0.97235">
        <ele>105</ele>
        <time>2024-01-30T15:24:57.585+00:00</time>
      </trkpt>
      <trkpt lat="49.24464" lon="0.9724">
        <ele>104</ele>
        <time>2024-01-30T15:25:01.635+00:00</time>
      </trkpt>
      <trkpt lat="49.24467" lon="0.97244">
        <ele>104</ele>
        <time>2024-01-30T15:25:05.685+00:00</time>
      </trkpt>
      <trkpt lat="49.24471" lon="0.97248">
        <ele>104</ele>
        <time>2024-01-30T15:25:10.092+00:00</time>
      </trkpt>
      <trkpt lat="49.24473" lon="0.97254">
        <ele>104</ele>
        <time>2024-01-30T15:25:14.738+00:00</time>
      </trkpt>
      <trkpt lat="49.24476" lon="0.97259">
        <ele>104</ele>
        <time>2024-01-30T15:25:18.906+00:00</time>
      </trkpt>
      <trkpt lat="49.24479" lon="0.97264">
        <ele>103</ele>
        <time>2024-01-30T15:25:23.075+00:00</time>
      </trkpt>
      <trkpt lat="49.24481" lon="0.9727">
        <ele>103</ele>
        <time>2024-01-30T15:25:27.840+00:00</time>
      </trkpt>
      <trkpt lat="49.24484" lon="0.97274">
        <ele>103</ele>
        <time>2024-01-30T15:25:32.366+00:00</time>
      </trkpt>
      <trkpt lat="49.24487" lon="0.97278">
        <ele>102</ele>
        <time>2024-01-30T15:25:36.773+00:00</time>
      </trkpt>
      <trkpt lat="49.2449" lon="0.97284">
        <ele>102</ele>
        <time>2024-01-30T15:25:41.181+00:00</time>
      </trkpt>
      <trkpt lat="49.24493" lon="0.97288">
        <ele>102</ele>
        <time>2024-01-30T15:25:45.230+00:00</time>
      </trkpt>
      <trkpt lat="49.24495" lon="0.97293">
        <ele>101</ele>
        <time>2024-01-30T15:25:49.161+00:00</time>
      </trkpt>
      <trkpt lat="49.24498" lon="0.97298">
        <ele>101</ele>
        <time>2024-01-30T15:25:53.687+00:00</time>
      </trkpt>
      <trkpt lat="49.24501" lon="0.97302">
        <ele>101</ele>
        <time>2024-01-30T15:25:57.856+00:00</time>
      </trkpt>
      <trkpt lat="49.24502" lon="0.97307">
        <ele>101</ele>
        <time>2024-01-30T15:26:02.025+00:00</time>
      </trkpt>
      <trkpt lat="49.24504" lon="0.97313">
        <ele>101</ele>
        <time>2024-01-30T15:26:06.500+00:00</time>
      </trkpt>
      <trkpt lat="49.24505" lon="0.97322">
        <ele>99</ele>
        <time>2024-01-30T15:26:10.363+00:00</time>
      </trkpt>
      <trkpt lat="49.24507" lon="0.97328">
        <ele>99</ele>
        <time>2024-01-30T15:26:14.770+00:00</time>
      </trkpt>
      <trkpt lat="49.24509" lon="0.97334">
        <ele>99</ele>
        <time>2024-01-30T15:26:18.701+00:00</time>
      </trkpt>
      <trkpt lat="49.24511" lon="0.97339">
        <ele>99</ele>
        <time>2024-01-30T15:26:22.870+00:00</time>
      </trkpt>
      <trkpt lat="49.24513" lon="0.97343">
        <ele>99</ele>
        <time>2024-01-30T15:26:27.039+00:00</time>
      </trkpt>
      <trkpt lat="49.24516" lon="0.97348">
        <ele>102</ele>
        <time>2024-01-30T15:26:31.684+00:00</time>
      </trkpt>
      <trkpt lat="49.24519" lon="0.97355">
        <ele>102</ele>
        <time>2024-01-30T15:26:35.853+00:00</time>
      </trkpt>
      <trkpt lat="49.24521" lon="0.9736">
        <ele>102</ele>
        <time>2024-01-30T15:26:40.499+00:00</time>
      </trkpt>
      <trkpt lat="49.24525" lon="0.97365">
        <ele>102</ele>
        <time>2024-01-30T15:26:45.025+00:00</time>
      </trkpt>
      <trkpt lat="49.24527" lon="0.97369">
        <ele>102</ele>
        <time>2024-01-30T15:26:49.075+00:00</time>
      </trkpt>
      <trkpt lat="49.24528" lon="0.97375">
        <ele>102</ele>
        <time>2024-01-30T15:26:54.077+00:00</time>
      </trkpt>
      <trkpt lat="49.24527" lon="0.97381">
        <ele>105</ele>
        <time>2024-01-30T15:26:58.723+00:00</time>
      </trkpt>
      <trkpt lat="49.24528" lon="0.97387">
        <ele>105</ele>
        <time>2024-01-30T15:27:02.892+00:00</time>
      </trkpt>
      <trkpt lat="49.2453" lon="0.97392">
        <ele>105</ele>
        <time>2024-01-30T15:27:07.061+00:00</time>
      </trkpt>
      <trkpt lat="49.24531" lon="0.97398">
        <ele>105</ele>
        <time>2024-01-30T15:27:11.706+00:00</time>
      </trkpt>
      <trkpt lat="49.24533" lon="0.97413">
        <ele>107</ele>
        <time>2024-01-30T15:27:25.166+00:00</time>
      </trkpt>
      <trkpt lat="49.24531" lon="0.97413">
        <ele>107</ele>
        <time>2024-01-30T15:27:29.097+00:00</time>
      </trkpt>
      <trkpt lat="49.24531" lon="0.97413">
        <ele>107</ele>
        <time>2024-01-30T15:27:34.457+00:00</time>
      </trkpt>
      <trkpt lat="49.2453" lon="0.97415">
        <ele>107</ele>
        <time>2024-01-30T15:27:38.537+00:00</time>
      </trkpt>
      <trkpt lat="49.2453" lon="0.97419">
        <ele>107</ele>
        <time>2024-01-30T15:27:43.033+00:00</time>
      </trkpt>
      <trkpt lat="49.2453" lon="0.97422">
        <ele>107</ele>
        <time>2024-01-30T15:27:47.678+00:00</time>
      </trkpt>
      <trkpt lat="49.24531" lon="0.97427">
        <ele>107</ele>
        <time>2024-01-30T15:27:52.358+00:00</time>
      </trkpt>
      <trkpt lat="49.24532" lon="0.97432">
        <ele>110</ele>
        <time>2024-01-30T15:27:56.440+00:00</time>
      </trkpt>
      <trkpt lat="49.24534" lon="0.97436">
        <ele>110</ele>
        <time>2024-01-30T15:28:00.423+00:00</time>
      </trkpt>
      <trkpt lat="49.24539" lon="0.97439">
        <ele>110</ele>
        <time>2024-01-30T15:28:09.238+00:00</time>
      </trkpt>
      <trkpt lat="49.2454" lon="0.9744">
        <ele>110</ele>
        <time>2024-01-30T15:28:13.168+00:00</time>
      </trkpt>
      <trkpt lat="49.24541" lon="0.97441">
        <ele>110</ele>
        <time>2024-01-30T15:28:17.099+00:00</time>
      </trkpt>
      <trkpt lat="49.24542" lon="0.97444">
        <ele>117</ele>
        <time>2024-01-30T15:28:21.268+00:00</time>
      </trkpt>
      <trkpt lat="49.24543" lon="0.97447">
        <ele>117</ele>
        <time>2024-01-30T15:28:26.032+00:00</time>
      </trkpt>
      <trkpt lat="49.24545" lon="0.97449">
        <ele>117</ele>
        <time>2024-01-30T15:28:30.514+00:00</time>
      </trkpt>
      <trkpt lat="49.24546" lon="0.97451">
        <ele>117</ele>
        <time>2024-01-30T15:28:35.085+00:00</time>
      </trkpt>
      <trkpt lat="49.24548" lon="0.97454">
        <ele>117</ele>
        <time>2024-01-30T15:28:39.135+00:00</time>
      </trkpt>
      <trkpt lat="49.24549" lon="0.97459">
        <ele>119</ele>
        <time>2024-01-30T15:28:43.065+00:00</time>
      </trkpt>
      <trkpt lat="49.24552" lon="0.97465">
        <ele>119</ele>
        <time>2024-01-30T15:28:48.344+00:00</time>
      </trkpt>
      <trkpt lat="49.24555" lon="0.97472">
        <ele>119</ele>
        <time>2024-01-30T15:28:57.240+00:00</time>
      </trkpt>
      <trkpt lat="49.24557" lon="0.97474">
        <ele>119</ele>
        <time>2024-01-30T15:29:01.766+00:00</time>
      </trkpt>
      <trkpt lat="49.24558" lon="0.97476">
        <ele>119</ele>
        <time>2024-01-30T15:29:05.697+00:00</time>
      </trkpt>
      <trkpt lat="49.24558" lon="0.97478">
        <ele>119</ele>
        <time>2024-01-30T15:29:10.342+00:00</time>
      </trkpt>
      <trkpt lat="49.2456" lon="0.9748">
        <ele>119</ele>
        <time>2024-01-30T15:29:14.513+00:00</time>
      </trkpt>
      <trkpt lat="49.24562" lon="0.97483">
        <ele>119</ele>
        <time>2024-01-30T15:29:18.680+00:00</time>
      </trkpt>
      <trkpt lat="49.24563" lon="0.97484">
        <ele>119</ele>
        <time>2024-01-30T15:29:22.849+00:00</time>
      </trkpt>
      <trkpt lat="49.24564" lon="0.97489">
        <ele>121</ele>
        <time>2024-01-30T15:29:27.018+00:00</time>
      </trkpt>
      <trkpt lat="49.24565" lon="0.97494">
        <ele>121</ele>
        <time>2024-01-30T15:29:32.021+00:00</time>
      </trkpt>
      <trkpt lat="49.24566" lon="0.97499">
        <ele>121</ele>
        <time>2024-01-30T15:29:36.071+00:00</time>
      </trkpt>
      <trkpt lat="49.24566" lon="0.97503">
        <ele>121</ele>
        <time>2024-01-30T15:29:40.835+00:00</time>
      </trkpt>
      <trkpt lat="49.24565" lon="0.97507">
        <ele>121</ele>
        <time>2024-01-30T15:29:45.481+00:00</time>
      </trkpt>
      <trkpt lat="49.24564" lon="0.97512">
        <ele>121</ele>
        <time>2024-01-30T15:29:49.650+00:00</time>
      </trkpt>
      <trkpt lat="49.24565" lon="0.97515">
        <ele>122</ele>
        <time>2024-01-30T15:29:54.295+00:00</time>
      </trkpt>
      <trkpt lat="49.24565" lon="0.97518">
        <ele>122</ele>
        <time>2024-01-30T15:29:58.702+00:00</time>
      </trkpt>
      <trkpt lat="49.24567" lon="0.97522">
        <ele>122</ele>
        <time>2024-01-30T15:30:03.265+00:00</time>
      </trkpt>
      <trkpt lat="49.24567" lon="0.97528">
        <ele>122</ele>
        <time>2024-01-30T15:30:07.278+00:00</time>
      </trkpt>
      <trkpt lat="49.24569" lon="0.97533">
        <ele>122</ele>
        <time>2024-01-30T15:30:10.852+00:00</time>
      </trkpt>
      <trkpt lat="49.24571" lon="0.97537">
        <ele>128</ele>
        <time>2024-01-30T15:30:15.497+00:00</time>
      </trkpt>
      <trkpt lat="49.24574" lon="0.9754">
        <ele>128</ele>
        <time>2024-01-30T15:30:20.002+00:00</time>
      </trkpt>
      <trkpt lat="49.24575" lon="0.97544">
        <ele>128</ele>
        <time>2024-01-30T15:30:24.512+00:00</time>
      </trkpt>
      <trkpt lat="49.24578" lon="0.97548">
        <ele>128</ele>
        <time>2024-01-30T15:30:28.957+00:00</time>
      </trkpt>
      <trkpt lat="49.24581" lon="0.97549">
        <ele>128</ele>
        <time>2024-01-30T15:30:33.483+00:00</time>
      </trkpt>
      <trkpt lat="49.24589" lon="0.97557">
        <ele>128</ele>
        <time>2024-01-30T15:31:00.284+00:00</time>
      </trkpt>
      <trkpt lat="49.24589" lon="0.97556">
        <ele>128</ele>
        <time>2024-01-30T15:31:05.513+00:00</time>
      </trkpt>
      <trkpt lat="49.24589" lon="0.97556">
        <ele>128</ele>
        <time>2024-01-30T15:31:09.510+00:00</time>
      </trkpt>
      <trkpt lat="49.24591" lon="0.97558">
        <ele>128</ele>
        <time>2024-01-30T15:31:14.514+00:00</time>
      </trkpt>
      <trkpt lat="49.24594" lon="0.97556">
        <ele>128</ele>
        <time>2024-01-30T15:31:18.984+00:00</time>
      </trkpt>
      <trkpt lat="49.24597" lon="0.97557">
        <ele>133</ele>
        <time>2024-01-30T15:31:23.537+00:00</time>
      </trkpt>
      <trkpt lat="49.24601" lon="0.9756">
        <ele>133</ele>
        <time>2024-01-30T15:31:28.037+00:00</time>
      </trkpt>
      <trkpt lat="49.24605" lon="0.97565">
        <ele>133</ele>
        <time>2024-01-30T15:31:33.040+00:00</time>
      </trkpt>
      <trkpt lat="49.24608" lon="0.97569">
        <ele>133</ele>
        <time>2024-01-30T15:31:37.685+00:00</time>
      </trkpt>
      <trkpt lat="49.24611" lon="0.97572">
        <ele>131</ele>
        <time>2024-01-30T15:31:41.854+00:00</time>
      </trkpt>
      <trkpt lat="49.24614" lon="0.97574">
        <ele>131</ele>
        <time>2024-01-30T15:31:46.499+00:00</time>
      </trkpt>
      <trkpt lat="49.24618" lon="0.97577">
        <ele>131</ele>
        <time>2024-01-30T15:31:51.026+00:00</time>
      </trkpt>
      <trkpt lat="49.24622" lon="0.97581">
        <ele>131</ele>
        <time>2024-01-30T15:31:56.267+00:00</time>
      </trkpt>
      <trkpt lat="49.24625" lon="0.97584">
        <ele>131</ele>
        <time>2024-01-30T15:32:00.436+00:00</time>
      </trkpt>
      <trkpt lat="49.24627" lon="0.9759">
        <ele>135</ele>
        <time>2024-01-30T15:32:05.081+00:00</time>
      </trkpt>
      <trkpt lat="49.24629" lon="0.97595">
        <ele>135</ele>
        <time>2024-01-30T15:32:10.277+00:00</time>
      </trkpt>
      <trkpt lat="49.24631" lon="0.976">
        <ele>133</ele>
        <time>2024-01-30T15:32:14.253+00:00</time>
      </trkpt>
      <trkpt lat="49.24633" lon="0.97606">
        <ele>133</ele>
        <time>2024-01-30T15:32:19.481+00:00</time>
      </trkpt>
      <trkpt lat="49.24636" lon="0.97611">
        <ele>133</ele>
        <time>2024-01-30T15:32:24.020+00:00</time>
      </trkpt>
      <trkpt lat="49.24638" lon="0.97616">
        <ele>133</ele>
        <time>2024-01-30T15:32:28.070+00:00</time>
      </trkpt>
      <trkpt lat="49.2464" lon="0.97621">
        <ele>133</ele>
        <time>2024-01-30T15:32:32.715+00:00</time>
      </trkpt>
      <trkpt lat="49.24641" lon="0.97624">
        <ele>133</ele>
        <time>2024-01-30T15:32:37.242+00:00</time>
      </trkpt>
      <trkpt lat="49.24644" lon="0.97627">
        <ele>130</ele>
        <time>2024-01-30T15:32:41.768+00:00</time>
      </trkpt>
      <trkpt lat="49.24646" lon="0.97632">
        <ele>130</ele>
        <time>2024-01-30T15:32:46.175+00:00</time>
      </trkpt>
      <trkpt lat="49.24649" lon="0.97637">
        <ele>130</ele>
        <time>2024-01-30T15:32:50.702+00:00</time>
      </trkpt>
      <trkpt lat="49.24652" lon="0.97642">
        <ele>130</ele>
        <time>2024-01-30T15:32:54.751+00:00</time>
      </trkpt>
      <trkpt lat="49.24655" lon="0.97645">
        <ele>139</ele>
        <time>2024-01-30T15:32:59.159+00:00</time>
      </trkpt>
      <trkpt lat="49.24658" lon="0.97648">
        <ele>139</ele>
        <time>2024-01-30T15:33:03.685+00:00</time>
      </trkpt>
      <trkpt lat="49.24662" lon="0.97651">
        <ele>139</ele>
        <time>2024-01-30T15:33:08.092+00:00</time>
      </trkpt>
      <trkpt lat="49.24665" lon="0.97655">
        <ele>138</ele>
        <time>2024-01-30T15:33:12.537+00:00</time>
      </trkpt>
      <trkpt lat="49.24668" lon="0.97659">
        <ele>138</ele>
        <time>2024-01-30T15:33:17.026+00:00</time>
      </trkpt>
      <trkpt lat="49.24671" lon="0.97662">
        <ele>138</ele>
        <time>2024-01-30T15:33:21.433+00:00</time>
      </trkpt>
      <trkpt lat="49.24674" lon="0.97665">
        <ele>138</ele>
        <time>2024-01-30T15:33:25.959+00:00</time>
      </trkpt>
      <trkpt lat="49.24677" lon="0.97669">
        <ele>138</ele>
        <time>2024-01-30T15:33:30.486+00:00</time>
      </trkpt>
      <trkpt lat="49.24679" lon="0.97671">
        <ele>138</ele>
        <time>2024-01-30T15:33:34.606+00:00</time>
      </trkpt>
      <trkpt lat="49.24682" lon="0.97673">
        <ele>145</ele>
        <time>2024-01-30T15:33:39.062+00:00</time>
      </trkpt>
      <trkpt lat="49.24685" lon="0.97675">
        <ele>145</ele>
        <time>2024-01-30T15:33:43.231+00:00</time>
      </trkpt>
      <trkpt lat="49.24688" lon="0.97679">
        <ele>145</ele>
        <time>2024-01-30T15:33:47.876+00:00</time>
      </trkpt>
      <trkpt lat="49.2469" lon="0.97681">
        <ele>143</ele>
        <time>2024-01-30T15:33:52.507+00:00</time>
      </trkpt>
      <trkpt lat="49.24693" lon="0.97682">
        <ele>143</ele>
        <time>2024-01-30T15:33:56.095+00:00</time>
      </trkpt>
      <trkpt lat="49.24696" lon="0.97684">
        <ele>143</ele>
        <time>2024-01-30T15:34:00.538+00:00</time>
      </trkpt>
      <trkpt lat="49.24699" lon="0.97688">
        <ele>143</ele>
        <time>2024-01-30T15:34:05.267+00:00</time>
      </trkpt>
      <trkpt lat="49.24701" lon="0.97693">
        <ele>143</ele>
        <time>2024-01-30T15:34:09.317+00:00</time>
      </trkpt>
      <trkpt lat="49.24704" lon="0.97695">
        <ele>143</ele>
        <time>2024-01-30T15:34:13.247+00:00</time>
      </trkpt>
      <trkpt lat="49.24707" lon="0.97695">
        <ele>143</ele>
        <time>2024-01-30T15:34:17.297+00:00</time>
      </trkpt>
      <trkpt lat="49.24711" lon="0.97697">
        <ele>148</ele>
        <time>2024-01-30T15:34:22.062+00:00</time>
      </trkpt>
      <trkpt lat="49.24714" lon="0.97698">
        <ele>148</ele>
        <time>2024-01-30T15:34:26.707+00:00</time>
      </trkpt>
      <trkpt lat="49.24717" lon="0.977">
        <ele>148</ele>
        <time>2024-01-30T15:34:31.234+00:00</time>
      </trkpt>
      <trkpt lat="49.2472" lon="0.97701">
        <ele>148</ele>
        <time>2024-01-30T15:34:35.760+00:00</time>
      </trkpt>
      <trkpt lat="49.24723" lon="0.97702">
        <ele>148</ele>
        <time>2024-01-30T15:34:40.243+00:00</time>
      </trkpt>
      <trkpt lat="49.24726" lon="0.97703">
        <ele>148</ele>
        <time>2024-01-30T15:34:44.098+00:00</time>
      </trkpt>
      <trkpt lat="49.24729" lon="0.97701">
        <ele>148</ele>
        <time>2024-01-30T15:34:49.101+00:00</time>
      </trkpt>
      <trkpt lat="49.24733" lon="0.97701">
        <ele>148</ele>
        <time>2024-01-30T15:34:53.032+00:00</time>
      </trkpt>
      <trkpt lat="49.24737" lon="0.97704">
        <ele>149</ele>
        <time>2024-01-30T15:34:58.034+00:00</time>
      </trkpt>
      <trkpt lat="49.24742" lon="0.97708">
        <ele>149</ele>
        <time>2024-01-30T15:35:03.037+00:00</time>
      </trkpt>
      <trkpt lat="49.24747" lon="0.97711">
        <ele>148</ele>
        <time>2024-01-30T15:35:08.040+00:00</time>
      </trkpt>
      <trkpt lat="49.24751" lon="0.97714">
        <ele>148</ele>
        <time>2024-01-30T15:35:13.043+00:00</time>
      </trkpt>
      <trkpt lat="49.24757" lon="0.97715">
        <ele>148</ele>
        <time>2024-01-30T15:35:17.688+00:00</time>
      </trkpt>
      <trkpt lat="49.24761" lon="0.97717">
        <ele>148</ele>
        <time>2024-01-30T15:35:21.844+00:00</time>
      </trkpt>
      <trkpt lat="49.24765" lon="0.97718">
        <ele>147</ele>
        <time>2024-01-30T15:35:26.026+00:00</time>
      </trkpt>
      <trkpt lat="49.2477" lon="0.97722">
        <ele>147</ele>
        <time>2024-01-30T15:35:31.228+00:00</time>
      </trkpt>
      <trkpt lat="49.24775" lon="0.97719">
        <ele>147</ele>
        <time>2024-01-30T15:35:35.317+00:00</time>
      </trkpt>
      <trkpt lat="49.24779" lon="0.97719">
        <ele>147</ele>
        <time>2024-01-30T15:35:39.486+00:00</time>
      </trkpt>
      <trkpt lat="49.24783" lon="0.9772">
        <ele>147</ele>
        <time>2024-01-30T15:35:44.013+00:00</time>
      </trkpt>
      <trkpt lat="49.24788" lon="0.97722">
        <ele>147</ele>
        <time>2024-01-30T15:35:48.658+00:00</time>
      </trkpt>
      <trkpt lat="49.24794" lon="0.97724">
        <ele>147</ele>
        <time>2024-01-30T15:35:53.423+00:00</time>
      </trkpt>
      <trkpt lat="49.24798" lon="0.97726">
        <ele>147</ele>
        <time>2024-01-30T15:35:57.473+00:00</time>
      </trkpt>
      <trkpt lat="49.24802" lon="0.97726">
        <ele>147</ele>
        <time>2024-01-30T15:36:02.213+00:00</time>
      </trkpt>
      <trkpt lat="49.24805" lon="0.97723">
        <ele>147</ele>
        <time>2024-01-30T15:36:06.287+00:00</time>
      </trkpt>
      <trkpt lat="49.24806" lon="0.97719">
        <ele>147</ele>
        <time>2024-01-30T15:36:10.932+00:00</time>
      </trkpt>
      <trkpt lat="49.2481" lon="0.97718">
        <ele>147</ele>
        <time>2024-01-30T15:36:15.101+00:00</time>
      </trkpt>
      <trkpt lat="49.24816" lon="0.97717">
        <ele>147</ele>
        <time>2024-01-30T15:36:19.866+00:00</time>
      </trkpt>
      <trkpt lat="49.24822" lon="0.97716">
        <ele>147</ele>
        <time>2024-01-30T15:36:24.035+00:00</time>
      </trkpt>
      <trkpt lat="49.24827" lon="0.97714">
        <ele>147</ele>
        <time>2024-01-30T15:36:28.671+00:00</time>
      </trkpt>
      <trkpt lat="49.24832" lon="0.97712">
        <ele>147</ele>
        <time>2024-01-30T15:36:32.849+00:00</time>
      </trkpt>
      <trkpt lat="49.24835" lon="0.9771">
        <ele>147</ele>
        <time>2024-01-30T15:36:36.899+00:00</time>
      </trkpt>
      <trkpt lat="49.24839" lon="0.97708">
        <ele>149</ele>
        <time>2024-01-30T15:36:41.068+00:00</time>
      </trkpt>
      <trkpt lat="49.24843" lon="0.97705">
        <ele>149</ele>
        <time>2024-01-30T15:36:45.237+00:00</time>
      </trkpt>
      <trkpt lat="49.24847" lon="0.97703">
        <ele>149</ele>
        <time>2024-01-30T15:36:49.287+00:00</time>
      </trkpt>
      <trkpt lat="49.2485" lon="0.977">
        <ele>147</ele>
        <time>2024-01-30T15:36:53.456+00:00</time>
      </trkpt>
      <trkpt lat="49.24855" lon="0.97698">
        <ele>147</ele>
        <time>2024-01-30T15:36:57.537+00:00</time>
      </trkpt>
      <trkpt lat="49.2486" lon="0.97695">
        <ele>147</ele>
        <time>2024-01-30T15:37:02.032+00:00</time>
      </trkpt>
      <trkpt lat="49.24864" lon="0.97692">
        <ele>147</ele>
        <time>2024-01-30T15:37:06.082+00:00</time>
      </trkpt>
      <trkpt lat="49.24869" lon="0.97687">
        <ele>147</ele>
        <time>2024-01-30T15:37:10.251+00:00</time>
      </trkpt>
      <trkpt lat="49.24872" lon="0.97683">
        <ele>147</ele>
        <time>2024-01-30T15:37:14.420+00:00</time>
      </trkpt>
      <trkpt lat="49.24876" lon="0.9768">
        <ele>146</ele>
        <time>2024-01-30T15:37:19.065+00:00</time>
      </trkpt>
      <trkpt lat="49.24881" lon="0.97677">
        <ele>146</ele>
        <time>2024-01-30T15:37:23.115+00:00</time>
      </trkpt>
      <trkpt lat="49.24885" lon="0.97674">
        <ele>146</ele>
        <time>2024-01-30T15:37:27.165+00:00</time>
      </trkpt>
      <trkpt lat="49.24889" lon="0.97671">
        <ele>146</ele>
        <time>2024-01-30T15:37:31.096+00:00</time>
      </trkpt>
      <trkpt lat="49.24893" lon="0.97668">
        <ele>146</ele>
        <time>2024-01-30T15:37:35.265+00:00</time>
      </trkpt>
      <trkpt lat="49.24899" lon="0.97664">
        <ele>146</ele>
        <time>2024-01-30T15:37:40.029+00:00</time>
      </trkpt>
      <trkpt lat="49.24905" lon="0.97661">
        <ele>146</ele>
        <time>2024-01-30T15:37:44.437+00:00</time>
      </trkpt>
      <trkpt lat="49.24911" lon="0.97657">
        <ele>146</ele>
        <time>2024-01-30T15:37:49.082+00:00</time>
      </trkpt>
      <trkpt lat="49.24916" lon="0.97654">
        <ele>146</ele>
        <time>2024-01-30T15:37:53.251+00:00</time>
      </trkpt>
      <trkpt lat="49.24921" lon="0.97651">
        <ele>146</ele>
        <time>2024-01-30T15:37:57.420+00:00</time>
      </trkpt>
      <trkpt lat="49.24926" lon="0.97646">
        <ele>146</ele>
        <time>2024-01-30T15:38:02.065+00:00</time>
      </trkpt>
      <trkpt lat="49.2493" lon="0.97644">
        <ele>146</ele>
        <time>2024-01-30T15:38:06.234+00:00</time>
      </trkpt>
      <trkpt lat="49.24934" lon="0.97641">
        <ele>147</ele>
        <time>2024-01-30T15:38:10.880+00:00</time>
      </trkpt>
      <trkpt lat="49.24937" lon="0.97638">
        <ele>147</ele>
        <time>2024-01-30T15:38:15.049+00:00</time>
      </trkpt>
      <trkpt lat="49.24942" lon="0.97635">
        <ele>147</ele>
        <time>2024-01-30T15:38:19.701+00:00</time>
      </trkpt>
      <trkpt lat="49.24947" lon="0.97634">
        <ele>147</ele>
        <time>2024-01-30T15:38:23.537+00:00</time>
      </trkpt>
      <trkpt lat="49.24951" lon="0.97632">
        <ele>147</ele>
        <time>2024-01-30T15:38:28.151+00:00</time>
      </trkpt>
      <trkpt lat="49.24954" lon="0.97629">
        <ele>147</ele>
        <time>2024-01-30T15:38:32.320+00:00</time>
      </trkpt>
      <trkpt lat="49.24958" lon="0.97626">
        <ele>147</ele>
        <time>2024-01-30T15:38:36.489+00:00</time>
      </trkpt>
      <trkpt lat="49.24963" lon="0.97624">
        <ele>148</ele>
        <time>2024-01-30T15:38:40.658+00:00</time>
      </trkpt>
      <trkpt lat="49.24968" lon="0.97621">
        <ele>148</ele>
        <time>2024-01-30T15:38:44.827+00:00</time>
      </trkpt>
      <trkpt lat="49.24972" lon="0.97617">
        <ele>148</ele>
        <time>2024-01-30T15:38:49.472+00:00</time>
      </trkpt>
      <trkpt lat="49.24975" lon="0.97612">
        <ele>148</ele>
        <time>2024-01-30T15:38:53.641+00:00</time>
      </trkpt>
      <trkpt lat="49.24978" lon="0.97608">
        <ele>148</ele>
        <time>2024-01-30T15:38:57.691+00:00</time>
      </trkpt>
      <trkpt lat="49.24981" lon="0.97604">
        <ele>148</ele>
        <time>2024-01-30T15:39:01.860+00:00</time>
      </trkpt>
      <trkpt lat="49.24985" lon="0.97599">
        <ele>148</ele>
        <time>2024-01-30T15:39:06.029+00:00</time>
      </trkpt>
      <trkpt lat="49.24989" lon="0.97596">
        <ele>150</ele>
        <time>2024-01-30T15:39:10.079+00:00</time>
      </trkpt>
      <trkpt lat="49.24992" lon="0.9759">
        <ele>150</ele>
        <time>2024-01-30T15:39:14.248+00:00</time>
      </trkpt>
      <trkpt lat="49.24994" lon="0.97581">
        <ele>150</ele>
        <time>2024-01-30T15:39:18.774+00:00</time>
      </trkpt>
      <trkpt lat="49.24997" lon="0.97576">
        <ele>150</ele>
        <time>2024-01-30T15:39:22.705+00:00</time>
      </trkpt>
      <trkpt lat="49.25002" lon="0.97571">
        <ele>150</ele>
        <time>2024-01-30T15:39:26.874+00:00</time>
      </trkpt>
      <trkpt lat="49.25006" lon="0.97564">
        <ele>150</ele>
        <time>2024-01-30T15:39:31.043+00:00</time>
      </trkpt>
      <trkpt lat="49.25009" lon="0.97557">
        <ele>150</ele>
        <time>2024-01-30T15:39:35.614+00:00</time>
      </trkpt>
      <trkpt lat="49.25012" lon="0.97551">
        <ele>150</ele>
        <time>2024-01-30T15:39:39.738+00:00</time>
      </trkpt>
      <trkpt lat="49.25015" lon="0.97545">
        <ele>149</ele>
        <time>2024-01-30T15:39:43.907+00:00</time>
      </trkpt>
      <trkpt lat="49.25019" lon="0.9754">
        <ele>150</ele>
        <time>2024-01-30T15:39:48.076+00:00</time>
      </trkpt>
      <trkpt lat="49.25024" lon="0.97536">
        <ele>150</ele>
        <time>2024-01-30T15:39:52.721+00:00</time>
      </trkpt>
      <trkpt lat="49.25028" lon="0.9753">
        <ele>150</ele>
        <time>2024-01-30T15:39:56.890+00:00</time>
      </trkpt>
      <trkpt lat="49.25031" lon="0.97524">
        <ele>150</ele>
        <time>2024-01-30T15:40:01.059+00:00</time>
      </trkpt>
      <trkpt lat="49.25035" lon="0.97519">
        <ele>150</ele>
        <time>2024-01-30T15:40:05.109+00:00</time>
      </trkpt>
      <trkpt lat="49.25039" lon="0.97515">
        <ele>150</ele>
        <time>2024-01-30T15:40:09.278+00:00</time>
      </trkpt>
      <trkpt lat="49.25044" lon="0.9751">
        <ele>150</ele>
        <time>2024-01-30T15:40:13.447+00:00</time>
      </trkpt>
      <trkpt lat="49.25048" lon="0.97506">
        <ele>150</ele>
        <time>2024-01-30T15:40:17.537+00:00</time>
      </trkpt>
      <trkpt lat="49.25051" lon="0.97501">
        <ele>150</ele>
        <time>2024-01-30T15:40:21.666+00:00</time>
      </trkpt>
      <trkpt lat="49.25054" lon="0.97496">
        <ele>150</ele>
        <time>2024-01-30T15:40:25.835+00:00</time>
      </trkpt>
      <trkpt lat="49.25057" lon="0.97492">
        <ele>150</ele>
        <time>2024-01-30T15:40:29.885+00:00</time>
      </trkpt>
      <trkpt lat="49.25063" lon="0.9749">
        <ele>150</ele>
        <time>2024-01-30T15:40:34.649+00:00</time>
      </trkpt>
      <trkpt lat="49.25068" lon="0.97484">
        <ele>151</ele>
        <time>2024-01-30T15:40:38.699+00:00</time>
      </trkpt>
      <trkpt lat="49.25072" lon="0.97479">
        <ele>149</ele>
        <time>2024-01-30T15:40:42.868+00:00</time>
      </trkpt>
      <trkpt lat="49.25075" lon="0.97473">
        <ele>149</ele>
        <time>2024-01-30T15:40:47.037+00:00</time>
      </trkpt>
      <trkpt lat="49.25079" lon="0.97468">
        <ele>149</ele>
        <time>2024-01-30T15:40:51.087+00:00</time>
      </trkpt>
      <trkpt lat="49.25084" lon="0.97465">
        <ele>149</ele>
        <time>2024-01-30T15:40:55.852+00:00</time>
      </trkpt>
      <trkpt lat="49.2509" lon="0.97462">
        <ele>149</ele>
        <time>2024-01-30T15:41:00.021+00:00</time>
      </trkpt>
      <trkpt lat="49.25094" lon="0.97458">
        <ele>149</ele>
        <time>2024-01-30T15:41:04.070+00:00</time>
      </trkpt>
      <trkpt lat="49.25098" lon="0.97452">
        <ele>149</ele>
        <time>2024-01-30T15:41:08.255+00:00</time>
      </trkpt>
      <trkpt lat="49.25102" lon="0.97448">
        <ele>149</ele>
        <time>2024-01-30T15:41:12.289+00:00</time>
      </trkpt>
      <trkpt lat="49.25106" lon="0.97444">
        <ele>149</ele>
        <time>2024-01-30T15:41:16.458+00:00</time>
      </trkpt>
      <trkpt lat="49.25109" lon="0.97439">
        <ele>149</ele>
        <time>2024-01-30T15:41:20.537+00:00</time>
      </trkpt>
      <trkpt lat="49.25114" lon="0.97433">
        <ele>149</ele>
        <time>2024-01-30T15:41:24.677+00:00</time>
      </trkpt>
      <trkpt lat="49.25118" lon="0.97428">
        <ele>149</ele>
        <time>2024-01-30T15:41:28.846+00:00</time>
      </trkpt>
      <trkpt lat="49.25122" lon="0.97424">
        <ele>149</ele>
        <time>2024-01-30T15:41:32.896+00:00</time>
      </trkpt>
      <trkpt lat="49.25126" lon="0.97419">
        <ele>149</ele>
        <time>2024-01-30T15:41:37.065+00:00</time>
      </trkpt>
      <trkpt lat="49.2513" lon="0.97417">
        <ele>149</ele>
        <time>2024-01-30T15:41:41.234+00:00</time>
      </trkpt>
      <trkpt lat="49.25133" lon="0.97419">
        <ele>149</ele>
        <time>2024-01-30T15:41:45.284+00:00</time>
      </trkpt>
      <trkpt lat="49.25138" lon="0.97419">
        <ele>149</ele>
        <time>2024-01-30T15:41:49.929+00:00</time>
      </trkpt>
      <trkpt lat="49.25142" lon="0.97418">
        <ele>149</ele>
        <time>2024-01-30T15:41:54.098+00:00</time>
      </trkpt>
      <trkpt lat="49.25147" lon="0.97417">
        <ele>149</ele>
        <time>2024-01-30T15:41:58.267+00:00</time>
      </trkpt>
      <trkpt lat="49.25152" lon="0.97418">
        <ele>149</ele>
        <time>2024-01-30T15:42:02.436+00:00</time>
      </trkpt>
      <trkpt lat="49.25157" lon="0.97418">
        <ele>148</ele>
        <time>2024-01-30T15:42:07.081+00:00</time>
      </trkpt>
      <trkpt lat="49.25162" lon="0.97418">
        <ele>148</ele>
        <time>2024-01-30T15:42:11.250+00:00</time>
      </trkpt>
      <trkpt lat="49.25166" lon="0.97418">
        <ele>148</ele>
        <time>2024-01-30T15:42:15.300+00:00</time>
      </trkpt>
      <trkpt lat="49.25171" lon="0.97416">
        <ele>148</ele>
        <time>2024-01-30T15:42:19.906+00:00</time>
      </trkpt>
      <trkpt lat="49.25175" lon="0.97413">
        <ele>148</ele>
        <time>2024-01-30T15:42:23.876+00:00</time>
      </trkpt>
      <trkpt lat="49.2518" lon="0.97413">
        <ele>148</ele>
        <time>2024-01-30T15:42:28.045+00:00</time>
      </trkpt>
      <trkpt lat="49.25186" lon="0.97414">
        <ele>146</ele>
        <time>2024-01-30T15:42:32.095+00:00</time>
      </trkpt>
      <trkpt lat="49.2519" lon="0.97414">
        <ele>146</ele>
        <time>2024-01-30T15:42:36.025+00:00</time>
      </trkpt>
      <trkpt lat="49.25194" lon="0.97414">
        <ele>146</ele>
        <time>2024-01-30T15:42:40.075+00:00</time>
      </trkpt>
      <trkpt lat="49.25199" lon="0.97412">
        <ele>146</ele>
        <time>2024-01-30T15:42:44.789+00:00</time>
      </trkpt>
      <trkpt lat="49.25204" lon="0.97411">
        <ele>146</ele>
        <time>2024-01-30T15:42:49.403+00:00</time>
      </trkpt>
      <trkpt lat="49.25208" lon="0.9741">
        <ele>146</ele>
        <time>2024-01-30T15:42:53.297+00:00</time>
      </trkpt>
      <trkpt lat="49.25213" lon="0.97408">
        <ele>146</ele>
        <time>2024-01-30T15:42:57.942+00:00</time>
      </trkpt>
      <trkpt lat="49.25217" lon="0.97405">
        <ele>146</ele>
        <time>2024-01-30T15:43:02.349+00:00</time>
      </trkpt>
      <trkpt lat="49.25221" lon="0.97401">
        <ele>145</ele>
        <time>2024-01-30T15:43:06.995+00:00</time>
      </trkpt>
      <trkpt lat="49.25225" lon="0.97399">
        <ele>145</ele>
        <time>2024-01-30T15:43:11.044+00:00</time>
      </trkpt>
      <trkpt lat="49.25225" lon="0.97398">
        <ele>145</ele>
        <time>2024-01-30T15:43:16.285+00:00</time>
      </trkpt>
      <trkpt lat="49.25224" lon="0.97398">
        <ele>145</ele>
        <time>2024-01-30T15:43:43.517+00:00</time>
      </trkpt>
      <trkpt lat="49.25227" lon="0.97401">
        <ele>145</ele>
        <time>2024-01-30T15:43:47.522+00:00</time>
      </trkpt>
      <trkpt lat="49.2523" lon="0.97409">
        <ele>146</ele>
        <time>2024-01-30T15:43:52.524+00:00</time>
      </trkpt>
      <trkpt lat="49.25234" lon="0.97414">
        <ele>146</ele>
        <time>2024-01-30T15:43:56.519+00:00</time>
      </trkpt>
      <trkpt lat="49.25238" lon="0.97419">
        <ele>144</ele>
        <time>2024-01-30T15:44:01.429+00:00</time>
      </trkpt>
      <trkpt lat="49.25243" lon="0.97425">
        <ele>144</ele>
        <time>2024-01-30T15:44:06.074+00:00</time>
      </trkpt>
      <trkpt lat="49.25247" lon="0.9743">
        <ele>144</ele>
        <time>2024-01-30T15:44:10.243+00:00</time>
      </trkpt>
      <trkpt lat="49.2525" lon="0.97435">
        <ele>145</ele>
        <time>2024-01-30T15:44:14.293+00:00</time>
      </trkpt>
      <trkpt lat="49.25254" lon="0.97442">
        <ele>145</ele>
        <time>2024-01-30T15:44:19.057+00:00</time>
      </trkpt>
      <trkpt lat="49.25258" lon="0.97447">
        <ele>145</ele>
        <time>2024-01-30T15:44:23.107+00:00</time>
      </trkpt>
      <trkpt lat="49.25262" lon="0.97452">
        <ele>145</ele>
        <time>2024-01-30T15:44:27.633+00:00</time>
      </trkpt>
      <trkpt lat="49.25265" lon="0.97458">
        <ele>143</ele>
        <time>2024-01-30T15:44:31.683+00:00</time>
      </trkpt>
      <trkpt lat="49.25268" lon="0.97463">
        <ele>142</ele>
        <time>2024-01-30T15:44:35.852+00:00</time>
      </trkpt>
      <trkpt lat="49.25272" lon="0.97469">
        <ele>142</ele>
        <time>2024-01-30T15:44:40.021+00:00</time>
      </trkpt>
      <trkpt lat="49.25275" lon="0.97474">
        <ele>142</ele>
        <time>2024-01-30T15:44:44.071+00:00</time>
      </trkpt>
      <trkpt lat="49.25279" lon="0.9748">
        <ele>142</ele>
        <time>2024-01-30T15:44:48.240+00:00</time>
      </trkpt>
      <trkpt lat="49.25282" lon="0.97485">
        <ele>142</ele>
        <time>2024-01-30T15:44:52.290+00:00</time>
      </trkpt>
      <trkpt lat="49.25284" lon="0.97491">
        <ele>142</ele>
        <time>2024-01-30T15:44:56.458+00:00</time>
      </trkpt>
      <trkpt lat="49.25287" lon="0.97498">
        <ele>142</ele>
        <time>2024-01-30T15:45:00.537+00:00</time>
      </trkpt>
      <trkpt lat="49.2529" lon="0.97504">
        <ele>142</ele>
        <time>2024-01-30T15:45:04.677+00:00</time>
      </trkpt>
      <trkpt lat="49.25294" lon="0.97511">
        <ele>141</ele>
        <time>2024-01-30T15:45:08.846+00:00</time>
      </trkpt>
      <trkpt lat="49.25297" lon="0.97517">
        <ele>142</ele>
        <time>2024-01-30T15:45:12.896+00:00</time>
      </trkpt>
      <trkpt lat="49.25299" lon="0.97524">
        <ele>142</ele>
        <time>2024-01-30T15:45:17.065+00:00</time>
      </trkpt>
      <trkpt lat="49.25301" lon="0.97531">
        <ele>142</ele>
        <time>2024-01-30T15:45:21.234+00:00</time>
      </trkpt>
      <trkpt lat="49.25304" lon="0.97539">
        <ele>142</ele>
        <time>2024-01-30T15:45:25.879+00:00</time>
      </trkpt>
      <trkpt lat="49.25305" lon="0.97546">
        <ele>142</ele>
        <time>2024-01-30T15:45:30.513+00:00</time>
      </trkpt>
      <trkpt lat="49.25306" lon="0.97551">
        <ele>142</ele>
        <time>2024-01-30T15:45:34.098+00:00</time>
      </trkpt>
      <trkpt lat="49.25308" lon="0.97557">
        <ele>142</ele>
        <time>2024-01-30T15:45:38.537+00:00</time>
      </trkpt>
      <trkpt lat="49.2531" lon="0.97564">
        <ele>142</ele>
        <time>2024-01-30T15:45:43.031+00:00</time>
      </trkpt>
      <trkpt lat="49.25312" lon="0.97571">
        <ele>143</ele>
        <time>2024-01-30T15:45:47.081+00:00</time>
      </trkpt>
      <trkpt lat="49.25312" lon="0.97578">
        <ele>143</ele>
        <time>2024-01-30T15:45:51.250+00:00</time>
      </trkpt>
      <trkpt lat="49.25313" lon="0.97586">
        <ele>143</ele>
        <time>2024-01-30T15:45:55.896+00:00</time>
      </trkpt>
      <trkpt lat="49.25313" lon="0.97594">
        <ele>143</ele>
        <time>2024-01-30T15:46:00.513+00:00</time>
      </trkpt>
      <trkpt lat="49.25312" lon="0.97602">
        <ele>142</ele>
        <time>2024-01-30T15:46:05.067+00:00</time>
      </trkpt>
      <trkpt lat="49.25311" lon="0.97609">
        <ele>142</ele>
        <time>2024-01-30T15:46:09.713+00:00</time>
      </trkpt>
      <trkpt lat="49.2531" lon="0.97615">
        <ele>142</ele>
        <time>2024-01-30T15:46:13.762+00:00</time>
      </trkpt>
      <trkpt lat="49.25309" lon="0.97622">
        <ele>142</ele>
        <time>2024-01-30T15:46:18.250+00:00</time>
      </trkpt>
      <trkpt lat="49.25307" lon="0.97628">
        <ele>142</ele>
        <time>2024-01-30T15:46:22.100+00:00</time>
      </trkpt>
      <trkpt lat="49.25306" lon="0.97636">
        <ele>142</ele>
        <time>2024-01-30T15:46:26.844+00:00</time>
      </trkpt>
      <trkpt lat="49.25305" lon="0.97643">
        <ele>142</ele>
        <time>2024-01-30T15:46:31.272+00:00</time>
      </trkpt>
      <trkpt lat="49.25305" lon="0.9765">
        <ele>142</ele>
        <time>2024-01-30T15:46:35.917+00:00</time>
      </trkpt>
      <trkpt lat="49.25304" lon="0.97656">
        <ele>141</ele>
        <time>2024-01-30T15:46:39.967+00:00</time>
      </trkpt>
      <trkpt lat="49.25303" lon="0.97662">
        <ele>141</ele>
        <time>2024-01-30T15:46:44.017+00:00</time>
      </trkpt>
      <trkpt lat="49.25302" lon="0.9767">
        <ele>141</ele>
        <time>2024-01-30T15:46:48.067+00:00</time>
      </trkpt>
      <trkpt lat="49.25301" lon="0.9768">
        <ele>141</ele>
        <time>2024-01-30T15:46:52.236+00:00</time>
      </trkpt>
      <trkpt lat="49.25299" lon="0.97688">
        <ele>141</ele>
        <time>2024-01-30T15:46:56.881+00:00</time>
      </trkpt>
      <trkpt lat="49.25299" lon="0.97695">
        <ele>141</ele>
        <time>2024-01-30T15:47:01.050+00:00</time>
      </trkpt>
      <trkpt lat="49.25299" lon="0.97703">
        <ele>141</ele>
        <time>2024-01-30T15:47:05.666+00:00</time>
      </trkpt>
      <trkpt lat="49.25297" lon="0.9771">
        <ele>142</ele>
        <time>2024-01-30T15:47:09.537+00:00</time>
      </trkpt>
      <trkpt lat="49.25295" lon="0.9772">
        <ele>142</ele>
        <time>2024-01-30T15:47:14.510+00:00</time>
      </trkpt>
      <trkpt lat="49.25293" lon="0.97727">
        <ele>142</ele>
        <time>2024-01-30T15:47:19.036+00:00</time>
      </trkpt>
      <trkpt lat="49.25293" lon="0.97735">
        <ele>142</ele>
        <time>2024-01-30T15:47:24.243+00:00</time>
      </trkpt>
      <trkpt lat="49.25295" lon="0.97739">
        <ele>143</ele>
        <time>2024-01-30T15:47:28.537+00:00</time>
      </trkpt>
      <trkpt lat="49.25298" lon="0.97739">
        <ele>143</ele>
        <time>2024-01-30T15:47:33.092+00:00</time>
      </trkpt>
      <trkpt lat="49.253" lon="0.97737">
        <ele>143</ele>
        <time>2024-01-30T15:47:37.537+00:00</time>
      </trkpt>
      <trkpt lat="49.25305" lon="0.97739">
        <ele>143</ele>
        <time>2024-01-30T15:47:41.668+00:00</time>
      </trkpt>
      <trkpt lat="49.2531" lon="0.97741">
        <ele>143</ele>
        <time>2024-01-30T15:47:45.837+00:00</time>
      </trkpt>
      <trkpt lat="49.25314" lon="0.97742">
        <ele>143</ele>
        <time>2024-01-30T15:47:49.887+00:00</time>
      </trkpt>
      <trkpt lat="49.25319" lon="0.97744">
        <ele>143</ele>
        <time>2024-01-30T15:47:54.056+00:00</time>
      </trkpt>
      <trkpt lat="49.25324" lon="0.97745">
        <ele>142</ele>
        <time>2024-01-30T15:47:58.698+00:00</time>
      </trkpt>
      <trkpt lat="49.25329" lon="0.97747">
        <ele>142</ele>
        <time>2024-01-30T15:48:02.751+00:00</time>
      </trkpt>
      <trkpt lat="49.25333" lon="0.97748">
        <ele>142</ele>
        <time>2024-01-30T15:48:06.920+00:00</time>
      </trkpt>
      <trkpt lat="49.25338" lon="0.9775">
        <ele>142</ele>
        <time>2024-01-30T15:48:11.089+00:00</time>
      </trkpt>
      <trkpt lat="49.25342" lon="0.97752">
        <ele>142</ele>
        <time>2024-01-30T15:48:15.258+00:00</time>
      </trkpt>
      <trkpt lat="49.25346" lon="0.97752">
        <ele>142</ele>
        <time>2024-01-30T15:48:19.427+00:00</time>
      </trkpt>
      <trkpt lat="49.25352" lon="0.97752">
        <ele>142</ele>
        <time>2024-01-30T15:48:24.072+00:00</time>
      </trkpt>
      <trkpt lat="49.25357" lon="0.97752">
        <ele>142</ele>
        <time>2024-01-30T15:48:28.241+00:00</time>
      </trkpt>
      <trkpt lat="49.25361" lon="0.97753">
        <ele>142</ele>
        <time>2024-01-30T15:48:32.291+00:00</time>
      </trkpt>
      <trkpt lat="49.25366" lon="0.97753">
        <ele>142</ele>
        <time>2024-01-30T15:48:37.055+00:00</time>
      </trkpt>
      <trkpt lat="49.25371" lon="0.97754">
        <ele>142</ele>
        <time>2024-01-30T15:48:41.105+00:00</time>
      </trkpt>
      <trkpt lat="49.25376" lon="0.97753">
        <ele>141</ele>
        <time>2024-01-30T15:48:45.274+00:00</time>
      </trkpt>
      <trkpt lat="49.2538" lon="0.97751">
        <ele>141</ele>
        <time>2024-01-30T15:48:50.038+00:00</time>
      </trkpt>
      <trkpt lat="49.25385" lon="0.9775">
        <ele>141</ele>
        <time>2024-01-30T15:48:54.088+00:00</time>
      </trkpt>
      <trkpt lat="49.25389" lon="0.9775">
        <ele>141</ele>
        <time>2024-01-30T15:48:58.257+00:00</time>
      </trkpt>
      <trkpt lat="49.25394" lon="0.97756">
        <ele>141</ele>
        <time>2024-01-30T15:49:03.022+00:00</time>
      </trkpt>
      <trkpt lat="49.25397" lon="0.97761">
        <ele>141</ele>
        <time>2024-01-30T15:49:07.667+00:00</time>
      </trkpt>
      <trkpt lat="49.25397" lon="0.9777">
        <ele>142</ele>
        <time>2024-01-30T15:49:11.836+00:00</time>
      </trkpt>
      <trkpt lat="49.25397" lon="0.97778">
        <ele>142</ele>
        <time>2024-01-30T15:49:15.886+00:00</time>
      </trkpt>
      <trkpt lat="49.25398" lon="0.97785">
        <ele>142</ele>
        <time>2024-01-30T15:49:20.055+00:00</time>
      </trkpt>
      <trkpt lat="49.25398" lon="0.9779">
        <ele>142</ele>
        <time>2024-01-30T15:49:24.105+00:00</time>
      </trkpt>
      <trkpt lat="49.25398" lon="0.97796">
        <ele>142</ele>
        <time>2024-01-30T15:49:28.274+00:00</time>
      </trkpt>
      <trkpt lat="49.25398" lon="0.97803">
        <ele>142</ele>
        <time>2024-01-30T15:49:32.443+00:00</time>
      </trkpt>
      <trkpt lat="49.25397" lon="0.97812">
        <ele>142</ele>
        <time>2024-01-30T15:49:36.537+00:00</time>
      </trkpt>
      <trkpt lat="49.25396" lon="0.97821">
        <ele>142</ele>
        <time>2024-01-30T15:49:40.661+00:00</time>
      </trkpt>
      <trkpt lat="49.25394" lon="0.97829">
        <ele>142</ele>
        <time>2024-01-30T15:49:44.830+00:00</time>
      </trkpt>
      <trkpt lat="49.25391" lon="0.97837">
        <ele>142</ele>
        <time>2024-01-30T15:49:48.880+00:00</time>
      </trkpt>
      <trkpt lat="49.25388" lon="0.97843">
        <ele>142</ele>
        <time>2024-01-30T15:49:53.049+00:00</time>
      </trkpt>
      <trkpt lat="49.25385" lon="0.97847">
        <ele>142</ele>
        <time>2024-01-30T15:49:57.099+00:00</time>
      </trkpt>
      <trkpt lat="49.2538" lon="0.97851">
        <ele>141</ele>
        <time>2024-01-30T15:50:01.744+00:00</time>
      </trkpt>
      <trkpt lat="49.25377" lon="0.97855">
        <ele>141</ele>
        <time>2024-01-30T15:50:05.913+00:00</time>
      </trkpt>
      <trkpt lat="49.25373" lon="0.97859">
        <ele>143</ele>
        <time>2024-01-30T15:50:10.512+00:00</time>
      </trkpt>
      <trkpt lat="49.25371" lon="0.97864">
        <ele>143</ele>
        <time>2024-01-30T15:50:14.999+00:00</time>
      </trkpt>
      <trkpt lat="49.25371" lon="0.97871">
        <ele>143</ele>
        <time>2024-01-30T15:50:19.016+00:00</time>
      </trkpt>
      <trkpt lat="49.25372" lon="0.97879">
        <ele>141</ele>
        <time>2024-01-30T15:50:23.511+00:00</time>
      </trkpt>
      <trkpt lat="49.25373" lon="0.97887">
        <ele>141</ele>
        <time>2024-01-30T15:50:28.068+00:00</time>
      </trkpt>
      <trkpt lat="49.25374" lon="0.97895">
        <ele>141</ele>
        <time>2024-01-30T15:50:32.237+00:00</time>
      </trkpt>
      <trkpt lat="49.25374" lon="0.97905">
        <ele>141</ele>
        <time>2024-01-30T15:50:36.883+00:00</time>
      </trkpt>
      <trkpt lat="49.25375" lon="0.97912">
        <ele>141</ele>
        <time>2024-01-30T15:50:41.051+00:00</time>
      </trkpt>
      <trkpt lat="49.25375" lon="0.9792">
        <ele>140</ele>
        <time>2024-01-30T15:50:45.697+00:00</time>
      </trkpt>
      <trkpt lat="49.25374" lon="0.97928">
        <ele>141</ele>
        <time>2024-01-30T15:50:49.537+00:00</time>
      </trkpt>
      <trkpt lat="49.25373" lon="0.97935">
        <ele>141</ele>
        <time>2024-01-30T15:50:53.677+00:00</time>
      </trkpt>
      <trkpt lat="49.25375" lon="0.97948">
        <ele>140</ele>
        <time>2024-01-30T15:51:06.661+00:00</time>
      </trkpt>
      <trkpt lat="49.25375" lon="0.97954">
        <ele>140</ele>
        <time>2024-01-30T15:51:10.830+00:00</time>
      </trkpt>
      <trkpt lat="49.25375" lon="0.97961">
        <ele>141</ele>
        <time>2024-01-30T15:51:14.879+00:00</time>
      </trkpt>
      <trkpt lat="49.25375" lon="0.97969">
        <ele>141</ele>
        <time>2024-01-30T15:51:19.644+00:00</time>
      </trkpt>
      <trkpt lat="49.25377" lon="0.97976">
        <ele>141</ele>
        <time>2024-01-30T15:51:24.170+00:00</time>
      </trkpt>
      <trkpt lat="49.25376" lon="0.97984">
        <ele>141</ele>
        <time>2024-01-30T15:51:28.101+00:00</time>
      </trkpt>
      <trkpt lat="49.25376" lon="0.97992">
        <ele>141</ele>
        <time>2024-01-30T15:51:32.270+00:00</time>
      </trkpt>
      <trkpt lat="49.25379" lon="0.97995">
        <ele>141</ele>
        <time>2024-01-30T15:51:36.439+00:00</time>
      </trkpt>
      <trkpt lat="49.25384" lon="0.97997">
        <ele>141</ele>
        <time>2024-01-30T15:51:41.084+00:00</time>
      </trkpt>
      <trkpt lat="49.2539" lon="0.98">
        <ele>141</ele>
        <time>2024-01-30T15:51:45.849+00:00</time>
      </trkpt>
      <trkpt lat="49.25395" lon="0.98002">
        <ele>141</ele>
        <time>2024-01-30T15:51:50.375+00:00</time>
      </trkpt>
      <trkpt lat="49.254" lon="0.98003">
        <ele>141</ele>
        <time>2024-01-30T15:51:54.425+00:00</time>
      </trkpt>
      <trkpt lat="49.25404" lon="0.98003">
        <ele>140</ele>
        <time>2024-01-30T15:51:58.475+00:00</time>
      </trkpt>
      <trkpt lat="49.25409" lon="0.98002">
        <ele>140</ele>
        <time>2024-01-30T15:52:02.644+00:00</time>
      </trkpt>
      <trkpt lat="49.25414" lon="0.98002">
        <ele>140</ele>
        <time>2024-01-30T15:52:06.693+00:00</time>
      </trkpt>
      <trkpt lat="49.2542" lon="0.98003">
        <ele>140</ele>
        <time>2024-01-30T15:52:11.458+00:00</time>
      </trkpt>
      <trkpt lat="49.25424" lon="0.98004">
        <ele>140</ele>
        <time>2024-01-30T15:52:15.537+00:00</time>
      </trkpt>
      <trkpt lat="49.25429" lon="0.98004">
        <ele>140</ele>
        <time>2024-01-30T15:52:19.677+00:00</time>
      </trkpt>
      <trkpt lat="49.25434" lon="0.98004">
        <ele>139</ele>
        <time>2024-01-30T15:52:23.726+00:00</time>
      </trkpt>
      <trkpt lat="49.25438" lon="0.98005">
        <ele>139</ele>
        <time>2024-01-30T15:52:27.895+00:00</time>
      </trkpt>
      <trkpt lat="49.25442" lon="0.98008">
        <ele>139</ele>
        <time>2024-01-30T15:52:32.064+00:00</time>
      </trkpt>
      <trkpt lat="49.25446" lon="0.98008">
        <ele>139</ele>
        <time>2024-01-30T15:52:49.097+00:00</time>
      </trkpt>
      <trkpt lat="49.25447" lon="0.9801">
        <ele>139</ele>
        <time>2024-01-30T15:52:53.537+00:00</time>
      </trkpt>
      <trkpt lat="49.25446" lon="0.98017">
        <ele>139</ele>
        <time>2024-01-30T15:52:58.031+00:00</time>
      </trkpt>
      <trkpt lat="49.25446" lon="0.98023">
        <ele>139</ele>
        <time>2024-01-30T15:53:02.081+00:00</time>
      </trkpt>
      <trkpt lat="49.25445" lon="0.98033">
        <ele>139</ele>
        <time>2024-01-30T15:53:06.726+00:00</time>
      </trkpt>
      <trkpt lat="49.25444" lon="0.98041">
        <ele>139</ele>
        <time>2024-01-30T15:53:10.895+00:00</time>
      </trkpt>
      <trkpt lat="49.25445" lon="0.98049">
        <ele>139</ele>
        <time>2024-01-30T15:53:15.511+00:00</time>
      </trkpt>
      <trkpt lat="49.25447" lon="0.98055">
        <ele>139</ele>
        <time>2024-01-30T15:53:19.828+00:00</time>
      </trkpt>
      <trkpt lat="49.25451" lon="0.98058">
        <ele>139</ele>
        <time>2024-01-30T15:53:23.759+00:00</time>
      </trkpt>
      <trkpt lat="49.25451" lon="0.98058">
        <ele>139</ele>
        <time>2024-01-30T15:53:28.285+00:00</time>
      </trkpt>
      <trkpt lat="49.25451" lon="0.98061">
        <ele>139</ele>
        <time>2024-01-30T15:53:33.050+00:00</time>
      </trkpt>
      <trkpt lat="49.25453" lon="0.98068">
        <ele>139</ele>
        <time>2024-01-30T15:53:37.668+00:00</time>
      </trkpt>
      <trkpt lat="49.25454" lon="0.98073">
        <ele>139</ele>
        <time>2024-01-30T15:53:41.537+00:00</time>
      </trkpt>
      <trkpt lat="49.25456" lon="0.98078">
        <ele>139</ele>
        <time>2024-01-30T15:53:45.676+00:00</time>
      </trkpt>
      <trkpt lat="49.25458" lon="0.98084">
        <ele>139</ele>
        <time>2024-01-30T15:53:49.844+00:00</time>
      </trkpt>
      <trkpt lat="49.25462" lon="0.9809">
        <ele>139</ele>
        <time>2024-01-30T15:53:54.371+00:00</time>
      </trkpt>
      <trkpt lat="49.25465" lon="0.98096">
        <ele>139</ele>
        <time>2024-01-30T15:53:59.016+00:00</time>
      </trkpt>
      <trkpt lat="49.25468" lon="0.98104">
        <ele>139</ele>
        <time>2024-01-30T15:54:03.661+00:00</time>
      </trkpt>
      <trkpt lat="49.2547" lon="0.98112">
        <ele>139</ele>
        <time>2024-01-30T15:54:07.830+00:00</time>
      </trkpt>
      <trkpt lat="49.2547" lon="0.9812">
        <ele>139</ele>
        <time>2024-01-30T15:54:11.880+00:00</time>
      </trkpt>
      <trkpt lat="49.25471" lon="0.98127">
        <ele>138</ele>
        <time>2024-01-30T15:54:16.287+00:00</time>
      </trkpt>
      <trkpt lat="49.25473" lon="0.98136">
        <ele>138</ele>
        <time>2024-01-30T15:54:20.933+00:00</time>
      </trkpt>
      <trkpt lat="49.25475" lon="0.98143">
        <ele>138</ele>
        <time>2024-01-30T15:54:26.173+00:00</time>
      </trkpt>
      <trkpt lat="49.25476" lon="0.9815">
        <ele>138</ele>
        <time>2024-01-30T15:54:30.104+00:00</time>
      </trkpt>
      <trkpt lat="49.25476" lon="0.98158">
        <ele>138</ele>
        <time>2024-01-30T15:54:34.273+00:00</time>
      </trkpt>
      <trkpt lat="49.25475" lon="0.98165">
        <ele>138</ele>
        <time>2024-01-30T15:54:38.442+00:00</time>
      </trkpt>
      <trkpt lat="49.25476" lon="0.98172">
        <ele>138</ele>
        <time>2024-01-30T15:54:42.537+00:00</time>
      </trkpt>
      <trkpt lat="49.25477" lon="0.9818">
        <ele>138</ele>
        <time>2024-01-30T15:54:46.661+00:00</time>
      </trkpt>
      <trkpt lat="49.25477" lon="0.98187">
        <ele>138</ele>
        <time>2024-01-30T15:54:50.829+00:00</time>
      </trkpt>
      <trkpt lat="49.25477" lon="0.98194">
        <ele>138</ele>
        <time>2024-01-30T15:54:54.879+00:00</time>
      </trkpt>
      <trkpt lat="49.25476" lon="0.98202">
        <ele>138</ele>
        <time>2024-01-30T15:54:59.048+00:00</time>
      </trkpt>
      <trkpt lat="49.25476" lon="0.9821">
        <ele>138</ele>
        <time>2024-01-30T15:55:04.293+00:00</time>
      </trkpt>
      <trkpt lat="49.2548" lon="0.98215">
        <ele>138</ele>
        <time>2024-01-30T15:55:08.458+00:00</time>
      </trkpt>
      <trkpt lat="49.25485" lon="0.98216">
        <ele>138</ele>
        <time>2024-01-30T15:55:12.537+00:00</time>
      </trkpt>
      <trkpt lat="49.25488" lon="0.98216">
        <ele>137</ele>
        <time>2024-01-30T15:55:16.677+00:00</time>
      </trkpt>
      <trkpt lat="49.25492" lon="0.98219">
        <ele>137</ele>
        <time>2024-01-30T15:55:21.322+00:00</time>
      </trkpt>
      <trkpt lat="49.25497" lon="0.98218">
        <ele>137</ele>
        <time>2024-01-30T15:55:25.252+00:00</time>
      </trkpt>
      <trkpt lat="49.25503" lon="0.98217">
        <ele>137</ele>
        <time>2024-01-30T15:55:29.421+00:00</time>
      </trkpt>
      <trkpt lat="49.25508" lon="0.98219">
        <ele>137</ele>
        <time>2024-01-30T15:55:33.471+00:00</time>
      </trkpt>
      <trkpt lat="49.25513" lon="0.98222">
        <ele>137</ele>
        <time>2024-01-30T15:55:37.981+00:00</time>
      </trkpt>
      <trkpt lat="49.2552" lon="0.98223">
        <ele>136</ele>
        <time>2024-01-30T15:55:42.532+00:00</time>
      </trkpt>
      <trkpt lat="49.25526" lon="0.98223">
        <ele>136</ele>
        <time>2024-01-30T15:55:47.050+00:00</time>
      </trkpt>
      <trkpt lat="49.25531" lon="0.98223">
        <ele>136</ele>
        <time>2024-01-30T15:55:51.099+00:00</time>
      </trkpt>
      <trkpt lat="49.25537" lon="0.98224">
        <ele>136</ele>
        <time>2024-01-30T15:55:55.537+00:00</time>
      </trkpt>
      <trkpt lat="49.25542" lon="0.98224">
        <ele>136</ele>
        <time>2024-01-30T15:55:59.675+00:00</time>
      </trkpt>
      <trkpt lat="49.25547" lon="0.98225">
        <ele>136</ele>
        <time>2024-01-30T15:56:03.825+00:00</time>
      </trkpt>
      <trkpt lat="49.25552" lon="0.98225">
        <ele>136</ele>
        <time>2024-01-30T15:56:08.370+00:00</time>
      </trkpt>
      <trkpt lat="49.25557" lon="0.98226">
        <ele>136</ele>
        <time>2024-01-30T15:56:13.492+00:00</time>
      </trkpt>
      <trkpt lat="49.25561" lon="0.98228">
        <ele>136</ele>
        <time>2024-01-30T15:56:18.018+00:00</time>
      </trkpt>
      <trkpt lat="49.25567" lon="0.98226">
        <ele>136</ele>
        <time>2024-01-30T15:56:22.902+00:00</time>
      </trkpt>
      <trkpt lat="49.25572" lon="0.98224">
        <ele>136</ele>
        <time>2024-01-30T15:56:27.071+00:00</time>
      </trkpt>
      <trkpt lat="49.25576" lon="0.98225">
        <ele>136</ele>
        <time>2024-01-30T15:56:31.240+00:00</time>
      </trkpt>
      <trkpt lat="49.2558" lon="0.98225">
        <ele>136</ele>
        <time>2024-01-30T15:56:35.289+00:00</time>
      </trkpt>
      <trkpt lat="49.25593" lon="0.98224">
        <ele>136</ele>
        <time>2024-01-30T15:57:03.280+00:00</time>
      </trkpt>
      <trkpt lat="49.25594" lon="0.98223">
        <ele>136</ele>
        <time>2024-01-30T15:57:07.973+00:00</time>
      </trkpt>
      <trkpt lat="49.25598" lon="0.98219">
        <ele>135</ele>
        <time>2024-01-30T15:57:12.094+00:00</time>
      </trkpt>
      <trkpt lat="49.25603" lon="0.98219">
        <ele>135</ele>
        <time>2024-01-30T15:57:16.263+00:00</time>
      </trkpt>
      <trkpt lat="49.25608" lon="0.9822">
        <ele>135</ele>
        <time>2024-01-30T15:57:20.432+00:00</time>
      </trkpt>
      <trkpt lat="49.25613" lon="0.98219">
        <ele>135</ele>
        <time>2024-01-30T15:57:24.971+00:00</time>
      </trkpt>
      <trkpt lat="49.25617" lon="0.98217">
        <ele>135</ele>
        <time>2024-01-30T15:57:29.365+00:00</time>
      </trkpt>
      <trkpt lat="49.25621" lon="0.98213">
        <ele>135</ele>
        <time>2024-01-30T15:57:33.891+00:00</time>
      </trkpt>
      <trkpt lat="49.25624" lon="0.98208">
        <ele>136</ele>
        <time>2024-01-30T15:57:37.941+00:00</time>
      </trkpt>
      <trkpt lat="49.25627" lon="0.98203">
        <ele>134</ele>
        <time>2024-01-30T15:57:41.871+00:00</time>
      </trkpt>
      <trkpt lat="49.25631" lon="0.98197">
        <ele>134</ele>
        <time>2024-01-30T15:57:46.040+00:00</time>
      </trkpt>
      <trkpt lat="49.25634" lon="0.98191">
        <ele>134</ele>
        <time>2024-01-30T15:57:50.090+00:00</time>
      </trkpt>
      <trkpt lat="49.25638" lon="0.98185">
        <ele>134</ele>
        <time>2024-01-30T15:57:54.537+00:00</time>
      </trkpt>
      <trkpt lat="49.25642" lon="0.98179">
        <ele>134</ele>
        <time>2024-01-30T15:57:58.666+00:00</time>
      </trkpt>
      <trkpt lat="49.25645" lon="0.98172">
        <ele>134</ele>
        <time>2024-01-30T15:58:02.835+00:00</time>
      </trkpt>
      <trkpt lat="49.2565" lon="0.98165">
        <ele>134</ele>
        <time>2024-01-30T15:58:07.491+00:00</time>
      </trkpt>
      <trkpt lat="49.25653" lon="0.98157">
        <ele>133</ele>
        <time>2024-01-30T15:58:12.125+00:00</time>
      </trkpt>
      <trkpt lat="49.25655" lon="0.98151">
        <ele>132</ele>
        <time>2024-01-30T15:58:16.056+00:00</time>
      </trkpt>
      <trkpt lat="49.25658" lon="0.98145">
        <ele>132</ele>
        <time>2024-01-30T15:58:20.105+00:00</time>
      </trkpt>
      <trkpt lat="49.2566" lon="0.98138">
        <ele>132</ele>
        <time>2024-01-30T15:58:24.274+00:00</time>
      </trkpt>
      <trkpt lat="49.25661" lon="0.9813">
        <ele>132</ele>
        <time>2024-01-30T15:58:28.445+00:00</time>
      </trkpt>
      <trkpt lat="49.25663" lon="0.98122">
        <ele>132</ele>
        <time>2024-01-30T15:58:32.481+00:00</time>
      </trkpt>
      <trkpt lat="49.25665" lon="0.98115">
        <ele>132</ele>
        <time>2024-01-30T15:58:36.537+00:00</time>
      </trkpt>
      <trkpt lat="49.25666" lon="0.98108">
        <ele>132</ele>
        <time>2024-01-30T15:58:40.592+00:00</time>
      </trkpt>
      <trkpt lat="49.25668" lon="0.98101">
        <ele>132</ele>
        <time>2024-01-30T15:58:44.642+00:00</time>
      </trkpt>
      <trkpt lat="49.2567" lon="0.98095">
        <ele>132</ele>
        <time>2024-01-30T15:58:48.692+00:00</time>
      </trkpt>
      <trkpt lat="49.25671" lon="0.98088">
        <ele>132</ele>
        <time>2024-01-30T15:58:52.741+00:00</time>
      </trkpt>
      <trkpt lat="49.25673" lon="0.98082">
        <ele>132</ele>
        <time>2024-01-30T15:58:56.894+00:00</time>
      </trkpt>
      <trkpt lat="49.25677" lon="0.98077">
        <ele>132</ele>
        <time>2024-01-30T15:59:00.841+00:00</time>
      </trkpt>
      <trkpt lat="49.25681" lon="0.98073">
        <ele>131</ele>
        <time>2024-01-30T15:59:04.890+00:00</time>
      </trkpt>
      <trkpt lat="49.25686" lon="0.9807">
        <ele>131</ele>
        <time>2024-01-30T15:59:09.059+00:00</time>
      </trkpt>
      <trkpt lat="49.25691" lon="0.98069">
        <ele>131</ele>
        <time>2024-01-30T15:59:13.109+00:00</time>
      </trkpt>
      <trkpt lat="49.25697" lon="0.98069">
        <ele>131</ele>
        <time>2024-01-30T15:59:17.278+00:00</time>
      </trkpt>
      <trkpt lat="49.25701" lon="0.9807">
        <ele>131</ele>
        <time>2024-01-30T15:59:21.447+00:00</time>
      </trkpt>
      <trkpt lat="49.25706" lon="0.9807">
        <ele>131</ele>
        <time>2024-01-30T15:59:25.537+00:00</time>
      </trkpt>
      <trkpt lat="49.25711" lon="0.98072">
        <ele>131</ele>
        <time>2024-01-30T15:59:29.665+00:00</time>
      </trkpt>
      <trkpt lat="49.25716" lon="0.98073">
        <ele>131</ele>
        <time>2024-01-30T15:59:33.715+00:00</time>
      </trkpt>
      <trkpt lat="49.25721" lon="0.98075">
        <ele>131</ele>
        <time>2024-01-30T15:59:37.881+00:00</time>
      </trkpt>
      <trkpt lat="49.25725" lon="0.98078">
        <ele>131</ele>
        <time>2024-01-30T15:59:42.009+00:00</time>
      </trkpt>
      <trkpt lat="49.25729" lon="0.98081">
        <ele>131</ele>
        <time>2024-01-30T15:59:46.106+00:00</time>
      </trkpt>
      <trkpt lat="49.25734" lon="0.98084">
        <ele>131</ele>
        <time>2024-01-30T15:59:50.033+00:00</time>
      </trkpt>
      <trkpt lat="49.25738" lon="0.98086">
        <ele>131</ele>
        <time>2024-01-30T15:59:54.082+00:00</time>
      </trkpt>
      <trkpt lat="49.25742" lon="0.98088">
        <ele>131</ele>
        <time>2024-01-30T15:59:58.251+00:00</time>
      </trkpt>
      <trkpt lat="49.25747" lon="0.98091">
        <ele>131</ele>
        <time>2024-01-30T16:00:03.016+00:00</time>
      </trkpt>
      <trkpt lat="49.25752" lon="0.98094">
        <ele>131</ele>
        <time>2024-01-30T16:00:07.065+00:00</time>
      </trkpt>
      <trkpt lat="49.25754" lon="0.98092">
        <ele>131</ele>
        <time>2024-01-30T16:00:11.234+00:00</time>
      </trkpt>
      <trkpt lat="49.25755" lon="0.98095">
        <ele>131</ele>
        <time>2024-01-30T16:00:15.879+00:00</time>
      </trkpt>
      <trkpt lat="49.25761" lon="0.98097">
        <ele>131</ele>
        <time>2024-01-30T16:00:20.644+00:00</time>
      </trkpt>
      <trkpt lat="49.25767" lon="0.98099">
        <ele>131</ele>
        <time>2024-01-30T16:00:24.694+00:00</time>
      </trkpt>
      <trkpt lat="49.25772" lon="0.98101">
        <ele>131</ele>
        <time>2024-01-30T16:00:28.862+00:00</time>
      </trkpt>
      <trkpt lat="49.25777" lon="0.98104">
        <ele>131</ele>
        <time>2024-01-30T16:00:33.031+00:00</time>
      </trkpt>
      <trkpt lat="49.25782" lon="0.98106">
        <ele>131</ele>
        <time>2024-01-30T16:00:37.081+00:00</time>
      </trkpt>
      <trkpt lat="49.25786" lon="0.98109">
        <ele>131</ele>
        <time>2024-01-30T16:00:41.250+00:00</time>
      </trkpt>
      <trkpt lat="49.2579" lon="0.98111">
        <ele>131</ele>
        <time>2024-01-30T16:00:45.299+00:00</time>
      </trkpt>
      <trkpt lat="49.25795" lon="0.98114">
        <ele>130</ele>
        <time>2024-01-30T16:00:50.064+00:00</time>
      </trkpt>
      <trkpt lat="49.258" lon="0.98117">
        <ele>130</ele>
        <time>2024-01-30T16:00:54.233+00:00</time>
      </trkpt>
      <trkpt lat="49.25804" lon="0.98119">
        <ele>130</ele>
        <time>2024-01-30T16:00:58.282+00:00</time>
      </trkpt>
      <trkpt lat="49.25809" lon="0.98121">
        <ele>130</ele>
        <time>2024-01-30T16:01:02.451+00:00</time>
      </trkpt>
      <trkpt lat="49.25812" lon="0.98123">
        <ele>130</ele>
        <time>2024-01-30T16:01:06.537+00:00</time>
      </trkpt>
      <trkpt lat="49.25814" lon="0.98125">
        <ele>130</ele>
        <time>2024-01-30T16:01:10.670+00:00</time>
      </trkpt>
      <trkpt lat="49.25817" lon="0.98127">
        <ele>129</ele>
        <time>2024-01-30T16:01:14.839+00:00</time>
      </trkpt>
      <trkpt lat="49.25821" lon="0.9813">
        <ele>128</ele>
        <time>2024-01-30T16:01:18.888+00:00</time>
      </trkpt>
      <trkpt lat="49.25826" lon="0.98131">
        <ele>128</ele>
        <time>2024-01-30T16:01:23.509+00:00</time>
      </trkpt>
      <trkpt lat="49.25831" lon="0.9813">
        <ele>128</ele>
        <time>2024-01-30T16:01:28.060+00:00</time>
      </trkpt>
      <trkpt lat="49.25836" lon="0.98134">
        <ele>128</ele>
        <time>2024-01-30T16:01:32.229+00:00</time>
      </trkpt>
      <trkpt lat="49.25841" lon="0.98137">
        <ele>128</ele>
        <time>2024-01-30T16:01:36.278+00:00</time>
      </trkpt>
      <trkpt lat="49.25847" lon="0.98139">
        <ele>128</ele>
        <time>2024-01-30T16:01:40.447+00:00</time>
      </trkpt>
      <trkpt lat="49.25851" lon="0.98143">
        <ele>128</ele>
        <time>2024-01-30T16:01:44.537+00:00</time>
      </trkpt>
      <trkpt lat="49.25856" lon="0.98148">
        <ele>128</ele>
        <time>2024-01-30T16:01:49.023+00:00</time>
      </trkpt>
      <trkpt lat="49.2586" lon="0.98151">
        <ele>128</ele>
        <time>2024-01-30T16:01:53.073+00:00</time>
      </trkpt>
      <trkpt lat="49.25865" lon="0.98153">
        <ele>128</ele>
        <time>2024-01-30T16:01:57.242+00:00</time>
      </trkpt>
      <trkpt lat="49.2587" lon="0.98155">
        <ele>127</ele>
        <time>2024-01-30T16:02:01.291+00:00</time>
      </trkpt>
      <trkpt lat="49.25875" lon="0.98159">
        <ele>127</ele>
        <time>2024-01-30T16:02:06.056+00:00</time>
      </trkpt>
      <trkpt lat="49.25879" lon="0.98163">
        <ele>127</ele>
        <time>2024-01-30T16:02:10.105+00:00</time>
      </trkpt>
      <trkpt lat="49.25883" lon="0.98168">
        <ele>127</ele>
        <time>2024-01-30T16:02:14.869+00:00</time>
      </trkpt>
      <trkpt lat="49.25886" lon="0.98173">
        <ele>127</ele>
        <time>2024-01-30T16:02:19.039+00:00</time>
      </trkpt>
      <trkpt lat="49.25887" lon="0.98182">
        <ele>127</ele>
        <time>2024-01-30T16:02:23.088+00:00</time>
      </trkpt>
      <trkpt lat="49.25889" lon="0.98189">
        <ele>127</ele>
        <time>2024-01-30T16:02:27.257+00:00</time>
      </trkpt>
      <trkpt lat="49.25891" lon="0.98195">
        <ele>127</ele>
        <time>2024-01-30T16:02:31.307+00:00</time>
      </trkpt>
      <trkpt lat="49.25893" lon="0.98202">
        <ele>127</ele>
        <time>2024-01-30T16:02:35.476+00:00</time>
      </trkpt>
      <trkpt lat="49.25893" lon="0.98208">
        <ele>127</ele>
        <time>2024-01-30T16:02:39.645+00:00</time>
      </trkpt>
      <trkpt lat="49.25891" lon="0.98215">
        <ele>127</ele>
        <time>2024-01-30T16:02:43.694+00:00</time>
      </trkpt>
      <trkpt lat="49.25887" lon="0.9822">
        <ele>127</ele>
        <time>2024-01-30T16:02:47.863+00:00</time>
      </trkpt>
      <trkpt lat="49.25882" lon="0.98224">
        <ele>127</ele>
        <time>2024-01-30T16:02:52.508+00:00</time>
      </trkpt>
      <trkpt lat="49.25877" lon="0.98228">
        <ele>127</ele>
        <time>2024-01-30T16:02:57.035+00:00</time>
      </trkpt>
      <trkpt lat="49.25873" lon="0.98232">
        <ele>127</ele>
        <time>2024-01-30T16:03:01.509+00:00</time>
      </trkpt>
      <trkpt lat="49.25869" lon="0.98237">
        <ele>128</ele>
        <time>2024-01-30T16:03:05.968+00:00</time>
      </trkpt>
      <trkpt lat="49.25865" lon="0.98242">
        <ele>128</ele>
        <time>2024-01-30T16:03:10.018+00:00</time>
      </trkpt>
      <trkpt lat="49.25861" lon="0.98249">
        <ele>128</ele>
        <time>2024-01-30T16:03:15.020+00:00</time>
      </trkpt>
      <trkpt lat="49.25859" lon="0.98256">
        <ele>128</ele>
        <time>2024-01-30T16:03:19.507+00:00</time>
      </trkpt>
      <trkpt lat="49.25859" lon="0.98264">
        <ele>129</ele>
        <time>2024-01-30T16:03:23.953+00:00</time>
      </trkpt>
      <trkpt lat="49.2586" lon="0.98271">
        <ele>129</ele>
        <time>2024-01-30T16:03:27.884+00:00</time>
      </trkpt>
      <trkpt lat="49.25861" lon="0.98279">
        <ele>129</ele>
        <time>2024-01-30T16:03:32.513+00:00</time>
      </trkpt>
      <trkpt lat="49.25861" lon="0.98286">
        <ele>129</ele>
        <time>2024-01-30T16:03:36.698+00:00</time>
      </trkpt>
      <trkpt lat="49.25859" lon="0.98293">
        <ele>129</ele>
        <time>2024-01-30T16:03:40.867+00:00</time>
      </trkpt>
      <trkpt lat="49.25857" lon="0.983">
        <ele>129</ele>
        <time>2024-01-30T16:03:45.036+00:00</time>
      </trkpt>
      <trkpt lat="49.25853" lon="0.98305">
        <ele>129</ele>
        <time>2024-01-30T16:03:49.085+00:00</time>
      </trkpt>
      <trkpt lat="49.25849" lon="0.98312">
        <ele>129</ele>
        <time>2024-01-30T16:03:53.537+00:00</time>
      </trkpt>
      <trkpt lat="49.25847" lon="0.98319">
        <ele>129</ele>
        <time>2024-01-30T16:03:58.019+00:00</time>
      </trkpt>
      <trkpt lat="49.25847" lon="0.98325">
        <ele>130</ele>
        <time>2024-01-30T16:04:02.068+00:00</time>
      </trkpt>
      <trkpt lat="49.25848" lon="0.98326">
        <ele>130</ele>
        <time>2024-01-30T16:04:07.429+00:00</time>
      </trkpt>
      <trkpt lat="49.2585" lon="0.98327">
        <ele>130</ele>
        <time>2024-01-30T16:04:12.074+00:00</time>
      </trkpt>
      <trkpt lat="49.25852" lon="0.98332">
        <ele>130</ele>
        <time>2024-01-30T16:04:17.077+00:00</time>
      </trkpt>
      <trkpt lat="49.25854" lon="0.98338">
        <ele>130</ele>
        <time>2024-01-30T16:04:21.723+00:00</time>
      </trkpt>
      <trkpt lat="49.25857" lon="0.98342">
        <ele>130</ele>
        <time>2024-01-30T16:04:26.368+00:00</time>
      </trkpt>
      <trkpt lat="49.2586" lon="0.98347">
        <ele>130</ele>
        <time>2024-01-30T16:04:30.776+00:00</time>
      </trkpt>
      <trkpt lat="49.25862" lon="0.98351">
        <ele>130</ele>
        <time>2024-01-30T16:04:34.230+00:00</time>
      </trkpt>
      <trkpt lat="49.25865" lon="0.98356">
        <ele>130</ele>
        <time>2024-01-30T16:04:39.471+00:00</time>
      </trkpt>
      <trkpt lat="49.25868" lon="0.98361">
        <ele>130</ele>
        <time>2024-01-30T16:04:44.206+00:00</time>
      </trkpt>
      <trkpt lat="49.2587" lon="0.98365">
        <ele>130</ele>
        <time>2024-01-30T16:04:48.286+00:00</time>
      </trkpt>
      <trkpt lat="49.25872" lon="0.98372">
        <ele>130</ele>
        <time>2024-01-30T16:04:52.455+00:00</time>
      </trkpt>
      <trkpt lat="49.25872" lon="0.9838">
        <ele>130</ele>
        <time>2024-01-30T16:04:56.537+00:00</time>
      </trkpt>
      <trkpt lat="49.25872" lon="0.98387">
        <ele>130</ele>
        <time>2024-01-30T16:05:00.674+00:00</time>
      </trkpt>
      <trkpt lat="49.25871" lon="0.98393">
        <ele>130</ele>
        <time>2024-01-30T16:05:04.843+00:00</time>
      </trkpt>
      <trkpt lat="49.25871" lon="0.98401">
        <ele>130</ele>
        <time>2024-01-30T16:05:09.370+00:00</time>
      </trkpt>
      <trkpt lat="49.25871" lon="0.98408">
        <ele>130</ele>
        <time>2024-01-30T16:05:13.777+00:00</time>
      </trkpt>
      <trkpt lat="49.25872" lon="0.98416">
        <ele>130</ele>
        <time>2024-01-30T16:05:17.827+00:00</time>
      </trkpt>
      <trkpt lat="49.25876" lon="0.98422">
        <ele>130</ele>
        <time>2024-01-30T16:05:21.877+00:00</time>
      </trkpt>
      <trkpt lat="49.25879" lon="0.98428">
        <ele>130</ele>
        <time>2024-01-30T16:05:26.046+00:00</time>
      </trkpt>
      <trkpt lat="49.25882" lon="0.98433">
        <ele>130</ele>
        <time>2024-01-30T16:05:30.095+00:00</time>
      </trkpt>
      <trkpt lat="49.25884" lon="0.9844">
        <ele>130</ele>
        <time>2024-01-30T16:05:34.264+00:00</time>
      </trkpt>
      <trkpt lat="49.25886" lon="0.98448">
        <ele>130</ele>
        <time>2024-01-30T16:05:38.791+00:00</time>
      </trkpt>
      <trkpt lat="49.25889" lon="0.98453">
        <ele>130</ele>
        <time>2024-01-30T16:05:43.264+00:00</time>
      </trkpt>
      <trkpt lat="49.25889" lon="0.9846">
        <ele>130</ele>
        <time>2024-01-30T16:05:47.248+00:00</time>
      </trkpt>
      <trkpt lat="49.25892" lon="0.98466">
        <ele>130</ele>
        <time>2024-01-30T16:05:51.297+00:00</time>
      </trkpt>
      <trkpt lat="49.25896" lon="0.98473">
        <ele>130</ele>
        <time>2024-01-30T16:05:56.062+00:00</time>
      </trkpt>
      <trkpt lat="49.259" lon="0.98476">
        <ele>130</ele>
        <time>2024-01-30T16:05:59.040+00:00</time>
      </trkpt>
      <trkpt lat="49.25905" lon="0.98478">
        <ele>129</ele>
        <time>2024-01-30T16:06:02.537+00:00</time>
      </trkpt>
      <trkpt lat="49.2591" lon="0.98481">
        <ele>129</ele>
        <time>2024-01-30T16:06:07.259+00:00</time>
      </trkpt>
      <trkpt lat="49.25913" lon="0.98485">
        <ele>129</ele>
        <time>2024-01-30T16:06:11.666+00:00</time>
      </trkpt>
      <trkpt lat="49.25916" lon="0.98491">
        <ele>129</ele>
        <time>2024-01-30T16:06:15.835+00:00</time>
      </trkpt>
      <trkpt lat="49.25918" lon="0.98497">
        <ele>129</ele>
        <time>2024-01-30T16:06:19.885+00:00</time>
      </trkpt>
      <trkpt lat="49.25921" lon="0.98502">
        <ele>129</ele>
        <time>2024-01-30T16:06:24.054+00:00</time>
      </trkpt>
      <trkpt lat="49.25924" lon="0.98507">
        <ele>129</ele>
        <time>2024-01-30T16:06:28.105+00:00</time>
      </trkpt>
      <trkpt lat="49.25927" lon="0.98512">
        <ele>129</ele>
        <time>2024-01-30T16:06:32.274+00:00</time>
      </trkpt>
      <trkpt lat="49.2593" lon="0.98518">
        <ele>129</ele>
        <time>2024-01-30T16:06:36.920+00:00</time>
      </trkpt>
      <trkpt lat="49.25932" lon="0.98523">
        <ele>129</ele>
        <time>2024-01-30T16:06:41.477+00:00</time>
      </trkpt>
      <trkpt lat="49.25932" lon="0.9853">
        <ele>129</ele>
        <time>2024-01-30T16:06:46.093+00:00</time>
      </trkpt>
      <trkpt lat="49.2593" lon="0.98537">
        <ele>129</ele>
        <time>2024-01-30T16:06:50.024+00:00</time>
      </trkpt>
      <trkpt lat="49.25929" lon="0.98544">
        <ele>130</ele>
        <time>2024-01-30T16:06:54.075+00:00</time>
      </trkpt>
      <trkpt lat="49.25927" lon="0.98551">
        <ele>130</ele>
        <time>2024-01-30T16:06:58.537+00:00</time>
      </trkpt>
      <trkpt lat="49.25924" lon="0.98557">
        <ele>130</ele>
        <time>2024-01-30T16:07:02.652+00:00</time>
      </trkpt>
      <trkpt lat="49.25922" lon="0.98564">
        <ele>130</ele>
        <time>2024-01-30T16:07:07.245+00:00</time>
      </trkpt>
      <trkpt lat="49.25921" lon="0.98572">
        <ele>130</ele>
        <time>2024-01-30T16:07:11.706+00:00</time>
      </trkpt>
      <trkpt lat="49.2592" lon="0.98578">
        <ele>130</ele>
        <time>2024-01-30T16:07:15.876+00:00</time>
      </trkpt>
      <trkpt lat="49.25918" lon="0.98583">
        <ele>130</ele>
        <time>2024-01-30T16:07:20.477+00:00</time>
      </trkpt>
      <trkpt lat="49.25917" lon="0.98588">
        <ele>130</ele>
        <time>2024-01-30T16:07:24.453+00:00</time>
      </trkpt>
      <trkpt lat="49.25916" lon="0.98595">
        <ele>130</ele>
        <time>2024-01-30T16:07:29.053+00:00</time>
      </trkpt>
      <trkpt lat="49.25914" lon="0.98602">
        <ele>131</ele>
        <time>2024-01-30T16:07:33.031+00:00</time>
      </trkpt>
      <trkpt lat="49.25913" lon="0.98608">
        <ele>131</ele>
        <time>2024-01-30T16:07:37.677+00:00</time>
      </trkpt>
      <trkpt lat="49.25912" lon="0.98614">
        <ele>131</ele>
        <time>2024-01-30T16:07:41.728+00:00</time>
      </trkpt>
      <trkpt lat="49.25911" lon="0.98617">
        <ele>131</ele>
        <time>2024-01-30T16:07:46.255+00:00</time>
      </trkpt>
      <trkpt lat="49.25911" lon="0.98622">
        <ele>131</ele>
        <time>2024-01-30T16:07:50.925+00:00</time>
      </trkpt>
      <trkpt lat="49.25909" lon="0.98627">
        <ele>131</ele>
        <time>2024-01-30T16:07:54.951+00:00</time>
      </trkpt>
      <trkpt lat="49.25909" lon="0.98633">
        <ele>131</ele>
        <time>2024-01-30T16:07:59.478+00:00</time>
      </trkpt>
      <trkpt lat="49.25909" lon="0.98638">
        <ele>131</ele>
        <time>2024-01-30T16:08:03.648+00:00</time>
      </trkpt>
      <trkpt lat="49.25907" lon="0.98642">
        <ele>131</ele>
        <time>2024-01-30T16:08:08.294+00:00</time>
      </trkpt>
      <trkpt lat="49.25906" lon="0.98645">
        <ele>131</ele>
        <time>2024-01-30T16:08:13.059+00:00</time>
      </trkpt>
      <trkpt lat="49.25906" lon="0.98652">
        <ele>131</ele>
        <time>2024-01-30T16:08:17.537+00:00</time>
      </trkpt>
    </trkseg>
  </trk>
</gpx>